     2              OBSERVATION DATA                        RINEX VERSION / TYPE
DAT2RIN 1.01d Dan Johnson 12SEP96 4:35:11 GMT               PGM / RUN BY / DATE
Mojave '96 team Central Washington U                        OBSERVER / AGENCY
15468 TRIMBLE 4000SSI Nav 7.09 Sig 3.03                     REC # / TYPE / VERS
63792 TRIMBLE CHOKE                                         ANT # / TYPE
WSTG                                                        MARKER NAME
 -2398509.0000 -4482210.0000  3842678.0000                  APPROX POSITION XYZ
        0.0814        0.0000        0.0000                  ANTENNA: DELTA H/E/N
     1     1     0                                          WAVELENGTH FACT L1/2
     5    L1    C1    P1    L2    P2                        # / TYPES OF OBSERV
    30                                                      INTERVAL
                                                            COMMENT
PANGA GPS Data Analysis Center                              COMMENT
Department of Geology                                       COMMENT
Central Washington University                               COMMENT
Ellensburg, WA 98926                                        COMMENT
                                                            COMMENT
http://www.panga.cwu.edu                                    COMMENT
ftp://panga.cwu.edu                                         COMMENT
                                                            COMMENT
  1996     9     5     0     0   30.000000                  TIME OF FIRST OBS
  1996     9     5    23    59    0.000000                  TIME OF LAST OBS
    25                                                      # OF SATELLITES
           1   739   739     0   737   737                  PRN / # OF OBS
           2   837   838     0   829   829                  PRN / # OF OBS
           3   915   917     0   890   890                  PRN / # OF OBS
           4   794   798     0   777   777                  PRN / # OF OBS
           5   716   716     0   713   713                  PRN / # OF OBS
           6   777   777     0   774   774                  PRN / # OF OBS
           7   734   734     0   732   732                  PRN / # OF OBS
           9   853   856     0   835   835                  PRN / # OF OBS
          10   879   883     0   868   868                  PRN / # OF OBS
          14   710   710     0   708   708                  PRN / # OF OBS
          15   883   884     0   863   863                  PRN / # OF OBS
          16   884   887     0   865   865                  PRN / # OF OBS
          17   844   845     0   842   842                  PRN / # OF OBS
          18   759   761     0   753   753                  PRN / # OF OBS
          19   840   841     0   837   837                  PRN / # OF OBS
          21   846   846     0   837   837                  PRN / # OF OBS
          22   877   878     0   871   871                  PRN / # OF OBS
          23   789   789     0   787   787                  PRN / # OF OBS
          24   696   696     0   693   693                  PRN / # OF OBS
          25   638   641     0   630   630                  PRN / # OF OBS
          26   923   926     0   901   901                  PRN / # OF OBS
          27   811   811     0   809   809                  PRN / # OF OBS
          28   704     1   707   706   706                  PRN / # OF OBS
          29   840   840     0   835   835                  PRN / # OF OBS
          31   923   925     0   890   890                  PRN / # OF OBS
                                                            END OF HEADER
 96  9  5  0  0 30.0000000  0  6  1 14 15 21 25 29
    401749.78310  22196869.59400                    486106.91050  22196874.03540
  -5360995.81810  23387215.03900                  -4056896.57850  23387220.04340
 -13504386.48710  20872191.41400                   -434378.87850  20872195.21140
   7081784.36910  22932262.41400                   4771413.73550  22932267.30140
 -14433303.51510  20869087.07000                 -11098231.00650  20869089.97740
  -4194379.18210  23582671.82800                  -3145005.48750  23582674.40640
 96  9  5  0  1  0.0000000  0  6  1 14 15 21 25 29
    496387.50700  22214878.36700                    559850.55640  22214882.68040
  -5422070.98000  23375592.98400                  -4104487.59540  23375597.61340
 -13506705.88700  20871749.89800                   -436186.20540  20871753.89540
   7182882.50400  22951501.00800                   4850191.44240  22951505.93040
 -14438579.23400  20868083.28100                 -11102341.94340  20868086.09440
  -4244800.27700  23573077.46900                  -3184294.58740  23573079.64840
 96  9  5  0  1 30.0000000  0  6  1 14 15 21 25 29
    591126.61000  22232907.02300                    633673.20840  22232911.00840
  -5483107.42700  23363977.64100                  -4152048.42840  23363981.40240
 -13508411.57900  20871425.22700                   -437515.32240  20871429.35240
   7284249.92900  22970790.64800                   4929178.97540  22970795.10240
 -14443311.28000  20867182.64800                 -11106029.23440  20867185.42640
  -4295065.26900  23563510.94500                  -3223462.08740  23563515.14140
 96  9  5  0  2  0.0000000  0  6  1 14 15 21 25 29
    685979.09100  22250956.95300                    707584.21040  22250961.05540
  -5544091.58500  23352373.00800                  -4199568.50340  23352377.00440
 -13509492.35500  20871219.48400                   -438357.48940  20871223.64540
   7385889.43200  22990132.13300                   5008378.51740  22990136.27040
 -14447484.66200  20866388.61700                 -11109281.20740  20866391.46540
  -4345142.62800  23553982.06300                  -3262483.34740  23553985.52040
 96  9  5  0  2 30.0000000  0  6  1 14 15 21 25 29
    780962.60500  22269031.56300                    781597.31240  22269035.65240
  -5605032.21000  23340775.96100                  -4247054.66340  23340781.10540
 -13509956.45700  20871131.22700                   -438719.13240  20871135.30540
   7487786.85400  23009522.67200                   5087779.04540  23009527.21940
 -14451134.07500  20865694.13300                 -11112124.89240  20865696.88740
  -4395017.12500  23544491.19500                  -3301346.53040  23544496.34040
 96  9  5  0  3  0.0000000  0  6  1 14 15 21 25 29
    876106.53400  22287136.67200                    855735.41240  22287141.48840
  -5665921.33700  23329189.27300                  -4294500.70040  23329193.84440
 -13509797.97400  20871161.31300                   -438595.64340  20871165.55540
   7589942.90700  23028961.53100                   5167381.11440  23028966.48840
 -14454278.34500  20865095.73400                 -11114574.96240  20865098.71140
  -4444656.98100  23535044.25000                  -3340026.88940  23535047.27340
 96  9  5  0  3 30.0000000  0  6  1 14 15 21 25 29
    971402.38900  22305271.34400                    929991.89140  22305275.38740
  -5726769.48300  23317610.50000                  -4341914.80540  23317615.04740
 -13509015.71800  20871310.43800                   -437986.09240  20871314.50440
   7692337.58200  23048447.17200                   5247169.13340  23048452.65640
 -14456918.68500  20864592.75800                 -11116632.35840  20864595.61740
  -4494068.97700  23525642.37500                  -3378529.69440  23525646.27740
 96  9  5  0  4  0.0000000  0  6  1 14 15 21 25 29
   1066833.88200  22323431.29700                   1004354.06940  22323434.53140
  -5787595.34700  23306035.14100                  -4389311.53840  23306040.27340
 -13507616.28700  20871576.52300                   -436895.62840  20871580.33240
   7794959.83800  23067976.14100                   5327134.47440  23067979.60940
 -14459053.44300  20864187.14100                 -11118295.79340  20864189.96540
  -4543272.58800  23516279.64100                  -3416870.12640  23516284.04740
 96  9  5  0  4 30.0000000  0  6  1 14 15 21 25 29
   1162386.31100  22341614.23400                   1078810.48540  22341617.73840
  -5848378.98700  23294468.10200                  -4436675.40340  23294473.29340
 -13505600.59000  20871960.34400                   -435324.95640  20871964.24640
   7897824.42400  23087550.02300                   5407288.62940  23087555.55540
 -14460673.23400  20863878.58600                 -11119557.95640  20863881.70340
  -4592285.21600  23506951.80500                  -3455061.75840  23506955.62540
 96  9  5  0  5  0.0000000  0  6  1 14 15 21 25 29
   1258047.07900  22359817.73400                   1153351.32240  22359821.59040
  -5909088.08000  23282915.57800                  -4483981.16140  23282920.75840
 -13502957.01500  20872463.27300                   -433265.02840  20872467.19940
   8000954.89300  23107175.35900                   5487649.98040  23107180.49240
 -14461738.03800  20863676.03900                 -11120387.66640  20863678.92240
  -4641122.79600  23497657.46900                  -3493116.93640  23497661.74640
 96  9  5  0  5 30.0000000  0  6  1 14 15 21 25 29
   1353790.81000  22378037.33600                   1227956.80340  22378040.86340
  -5969732.36700  23271376.07800                  -4531236.39840  23271381.70340
 -13499688.24500  20873085.16400                   -430717.93540  20873089.45340
   8104349.96500  23126850.70300                   5568217.50240  23126856.00040
 -14462228.21700  20863582.95300                 -11120769.61340  20863585.64840
  -4689807.53300  23488393.75800                  -3531053.05840  23488398.56340
 96  9  5  0  6  0.0000000  0  6  1 14 15 21 25 29
   1449611.94300  22396272.03900                   1302622.60140  22396275.89540
  -6030310.85600  23259847.96900                  -4578440.39840  23259852.69140
 -13495797.37800  20873825.46900                   -427686.08840  20873829.65240
   8208017.59600  23146577.82000                   5648997.43640  23146583.49240
 -14462149.66700  20863597.78900                 -11120708.38740  20863600.69540
  -4738350.17900  23479157.35200                  -3568878.47240  23479160.62140
 96  9  5  0  6 30.0000000  0  6  1 14 15 21 25 29
   1545527.69900  22414523.87500                   1377362.12140  22414527.87140
  -6090818.23100  23248334.10900                  -4625588.97140  23248338.28140
 -13491274.99300  20874686.47700                   -424162.15140  20874690.35540
   8311958.39500  23166357.32000                   5729990.22440  23166362.38340
 -14461499.02400  20863721.33600                 -11120201.38740  20863724.62940
  -4786742.93200  23469948.63300                  -3606587.07240  23469952.17240
 96  9  5  0  7  0.0000000  0  6  1 14 15 21 25 29
   1641547.10100  22432795.61700                   1452182.41340  22432800.02340
  -6151289.08600  23236826.93800                  -4672709.10440  23236831.18040
 -13486122.45700  20875666.77300                   -420147.18940  20875670.88740
   8416149.80900  23186184.76600                   5811178.27340  23186187.23840
 -14460295.53100  20863950.60200                 -11119263.59440  20863953.49640
  -4834986.34800  23460768.07000                  -3644179.31440  23460773.26240
 96  9  5  0  7 30.0000000  0  6  1 14 15 21 25 29
   1737670.35700  22451086.94500                   1527083.61240  22451091.19940
  -6211751.81700  23225321.03900                  -4719822.89240  23225326.33640
 -13480347.19900  20876765.75000                   -415646.99640  20876769.85240
   8520568.53800  23206054.39800                   5892543.44940  23206058.82840
 -14458566.82100  20864279.25800                 -11117916.53940  20864282.05940
  -4883076.30000  23451616.07000                  -3681651.95540  23451621.05140
 96  9  5  0  8  0.0000000  0  6  1 14 15 21 25 29
   1833915.87200  22469402.27300                   1602080.08940  22469406.36340
  -6272183.24300  23213821.14800                  -4766912.28040  23213825.59040
 -13473939.33300  20877985.08600                   -410653.84940  20877989.19940
   8625222.85900  23225969.98400                   5974092.18540  23225974.85940
 -14456311.06600  20864708.64800                 -11116158.79440  20864711.82440
  -4931000.62200  23442497.00800                  -3718995.58640  23442502.18840
 96  9  5  0  8 30.0000000  0  6  1 14 15 21 25 29
   1930281.27000  22487739.63300                   1677169.98740  22487743.80540
  -6332584.64000  23202327.75000                  -4813978.28140  23202332.13340
 -13466899.95200  20879324.75800                   -405168.62940  20879328.69540
   8730103.73800  23245927.60200                   6055817.49040  23245933.68440
 -14453522.90600  20865239.25000                 -11113986.19640  20865242.53140
  -4978744.08400  23433411.10200                  -3756198.23240  23433415.32040
 96  9  5  0  9  0.0000000  0  6  1 14 15 21 25 29
   2026752.37900  22506097.75000                   1752342.25340  22506101.48840
  -6392949.51400  23190840.23400                  -4861015.83640  23190844.89840
 -13459230.32900  20880784.32000                   -399192.30440  20880788.10540
   8835205.63900  23265928.26600                   6137715.01340  23265933.45740
 -14450209.24600  20865869.71100                 -11111404.11740  20865872.51240
  -5026287.18900  23424363.71100                  -3793244.79440  23424368.16440
 96  9  5  0  9 30.0000000  0  6  1 14 15 21 25 29
   2123314.52100  22524472.97700                   1827585.45240  22524476.62140
  -6453262.89200  23179363.14800                  -4908013.23640  23179367.57840
 -13450931.90400  20882363.21900                   -392726.00840  20882367.46140
   8940532.55200  23285971.60900                   6219787.86740  23285975.86340
 -14446360.29600  20866602.36700                 -11108404.92140  20866605.16840
  -5073623.48100  23415355.80500                  -3830130.16640  23415360.31640
 96  9  5  0 10  0.0000000  0  6  1 14 15 21 25 29
   2219960.08600  22542864.11700                   1902893.66640  22542867.28140
  -6513508.43800  23167898.46900                  -4954957.79740  23167903.33240
 -13442000.41300  20884062.75800                   -385766.41740  20884066.98840
   9046097.70400  23306060.00800                   6302046.39040  23306065.18840
 -14441966.35500  20867438.53900                 -11104981.07040  20867441.49240
  -5120742.73600  23406389.33600                  -3866846.44640  23406394.49240
 96  9  5  0 10 30.0000000  0  6  1 14 15 21 25 29
   2316677.06000  22561268.50800                   1978257.52440  22561272.38740
  -6573688.06300  23156447.36700                  -5001850.98440  23156452.10240
 -13432432.23900  20885883.68800                   -378310.70440  20885887.66040
   9151898.77400  23326193.39100                   6384488.71340  23326196.75440
 -14437028.13800  20868378.22700                 -11101133.08840  20868380.93440
  -5167627.96600  23397468.86700                  -3903380.35740  23397473.47340
 96  9  5  0 11  0.0000000  0  6  1 14 15 21 25 29
   2413460.66500  22579685.84400                   2053673.29140  22579690.18040
  -6633794.73500  23145009.10900                  -5048687.33140  23145013.92640
 -13422229.20500  20887825.18000                   -370360.30640  20887829.16440
   9257939.04000  23346372.35200                   6467117.43440  23346377.53140
 -14431548.63400  20869420.85900                 -11096863.33940  20869423.62540
  -5214307.70100  23388585.32000                  -3939754.16340  23388590.03140
 96  9  5  0 11 30.0000000  0  6  1 14 15 21 25 29
   2510317.30900  22598116.88300                   2129145.96440  22598121.23040
  -6693818.92200  23133586.30500                  -5095459.40240  23133589.59840
 -13411391.16400  20889887.66400                   -361915.09140  20889891.82440
   9364230.82500  23366597.80500                   6549942.16140  23366603.20740
 -14425517.88800  20870568.38300                 -11092164.05440  20870571.35940
  -5260804.97600  23379735.92200                  -3975985.77540  23379739.26240
 96  9  5  0 12  0.0000000  0  6  1 14 15 21 25 29
   2607262.28300  22616565.66400                   2204687.47740  22616570.08240
  -6753748.57200  23122182.36700                  -5142157.79040  23122186.60940
 -13399909.61500  20892072.64800                   -352968.44140  20892076.71540
   9470786.49100  23386875.75000                   6632972.47340  23386881.56340
 -14418922.71800  20871823.42200                 -11087024.95340  20871826.27040
  -5307120.75100  23370922.79700                  -4012075.95540  23370926.47740
 96  9  5  0 12 30.0000000  0  6  1 14 15 21 25 29
   2704298.06100  22635030.39800                   2280299.75840  22635034.25440
  -6813597.01600  23110793.58600                  -5188792.90640  23110798.61340
 -13387794.58500  20894378.23400                   -343528.17140  20894382.24240
   9577591.86000  23407200.49200                   6716197.38640  23407205.56640
 -14411766.11300  20873185.46100                 -11081448.37040  20873188.30940
  -5353279.41400  23362140.21100                  -4048043.68740  23362144.17240
 96  9  5  0 13  0.0000000  0  6  1 14 15 21 25 29
   2801444.48000  22653516.41400                   2355998.24040  22653520.76240
  -6873363.74800  23099420.56300                  -5235364.35240  23099424.73440
 -13375047.55100  20896803.75000                   -333595.42640  20896807.98040
   9684647.20900  23427571.72700                   6799617.07940  23427577.90240
 -14404046.54000  20874654.13300                 -11075433.11340  20874657.13340
  -5399295.25600  23353383.07000                  -4083900.15840  23353385.96540
 96  9  5  0 13 30.0000000  0  6  1 14 15 21 25 29
   2898701.25700  22672023.97700                   2431782.71940  22672028.25440
  -6933058.10000  23088060.49200                  -5281879.39740  23088064.89840
 -13361662.27600  20899350.68000                   -323165.35940  20899354.96940
   9791956.14800  23447992.58600                   6883234.35340  23447996.67640
 -14395760.58800  20876231.05500                 -11068976.52640  20876234.00840
  -5445136.73800  23344659.74200                  -4119620.76640  23344663.60940
 96  9  5  0 14  0.0000000  0  6  1 14 15 21 25 29
   2996058.25700  22690550.63300                   2507645.28940  22690554.66440
  -6992697.58800  23076711.79700                  -5328351.70540  23076716.61340
 -13347641.19600  20902018.98400                   -312239.85240  20902023.08640
   9899504.54700  23468458.57800                   6967038.20340  23468464.02740
 -14386924.63400  20877912.32000                 -11062091.36140  20877915.33240
  -5490801.97500  23335969.26600                  -4155204.02740  23335974.56340
 96  9  5  0 14 30.0000000  0  6  1 14 15 21 25 29
   3093515.85600  22709096.00800                   2583586.25640  22709100.33240
  -7052289.18200  23065371.61700                  -5374786.68140  23065375.91840
 -13332980.20100  20904808.74200                   -300815.71040  20904812.82040
  10007288.02900  23488968.71900                   7051025.28240  23488973.52340
 -14377553.04100  20879695.70300                 -11054788.80940  20879698.59840
  -5536285.41200  23327314.13300                  -4190645.65440  23327318.32840
 96  9  5  0 15  0.0000000  0  6  1 14 15 21 25 29
   3191060.76000  22727658.03100                   2659595.24140  22727662.34440
  -7111839.56100  23054039.68800                  -5421189.55740  23054044.09440
 -13317679.46400  20907720.55500                   -288893.06840  20907724.46940
  10115304.09600  23509523.85200                   7135193.58840  23509528.71540
 -14367656.37100  20881579.08600                 -11047077.11140  20881581.91040
  -5581588.56600  23318693.89800                  -4225946.78940  23318697.93040
 96  9  5  0 15 30.0000000  0  6  1 14 15 21 25 29
   3288673.51700  22746233.28100                   2735657.10540  22746237.59440
  -7171360.41700  23042714.01600                  -5467569.41040  23042718.31640
 -13301740.85400  20910753.60200                   -276473.38740  20910757.80940
  10223556.58200  23530123.70300                   7219546.07440  23530128.76640
 -14357243.16600  20883560.78900                 -11038962.92240  20883563.52040
  -5626720.89300  23310104.80500                  -4261114.78140  23310109.79740
 96  9  5  0 16  0.0000000  0  6  1 14 15 21 25 29
   3386375.38600  22764825.03100                   2811788.39840  22764829.70740
  -7230842.34100  23031394.42200                  -5513918.92840  23031399.25040
 -13285161.81900  20913908.34400                   -263554.66940  20913912.59840
  10332046.07000  23550767.85900                   7304083.27740  23550774.70340
 -14346307.68500  20885641.48400                 -11030441.76240  20885644.41440
  -5671701.39900  23301545.00000                  -4296164.50740  23301549.67640
 96  9  5  0 16 30.0000000  0  6  1 14 15 21 25 29
   3484178.36500  22783436.73400                   2887998.47640  22783441.04740
  -7290277.21600  23020083.86700                  -5560231.79540  23020088.71940
 -13267938.27600  20917185.84400                   -250133.73140  20917190.07440
  10440781.09600  23571459.97700                   7388811.79940  23571464.87540
 -14334827.13800  20887826.12500                 -11021495.87640  20887829.02040
  -5716528.24800  23293015.10900                  -4331094.48240  23293019.72740
 96  9  5  0 17  0.0000000  0  6  1 14 15 21 25 29
   3582078.68100  22802067.10200                   2964284.39840  22802071.68440
  -7349657.90800  23008784.60900                  -5606502.43040  23008789.25040
 -13250076.37600  20920584.90600                   -236215.37640  20920588.97340
  10549753.86600  23592197.26600                   7473725.58840  23592203.28940
 -14322793.96200  20890116.07000                 -11012119.37340  20890118.82440
  -5761199.32100  23284514.50000                  -4365903.06740  23284519.29340
 96  9  5  0 17 30.0000000  0  6  1 14 15 21 25 29
   3680078.37700  22820715.51600                   3040647.78340  22820720.05140
  -7408967.71800  22997498.22700                  -5652717.86140  22997503.14840
 -13231580.96000  20924104.55500                   -221803.37640  20924108.46940
  10658959.76000  23612978.25000                   7558821.02340  23612984.47340
 -14310206.31900  20892511.44500                 -11002310.81140  20892514.25840
  -5805707.97500  23276045.03900                  -4400585.09640  23276048.52040
 96  9  5  0 18  0.0000000  0  6  1 14 15 21 25 29
   3778185.01300  22839384.19500                   3117094.47940  22839389.62140
  -7468180.99900  22986230.36700                  -5698858.07140  22986234.19940
 -13212444.19500  20927746.22700                   -206891.61840  20927750.35240
  10768388.44100  23633801.08600                   7644090.10140  23633807.13340
 -14297049.28000  20895015.14800                 -10992058.56940  20895018.09040
  -5850027.13400  23267610.76600                  -4435119.50140  23267614.22340
 96  9  5  0 18 30.0000000  0  6  1 14 15 21 25 29
   3876376.49400  22858069.56300                   3193607.28540  22858074.34440
  -7527291.60200  22974982.14100                  -5744918.25740  22974985.68040
 -13192663.48400  20931510.19500                   -191478.08040  20931514.75440
  10878039.15700  23654668.06300                   7729532.08840  23654671.03940
 -14283329.51600  20897626.03900                 -10981367.84240  20897628.94540
  -5894142.05600  23259216.30500                  -4469494.73140  23259220.38340
 96  9  5  0 19  0.0000000  0  6  1 14 15 21 25 29
   3974639.95500  22876768.94500                   3270176.18040  22876772.32040
  -7586291.71600  22963754.73400                  -5790892.34640  22963758.49640
 -13172241.52100  20935396.36700                   -175564.87240  20935400.48040
  10987915.77500  23675576.19500                   7815150.19440  23675580.70740
 -14269072.94700  20900338.72700                 -10970258.82040  20900341.46940
  -5938047.95900  23250861.24200                  -4503707.07140  23250865.70740
 96  9  5  0 19 30.0000000  0  6  1 14 15 21 25 29
   4072965.22100  22895479.53100                   3346793.25040  22895483.36340
  -7645193.56600  22952545.89100                  -5836789.87440  22952550.46140
 -13151179.05000  20939404.60200                   -159152.56540  20939408.41040
  11098028.17800  23696528.85900                   7900951.97240  23696534.40240
 -14254289.02200  20903151.89800                 -10958738.87940  20903154.84040
  -5981745.26000  23242545.35900                  -4537756.88340  23242549.76640
 96  9  5  0 20  0.0000000  0  6  1 14 15 21 25 29
   4171349.64200  22914201.93000                   3423456.40340  22914206.07840
  -7704013.63900  22941352.80500                  -5882623.67440  22941357.15240
 -13129476.68600  20943534.25800                   -142241.64540  20943538.23040
  11208388.89800  23717531.02300                   7986947.28940  23717536.53140
 -14238983.56600  20906064.95300                 -10946812.54640  20906067.71940
  -6025246.99000  23234268.20300                  -4571654.29540  23234271.88340
 96  9  5  0 20 30.0000000  0  6  1 14 15 21 25 29
   4269787.40200  22932933.81300                   3500161.11240  22932937.21140
  -7762755.57800  22930174.71100                  -5928396.60140  22930178.43840
 -13107134.17800  20947786.10900                   -124831.91140  20947790.30540
  11319015.03300  23738582.73400                   8073149.38640  23738587.56340
 -14223160.68300  20909075.78900                 -10934483.02540  20909078.60240
  -6068563.92300  23226024.95300                  -4605407.73340  23226028.25840
 96  9  5  0 21  0.0000000  0  6  1 14 15 21 25 29
   4368280.49500  22951676.00000                   3576908.94040  22951679.87940
  -7821403.69900  22919014.30500                  -5974096.41140  22919018.88740
 -13084147.74900  20952160.14800                   -106920.41440  20952164.23840
  11429906.42200  23759684.78100                   8159558.22440  23759690.24240
 -14206808.34900  20912187.28900                 -10921740.94440  20912190.11340
  -6111697.74600  23217816.73400                  -4639018.46440  23217820.22740
 96  9  5  0 21 30.0000000  0  6  1 14 15 21 25 29
   4466835.00100  22970430.71100                   3653704.62440  22970434.91840
  -7879961.64300  22907871.14100                  -6019725.97540  22907875.96940
 -13060518.24300  20956657.00800                    -88507.82740  20956661.10940
  11541039.74300  23780832.23400                   8246155.55040  23780836.67640
 -14189908.96200  20915403.14100                 -10908572.58140  20915406.14140
  -6154655.16000  23209642.32800                  -4672491.75240  23209647.50840
 96  9  5  0 22  0.0000000  0  6  1 14 15 21 25 29
   4565453.98300  22989196.95300                   3730550.54540  22989201.26640
  -7938412.44900  22896748.10200                  -6065272.03540  22896753.15240
 -13036242.22500  20961276.48400                    -69591.46040  20961280.63340
  11652396.21400  23802022.85900                   8332926.75240  23802028.76640
 -14172445.80400  20918726.30500                 -10894964.91940  20918729.21140
  -6197442.30500  23201499.76600                  -4705832.36040  23201503.51640
 96  9  5  0 22 30.0000000  0  6  1 14 15 21 25 29
   4664131.68000  23007974.64100                   3807442.22340  23007979.10540
  -7996741.31700  22885648.03100                  -6110723.07740  22885652.62540
 -13011317.80900  20966019.35200                    -50169.85840  20966023.16040
  11763954.06900  23823251.20300                   8419854.88440  23823257.90640
 -14154410.99200  20922158.40600                 -10880911.81540  20922161.25440
  -6240052.39700  23193391.95300                  -4739034.98240  23193395.97340
 96  9  5  0 23  0.0000000  0  6  1 14 15 21 25 29
   4762874.51900  23026764.83600                   3884384.64640  23026768.85540
  -8054956.39100  22874569.85200                  -6156085.44840  22874574.90240
 -12985750.06300  20970884.68000                    -30246.94840  20970888.71140
  11875702.71700  23844516.43800                   8506931.70440  23844521.02040
 -14135805.80800  20925698.87500                 -10866414.27140  20925701.51240
  -6282486.76500  23185316.68800                  -4772100.69040  23185320.75440
 96  9  5  0 23 30.0000000  0  6  1 14 15 21 25 29
   4861691.19600  23045569.23400                   3961384.60740  23045573.25440
  -8113080.50700  22863509.20300                  -6201376.95140  22863513.23440
 -12959542.64700  20975871.86700                     -9825.59940  20975875.98040
  11987642.21100  23865818.12500                   8594157.19940  23865822.53140
 -14116627.53800  20929348.45300                 -10851470.16140  20929351.10240
  -6324748.57600  23177274.07800                  -4805031.94240  23177277.84040
 96  9  5  0 24  0.0000000  0  6  1 14 15 21 25 29
   4960580.62200  23064387.25000                   4038441.25940  23064391.87940
  -8171110.35100  22852466.81300                  -6246594.97240  22852471.89840
 -12932688.84600  20980982.07800                     11099.42740  20980986.22740
  12099802.42900  23887162.32800                   8681554.64840  23887167.50840
 -14096878.96700  20933106.14800                 -10836081.66440  20933109.02040
  -6366833.08200  23169266.17200                  -4837825.03640  23169270.14540
 96  9  5  0 24 30.0000000  0  6  1 14 15 21 25 29
   5059544.71300  23083219.13300                   4115556.10140  23083224.14840
  -8229072.76100  22841436.84400                  -6291760.46740  22841441.50840
 -12905196.96600  20986213.56300                     32521.65440  20986217.59440
  12212187.84900  23908548.76600                   8769127.65840  23908554.33240
 -14076582.31300  20936968.33600                 -10820266.08740  20936971.18440
  -6408742.56900  23161290.79700                  -4870481.76440  23161294.45340
 96  9  5  0 25  0.0000000  0  6  1 14 15 21 25 29
   5158594.45000  23102068.10900                   4192737.65440  23102073.00840
  -8286981.39700  22830416.99200                  -6336884.05840  22830421.80940
 -12877064.95600  20991566.86700                     54442.68540  20991570.94540
  12324811.84300  23929979.46900                   8856886.55440  23929986.77340
 -14055746.54100  20940933.58600                 -10804030.42240  20940936.23440
  -6450477.77000  23153349.15600                  -4903002.67240  23153353.07040
 96  9  5  0 25 30.0000000  0  6  1 14 15 21 25 29
   5257734.46800  23120933.48400                   4269989.59340  23120937.82040
  -8344825.68000  22819409.60200                  -6381957.49240  22819414.81640
 -12848285.45800  20997043.45300                     76868.25540  20997047.60240
  12437675.67200  23951456.58600                   8944832.29240  23951462.39840
 -14034376.43000  20945000.17200                 -10787378.38340  20945002.86740
  -6492038.65100  23145440.97700                  -4935387.74940  23145444.46940
 96  9  5  0 26  0.0000000  0  6  1 14 15 21 25 29
   5356946.45600  23139813.35900                   4347297.57940  23139817.93040
  -8402594.81200  22808416.25000                  -6426972.37940  22808421.31340
 -12818868.53500  21002641.15600                     99790.51840  21002645.25840
  12550773.65000  23972978.66400                   9032960.50040  23972984.24240
 -14012496.38500  20949163.67200                 -10770328.99740  20949166.54340
  -6533437.01800  23137562.75000                  -4967646.19040  23137565.90240
 96  9  5  0 26 30.0000000  0  6  1 14 15 21 25 29
   5456233.81000  23158707.24200                   4424664.30340  23158711.53140
  -8460267.91600  22797442.59400                  -6471912.42040  22797447.21140
 -12788811.91700  21008360.90600                    123211.24540  21008365.27740
  12664088.47400  23994542.55500                   9121257.71340  23994550.10540
 -13990102.84200  20953425.04700                 -10752879.48140  20953427.98840
  -6574660.88700  23129717.18800                  -4999768.66340  23129721.84040
 96  9  5  0 27  0.0010000  0  6  1 14 15 21 25 29
   5555590.39600  23177614.06000                   4502084.97740  23177617.72840
  -8517813.84000  22786491.71600                  -6516753.39040  22786496.12240
 -12758111.02300  21014203.22400                    147134.00140  21014207.65340
  12777630.41700  24016148.40300                   9209731.85740  24016154.69640
 -13967184.18700  20957786.27800                 -10735020.79040  20957789.27840
  -6615715.46200  23121905.53600                  -5031759.21740  23121909.63840
 96  9  5  0 27 30.0010000  0  6  1 14 15 21 25 29
   5654999.87300  23196531.34900                   4579546.88540  23196535.91940
  -8575212.34700  22775568.80200                  -6561479.47640  22775573.33740
 -12726768.54400  21020167.29400                    171556.69640  21020171.54840
  12891392.07000  24037797.03600                   9298377.22540  24037801.78240
 -13943724.62100  20962250.76300                 -10716740.60840  20962253.43540
  -6656586.35400  23114128.06700                  -5063606.63640  23114131.26740
 96  9  5  0 28  0.0010000  0  6  1 14 15 21 25 29
   5754466.71400  23215458.85600                   4657053.46040  23215463.53240
  -8632459.76800  22764675.26300                  -6606087.84340  22764679.65740
 -12694779.57100  21026254.70800                    196483.15640  21026258.58740
  13005382.38700  24059488.45800                   9387200.79740  24059496.43140
 -13919704.33400  20966821.48900                 -10698023.49840  20966824.30240
  -6697252.92000  23106388.80200                  -5095294.85540  23106393.12640
 96  9  5  0 28 30.0010000  0  6  1 14 15 21 25 29
   5853975.80500  23234395.23900                   4734592.99040  23234399.61040
  -8689578.77500  22753806.25500                  -6650596.14240  22753810.88440
 -12662155.98300  21032462.66100                    221904.11640  21032466.54040
  13119585.28800  24081220.53600                   9476189.92940  24081226.20840
 -13895128.82400  20971498.20000                 -10678873.75240  20971501.16540
  -6737726.73000  23098687.57500                  -5126832.87540  23098692.38040
 96  9  5  0 29  0.0010000  0  6  1 14 15 21 25 29
   5953525.02600  23253338.65300                   4812163.77140  23253343.39940
  -8746591.00600  22742956.70800                  -6695021.22640  22742961.10340
 -12628896.38300  21038791.66900                    247820.67140  21038795.98140
  13234012.29800  24102995.46600                   9565353.75940  24103000.90340
 -13869998.52900  20976280.22400                 -10659291.70640  20976283.03640
  -6778009.77600  23091021.59100                  -5158222.22440  23091026.03240
 96  9  5  0 29 30.0010000  0  6  1 14 15 21 25 29
   6053119.47600  23272290.98100                   4889769.80340  23272295.58740
  -8803501.32800  22732126.84100                  -6739366.91840  22732131.02440
 -12594989.70000  21045243.85600                    274241.45240  21045248.11040
  13348667.11900  24124814.31000                   9654695.13440  24124819.56040
 -13844310.84000  20981168.52100                 -10639275.32240  20981171.14640
  -6818075.33600  23083397.38800                  -5189442.12340  23083401.12640
 96  9  5  0 30  0.0010000  0  6  1 14 15 21 25 29
   6152740.80900  23291247.81000                   4967396.78440  23291252.34540
  -8860327.64700  22721313.09100                  -6783647.15340  22721317.34540
 -12560449.75900  21051816.84100                    301155.67540  21051821.29440
  13463536.95600  24146672.22400                   9744203.97140  24146677.12240
 -13818097.06100  20986156.79400                 -10618849.00340  20986159.46640
  -6857953.38100  23075808.81700                  -5220515.90040  23075813.18840
 96  9  5  0 30 30.0010000  0  6  1 14 15 21 25 29
   6252408.25600  23310214.29400                   5045059.69040  23310219.55640
  -8917060.26400  22710517.31700                  -6827854.36940  22710521.47840
 -12525266.44200  21058511.73900                    328571.23140  21058516.16940
  13578626.51300  24168573.41900                   9833884.08340  24168579.53640
 -13791355.45200  20991245.28600                 -10598011.38240  20991248.22840
  -6897649.59200  23068255.09100                  -5251448.00640  23068258.44240
 96  9  5  0 31  0.0010000  0  6  1 14 15 21 25 29
   6352122.64000  23329189.61400                   5122759.16940  23329194.20840
  -8973700.04500  22699739.31000                  -6871989.25040  22699743.38840
 -12489447.70400  21065327.88800                    356481.91740  21065332.35340
  13693921.12000  24190512.01300                   9923723.94140  24190517.75540
 -13764091.93600  20996433.20000                 -10576767.08540  20996436.25940
  -6937171.01600  23060734.39600                  -5282243.87940  23060738.76740
 96  9  5  0 31 30.0010000  0  6  1 14 15 21 25 29
   6451907.11900  23348177.97400                   5200513.27340  23348182.15740
  -9030225.13500  22688983.33300                  -6916034.76140  22688987.43540
 -12452988.85600  21072265.97400                    384891.39940  21072270.28640
  13809424.34400  24212492.26300                  10013726.41140  24212502.40340
 -13736296.36100  21001722.73900                 -10555108.19540  21001725.52840
  -6976519.45500  23053246.66900                  -5312904.98440  23053250.60640
 96  9  5  0 32  0.0010000  0  6  1 14 15 21 25 29
   6551772.83300  23367182.20800                   5278330.69440  23367186.06340
  -9086629.57100  22678249.57500                  -6959986.26440  22678253.06740
 -12415892.53700  21079325.40300                    413797.60140  21079329.51740
  13925129.27400  24234509.74700                  10103886.03840  24234515.68840
 -13707963.09800  21007114.63000                 -10533030.32740  21007117.46640
  -7015714.00200  23045787.84900                  -5343446.17640  23045791.11840
 96  9  5  0 32 30.0010000  0  6  1 14 15 21 25 29
   6651719.77000  23386200.84900                   5356211.40740  23386206.13440
  -9142915.71200  22667538.67700                  -7003845.57740  22667542.53240
 -12378162.91600  21086504.91900                    443197.28640  21086508.82140
  14041025.25500  24256564.82500                  10194194.43340  24256571.13040
 -13679088.70500  21012609.14600                 -10510530.79640  21012611.79440
  -7054758.27700  23038357.52800                  -5373870.28340  23038361.10340
 96  9  5  0 33  0.0010000  0  6  1 14 15 21 25 29
   6751727.09800  23405230.61400                   5434139.17840  23405236.39240
  -9199082.95400  22656850.20800                  -7047612.24840  22656854.20440
 -12339801.34800  21093804.94200                    473089.39840  21093809.20840
  14157121.92100  24278656.27100                  10284659.30340  24278662.95040
 -13649675.53000  21018206.11400                 -10487611.44140  21018209.16140
  -7093651.26800  23030956.89600                  -5404176.47740  23030961.05640
 96  9  5  0 33 30.0010000  0  6  1 14 15 21 25 29
   6851788.65800  23424271.97400                   5512109.18140  23424278.47840
  -9255131.53200  22646184.30200                  -7091286.45340  22646188.57940
 -12300804.73900  21101225.73900                    503476.34940  21101229.99340
  14273426.43500  24300789.93500                  10375286.16940  24300795.03240
 -13619718.10600  21023907.02800                 -10464267.99140  21023909.85340
  -7132384.96700  23023586.39600                  -5434358.56540  23023590.22840
 96  9  5  0 34  0.0010000  0  6  1 14 15 21 25 29
   6951892.07300  23443321.83300                   5590111.80140  23443326.12240
  -9311057.74500  22635542.13000                  -7134865.31040  22635546.60640
 -12261171.50000  21108767.73900                    534359.37940  21108771.91140
  14389933.40500  24322960.75500                  10466070.77640  24322966.50940
 -13589217.82900  21029710.93500                 -10440501.54640  21029713.71240
  -7170944.60600  23016248.23900                  -5464405.01440  23016252.39940
 96  9  5  0 34 30.0010000  0  6  1 14 15 21 25 29
   7052032.99500  23462378.19200                   5668143.65640  23462382.66940
  -9366864.66600  22624922.45000                  -7178351.20540  22624926.82140
 -12220900.69800  21116430.70000                    565739.20540  21116434.98940
  14506646.37200  24345170.62200                  10557015.78740  24345175.32140
 -13558170.61000  21035619.13000                 -10416308.90440  21035621.69640
  -7209319.75500  23008945.52800                  -5494307.70040  23008949.63040
 96  9  5  0 35  0.0010000  0  6  1 14 15 21 25 29
   7152214.39000  23481442.80200                   5746207.04040  23481447.26740
  -9422549.58800  22614325.86400                  -7221742.04440  22614330.06040
 -12179992.77900  21124215.34900                    597615.48340  21124219.64940
  14623567.71800  24367420.60600                  10648123.29540  24367426.14940
 -13526567.59200  21041632.81000                 -10391683.17840  21041635.79840
  -7247487.39600  23001682.55200                  -5524048.69240  23001686.75940
 96  9  5  0 35 30.0010000  0  6  1 14 15 21 25 29
   7252435.91400  23500513.46600                   5824301.70840  23500518.31740
  -9478106.99100  22603753.37200                  -7265033.51040  22603757.50940
 -12138455.47300  21132119.76300                    629982.19640  21132124.13440
  14740686.78100  24389706.73100                  10739384.78340  24389712.77840
 -13494411.59400  21047752.06000                 -10366626.55940  21047754.81340
  -7285453.64500  22994458.07500                  -5553632.75640  22994462.14240
 96  9  5  0 36  0.0010000  0  6  1 14 15 21 25 29
   7352696.43100  23519592.40300                   5902426.73840  23519597.06740
  -9533520.36200  22593209.16900                  -7308212.74140  22593213.06040
 -12096283.41800  21140144.92700                    662843.52540  21140149.29840
  14858009.82100  24412031.10600                  10830805.27040  24412038.25940
 -13461706.65600  21053975.70800                 -10341142.19240  21053978.35640
  -7323222.10200  22987270.77100                  -5583062.70740  22987274.18140
 96  9  5  0 36 30.0010000  0  6  1 14 15 21 25 29
   7452977.42800  23538675.03600                   5980567.73840  23538679.33740
  -9588795.71300  22582690.47400                  -7351284.42240  22582694.36440
 -12053485.74300  21148288.91100                    696192.34540  21148293.38840
  14975540.04800  24434398.08300                  10922387.17540  24434403.72040
 -13428470.69600  21060300.06000                 -10315244.03840  21060303.21240
  -7360810.26000  22980117.86400                  -5612352.15740  22980121.88440
 96  9  5  0 37  0.0010000  0  6  1 14 15 21 25 29
   7553285.00100  23557763.38000                   6058729.43440  23557767.84540
  -9643919.59500  22572200.98100                  -7394238.07240  22572204.82540
 -12010057.86700  21156553.35600                    730032.23340  21156557.31740
  15093277.35300  24456803.33300                  11014130.41540  24456810.62640
 -13394717.56200  21066723.01300                 -10288942.89740  21066726.15340
  -7398218.04000  22972999.20800                  -5641501.06040  22973003.25140
 96  9  5  0 37 30.0010000  0  6  1 14 15 21 25 29
   7653618.19700  23576856.27100                   6136911.11340  23576860.22040
  -9698881.59400  22561742.31000                  -7437065.57840  22561746.41140
 -11965997.56400  21164937.66900                    764364.91740  21164941.66540
  15211222.51400  24479246.16900                  11106035.62540  24479252.63840
 -13360467.53700  21073240.84900                 -10262254.56540  21073243.69640
  -7435464.62400  22965912.22400                  -5670524.34640  22965915.86840
 96  9  5  0 38  0.0010000  0  6  1 14 15 21 25 29
   7753983.38700  23595955.36400                   6215117.72840  23595959.02140
  -9753691.45400  22551311.70000                  -7479774.54040  22551315.34540
 -11921308.17900  21173441.77800                    799187.79840  21173445.82140
  15329366.68200  24501729.08300                  11198095.98140  24501735.09540
 -13325728.93400  21079851.38000                 -10235185.51940  21079854.07540
  -7472549.90600  22958854.81700                  -5699421.94340  22958858.18140
 96  9  5  0 38 30.0010000  0  6  1 14 15 21 25 29
   7854397.97800  23615063.31700                   6293362.83040  23615067.12640
  -9808355.66300  22540909.06000                  -7522370.00440  22540913.31340
 -11875990.36800  21182065.29400                    834500.36040  21182069.59540
  15447705.53400  24524247.16900                  11290307.96040  24524254.05240
 -13290493.17000  21086556.56700                 -10207729.08240  21086559.18140
  -7509468.96200  22951828.54400                  -5728190.01640  22951832.06040
 96  9  5  0 39  0.0010000  0  6  1 14 15 21 25 29
   7954867.75800  23634181.91900                   6371650.91040  23634186.78240
  -9862882.57000  22530533.31000                  -7564858.49040  22530537.56340
 -11830050.28700  21190807.56000                    870297.80040  21190811.96640
  15566234.67400  24546803.32500                  11382668.25740  24546810.75940
 -13254749.28600  21093358.29400                 -10179876.70440  21093361.27140
  -7546227.73800  22944834.42700                  -5756833.21040  22944838.97440
 96  9  5  0 39 30.0010000  0  6  1 14 15 21 25 29
   8055398.68900  23653312.64600                   6449986.65840  23653316.79440
  -9917269.13100  22520183.55200                  -7607237.60440  22520188.26340
 -11783477.87700  21199669.88800                    906587.96940  21199673.87240
  15684972.57700  24569398.46600                  11475191.25040  24569402.34540
 -13218467.39900  21100262.51300                 -10151605.10640  21100265.44240
  -7582811.55500  22937872.01300                  -5785340.06140  22937876.17340
 96  9  5  0 40  0.0010000  0  6  1 14 15 21 25 29
   8155992.52100  23672455.09900                   6528371.41740  23672459.91540
  -9971519.32200  22509860.21600                  -7649510.47040  22509864.75140
 -11736276.25600  21208651.94200                    943368.43140  21208656.29040
  15803912.36300  24592032.58300                  11567871.52640  24592039.57140
 -13181630.95300  21107272.13000                 -10122901.37940  21107275.03640
  -7619210.76200  22930945.97400                  -5813703.06540  22930950.07540
 96  9  5  0 40 30.0010000  0  6  1 14 15 21 25 29
   8256643.66900  23691608.45000                   6606800.83240  23691613.23140
 -10025635.41600  22499562.08300                  -7691678.83040  22499566.73540
 -11688449.09000  21217753.32500                    980636.33440  21217757.61440
  15923054.25200  24614704.70800                  11660709.25040  24614708.03640
 -13144237.17400  21114388.02100                 -10093763.37140  21114390.93840
  -7655424.18700  22924054.79400                  -5841921.29940  22924058.79040
 96  9  5  0 41  0.0010000  0  6  1 14 15 21 25 29
   8357348.88000  23710771.60600                   6685272.37740  23710775.75540
 -10079614.37900  22489290.41100                  -7733740.34440  22489294.94640
 -11640000.47800  21226972.89600                   1018388.48640  21226977.14940
  16042393.86300  24637412.59100                  11753701.15940  24637418.40340
 -13106296.97200  21121607.50500                 -10064199.57640  21121610.45840
  -7691454.05400  22917198.09900                  -5869996.49540  22917202.31740
 96  9  5  0 41 30.0010000  0  6  1 14 15 21 25 29
   8458109.32900  23729946.52100                   6763786.96740  23729951.64240
 -10133445.39300  22479046.25500                  -7775686.57840  22479050.62640
 -11590928.08700  21236311.08300                   1056626.68440  21236315.50140
  16161910.72400  24660156.69200                  11846831.05940  24660162.00140
 -13067816.34300  21128930.32500                 -10034214.67340  21128933.23140
  -7727292.56900  22910378.97400                  -5897922.60740  22910382.82940
 96  9  5  0 42  0.0010000  0  6  1 14 15 21 25 29
   8558920.66000  23749130.08300                   6842341.21240  23749133.89240
 -10187118.79200  22468833.06000                  -7817509.98940  22468837.19640
 -11541234.65900  21245767.16900                   1095348.81540  21245771.41140
  16281602.01000  24682933.31700                  11940096.94240  24682938.08740
 -13028804.08400  21136354.24700                 -10003815.50840  21136357.16540
  -7762942.85100  22903594.77800                  -5925702.01740  22903598.37640
 96  9  5  0 42 30.0010000  0  6  1 14 15 21 25 29
   8659770.38700  23768321.21600                   6920925.38540  23768325.08340
 -10240631.81600  22458650.14600                  -7859208.43540  22458653.93140
 -11490917.34000  21255342.34900                   1134557.09140  21255346.68540
  16401468.26400  24705743.76300                  12033499.15040  24705749.84540
 -12989266.73000  21143878.22400                  -9973007.18540  21143880.81340
  -7798411.02400  22896845.48900                  -5953339.53240  22896849.22840
 96  9  5  0 43  0.0010000  0  6  1 14 15 21 25 29
   8760640.98100  23787515.92700                   6999525.80240  23787519.88840
 -10293981.75900  22448498.09100                  -7900779.80040  22448501.65340
 -11439977.33600  21265036.23100                   1174250.57940  21265040.31040
  16521502.92800  24728585.94200                  12127032.53540  24728592.58740
 -12949213.67800  21151499.65300                  -9941797.01640  21151502.56040
  -7833709.77700  22890127.76300                  -5980845.03240  22890131.84140
 96  9  5  0 43 30.0010000  0  6  1 14 15 21 25 29
   8861518.30000  23806711.82500                   7078131.46740  23806716.58340
 -10347167.26200  22438376.77100                  -7942223.02940  22438380.96640
 -11388421.30600  21274846.70800                   1214424.08240  21274850.72840
  16641714.87800  24751461.04400                  12220704.11740  24751469.09940
 -12908649.03300  21159218.95000                  -9910188.20040  21159221.79840
  -7868843.28100  22883441.64600                  -6008221.79640  22883445.80640
 96  9  5  0 44  0.0010000  0  6  1 14 15 21 25 29
   8962408.28600  23825911.06700                   7156746.99640  23825915.55640
 -10400198.80700  22428285.13000                  -7983546.29940  22428289.19640
 -11336245.73500  21284775.42700                   1255080.34640  21284779.83340
  16762126.60900  24774374.77100                  12314531.43440  24774382.31040
 -12867573.49100  21167035.24700                  -9878181.28440  21167038.10640
  -7903812.46200  22876787.60600                  -6035470.48040  22876791.94240
 96  9  5  0 44 30.0010000  0  6  1 14 15 21 25 29
   9063318.12400  23845113.60600                   7235377.99340  23845118.44640
 -10453086.06900  22418221.13000                  -8024757.14140  22418225.39640
 -11283456.31400  21294820.80200                   1296214.93140  21294825.36040
  16882735.70500  24797326.20000                  12408512.37440  24797333.56340
 -12826000.71500  21174946.10600                  -9845786.91540  21174949.24740
  -7938620.86200  22870163.99700                  -6062593.90140  22870168.26340
 96  9  5  0 45  0.0010000  0  6  1 14 15 21 25 29
   9164263.55100  23864323.05200                   7314036.72140  23864328.05640
 -10505822.66200  22408185.49700                  -8065850.57140  22408189.47040
 -11230055.13500  21304982.95000                   1337826.21240  21304987.46240
  17003559.79300  24820319.21600                  12502660.97740  24820325.49740
 -12783930.35100  21182951.84900                  -9813004.82340  21182954.82540
  -7973258.56000  22863572.38800                  -6089584.29740  22863576.40740
 96  9  5  0 45 30.0010000  0  6  1 14 15 21 25 29
   9265269.98100  23883544.20800                   7392742.99940  23883549.21240
 -10558389.05000  22398182.70000                  -8106811.38140  22398186.75540
 -11176034.73200  21315262.74700                   1379920.00440  21315267.14240
  17124608.22300  24843352.99700                  12596984.31240  24843357.89640
 -12741349.41200  21191055.08300                  -9779824.87540  21191057.95440
  -8007701.27600  22857018.52800                  -6116422.75340  22857021.96240
 96  9  5  0 46  0.0010000  0  6  1 14 15 21 25 29
   9366330.91900  23902775.20000                   7471491.75240  23902779.13840
 -10610795.31500  22388210.12200                  -8147647.41440  22388214.14240
 -11121398.13700  21325659.69200                   1422493.95240  21325663.95840
  17245858.98700  24866427.75500                  12691465.38940  24866435.38840
 -12698259.38000  21199254.86400                  -9746248.22540  21199257.68840
  -8041945.57700  22850502.06000                  -6143106.60940  22850505.73940
 96  9  5  0 46 30.0010000  0  5  1 14 15 25 29
   9467427.59300  23922013.59900                   7550268.34240  23922017.64240
 -10663029.51700  22378270.09900                  -8188349.36540  22378274.00140
 -11066159.73300  21336171.20000                   1465536.83540  21336175.46640
 -12654669.27100  21207549.56700                  -9712281.90440  21207552.47440
  -8076001.16400  22844021.10600                  -6169643.39640  22844024.95040
 96  9  5  0 47  0.0010000  0  5  1 14 15 25 29
   9568564.67400  23941258.91900                   7629076.42940  23941262.77440
 -10715075.95500  22368365.98900                  -8228905.00240  22368370.09140
 -11010311.31700  21346799.16100                   1509055.05740  21346803.60340
 -12610554.34500  21215944.13000                  -9677906.63740  21215947.22440
  -8109863.70900  22837577.18500                  -6196029.76640  22837580.88840
 96  9  5  0 47 30.0010000  0  5  1 14 15 25 29
   9669732.10300  23960510.81000                   7707908.14440  23960514.85340
 -10766951.73100  22358494.66100                  -8269327.66340  22358498.30640
 -10953852.19300  21357542.58300                   1553049.15240  21357546.88440
 -12565912.76000  21224439.49700                  -9643120.99040  21224442.40340
  -8143550.25300  22831166.44200                  -6222279.00340  22831170.81340
 96  9  5  0 48  0.0010000  0  5  1 14 15 25 29
   9770922.13800  23979766.58300                   7786757.47740  23979771.03640
 -10818672.12600  22348652.30200                  -8309629.24440  22348656.29840
 -10896781.82300  21368402.71600                   1597519.54940  21368407.25140
 -12520737.54500  21233036.01300                  -9607919.51840  21233038.64940
  -8177082.34700  22824786.41900                  -6248407.88240  22824790.63840
 96  9  5  0 48 30.0010000  0  5  1 14 15 25 29
   9872134.75500  23999026.31700                   7865624.41440  23999031.08740
 -10870227.43100  22338841.10600                  -8349802.18940  22338845.40740
 -10839106.58000  21379377.98900                   1642461.26940  21379382.40740
 -12475024.46700  21241734.89600                  -9572298.94140  21241737.74340
  -8210470.30400  22818432.85600                  -6274424.43640  22818436.48940
 96  9  5  0 49  0.0010000  0  5  1 14 15 25 29
   9973357.21800  24018288.37200                   7944499.00840  24018293.63440
 -10921627.90700  22329060.19200                  -8389854.47940  22329064.41140
 -10780828.23800  21390467.82500                   1687872.93940  21390472.22040
 -12428781.00100  21250534.50500                  -9536265.07540  21250537.45840
  -8243717.84000  22812106.18500                  -6300331.58340  22812109.70040
 96  9  5  0 49 30.0010000  0  5  1 14 15 25 29
  10074575.64000  24037549.50500                   8023370.47740  24037554.79040
 -10972865.45800  22319309.95000                  -8429779.81940  22319314.19240
 -10721945.01000  21401672.97400                   1733755.94640  21401677.66140
 -12382021.63100  21259432.82500                  -9499829.20640  21259435.59140
  -8276810.08800  22805808.49700                  -6326117.71640  22805812.04840
 96  9  5  0 50  0.0010000  0  5  1 14 15 25 29
  10175792.79900  24056811.48100                   8102240.93940  24056816.57940
 -11023915.59900  22309595.73100                  -8469559.12640  22309599.58740
 -10662465.77200  21412991.79400                   1780103.38140  21412996.15340
 -12334758.87400  21268426.58300                  -9463001.08540  21268429.57140
  -8309724.39800  22799545.04400                  -6351765.19740  22799549.14640
 96  9  5  0 50 30.0010000  0  5  1 14 15 25 29
  10277022.57300  24076073.94200                   8181121.24740  24076078.89940
 -11074741.40200  22299923.77100                  -8509163.61540  22299927.66140
 -10602378.41800  21424425.99700                   1826924.67040  21424430.49740
 -12286994.02700  21277515.94200                  -9425781.72740  21277518.91940
  -8342421.30900  22793323.15300                  -6377243.27840  22793326.88040
 96  9  5  0 51  0.0010000  0  5  1 14 15 25 29
  10378262.48500  24095339.88000                   8260009.45440  24095345.21240
 -11125361.61400  22290291.06000                  -8548607.90740  22290294.77440
 -10541694.25900  21435973.99700                   1874211.00640  21435978.29840
 -12238756.01000  21286695.44200                  -9388193.66140  21286698.41940
  -8374903.53600  22787141.80200                  -6402554.06340  22787145.20040
 96  9  5  0 51 30.0010000  0  5  1 14 15 25 29
  10479548.53200  24114613.91100                   8338933.61740  24114618.13040
 -11175779.27000  22280696.79400                  -8587894.36440  22280700.62640
 -10480413.67700  21447635.43500                   1921962.08840  21447639.66540
 -12190037.06200  21295966.51300                  -9350230.84440  21295969.24340
  -8407165.81600  22781002.50500                  -6427693.47040  22781006.45440
 96  9  5  0 52  0.0010000  0  5  1 14 15 25 29
  10580905.47800  24133901.56000                   8417913.04040  24133907.43140
 -11226000.01200  22271140.15300                  -8627027.38340  22271144.11440
 -10418544.31600  21459408.34100                   1970171.95540  21459412.78240
 -12140826.91400  21305330.59100                  -9311885.27640  21305333.32140
  -8439225.40600  22774902.16100                  -6452674.92640  22774905.58340
 96  9  5  0 52 30.0010000  0  6  1 14 15 22 25 29
  10682341.83500  24153203.99700                   8496954.29440  24153209.49340
 -11276025.78500  22261620.39600                  -8666008.48840  22261624.57940
 -10356078.14500  21471295.14600                   2018846.86540  21471300.04440
    -55607.43210  24937365.70800
 -12091119.39800  21314789.60600                  -9273152.14140  21314792.38440
  -8471098.62800  22768836.48100                  -6477511.16540  22768839.69240
 96  9  5  0 53  0.0010000  0  6  1 14 15 22 25 29
  10783863.55400  24172522.92700                   8576062.09640  24172528.59940
 -11325873.79300  22252134.66100                  -8704851.07440  22252139.10340
 -10293015.16600  21483295.70000                   2067986.82740  21483300.27140
   -128191.11900  24923553.07500
 -12040909.00500  21324344.34100                  -9234027.16240  21324347.32940
  -8502806.63000  22762802.92700                  -6502218.66440  22762806.29040
 96  9  5  0 53 30.0010000  0  6  1 14 15 22 25 29
  10885446.99600  24191853.98100                   8655218.00440  24191859.57140
 -11375547.06400  22242681.78600                  -8743557.50540  22242686.28640
 -10229363.09100  21495408.86400                   2117585.81740  21495413.41140
   -200830.67700  24909730.37200                    -13210.65250  24909736.89940
 -11990193.70800  21333995.04400                  -9194508.74440  21333998.02140
  -8534367.08100  22756796.88000                  -6526811.19440  22756800.45440
 96  9  5  0 54  0.0010000  0  6  1 14 15 22 25 29
  10987049.63200  24211188.11400                   8734388.83040  24211193.50540
 -11425037.46900  22233264.21600                  -8782121.44440  22233268.57540
 -10165127.49100  21507632.36400                   2167639.50340  21507636.50140
   -273532.70600  24895895.27100                    -69861.63740  24895902.56340
 -11938989.16700  21343738.99700                  -9154609.10440  21343741.88040
  -8565790.09200  22750817.42700                  -6551296.61240  22750821.08340
 96  9  5  0 54 30.0010000  0  6  1 14 15 22 25 29
  11088636.18500  24230519.38800                   8813547.15440  24230525.01340
 -11474349.18100  22223880.58300                  -8820546.13740  22223884.73140
 -10100311.05900  21519966.21600                   2218145.78740  21519970.65740
   -346287.40000  24882051.02800                   -126553.59840  24882057.64940
 -11887312.20200  21353572.81700                  -9114341.33440  21353575.64240
  -8597073.06600  22744864.34900                  -6575672.91840  22744868.43840
 96  9  5  0 55  0.0010000  0  6  1 14 15 22 25 29
  11190197.50200  24249844.96600                   8892685.80540  24249850.54440
 -11523475.16400  22214532.33300                  -8858826.11340  22214536.52840
 -10034911.53700  21532411.45000                   2269106.42240  21532415.90340
   -419094.27100  24868196.81000                   -183286.19840  24868202.11840
 -11835153.98500  21363498.36400                  -9073698.56740  21363501.27140
  -8628203.59500  22738940.29400                  -6599930.44140  22738943.71640
 96  9  5  0 55 30.0010000  0  6  1 14 15 22 25 29
  11291723.87600  24269165.70000                   8971797.22740  24269169.91940
 -11572388.64900  22205224.69200                  -8896940.50240  22205228.71240
  -9968929.98900  21544967.20800                   2320520.59040  21544971.96640
   -491953.04000  24854330.81000                   -240059.22440  24854335.29840
 -11782512.01000  21373515.88000                  -9032678.85140  21373518.83340
  -8659170.05900  22733047.27100                  -6624060.13840  22733050.81040
 96  9  5  0 56  0.0010000  0  6  1 14 15 22 25 29
  11393226.30000  24288480.78600                   9050889.99040  24288485.77840
 -11621076.90100  22195959.45000                  -8934879.38440  22195963.48140
  -9902366.05300  21557634.29400                   2372388.56340  21557638.77140
   -564851.23600  24840459.77800                   -296863.00340  24840466.81340
 -11729380.80500  21383626.15300                  -8991277.90740  21383629.07140
  -8689955.81400  22727188.91100                  -6648048.99640  22727192.35640
 96  9  5  0 56 30.0010000  0  6  1 14 15 22 25 29
  11494730.89800  24307796.70000                   9129984.45740  24307801.42340
 -11669540.02500  22186737.29400                  -8972642.84540  22186741.12640
  -9835224.84400  21570410.73900                   2424706.35940  21570415.12240
   -637786.88600  24826579.95000                   -353695.95640  24826584.83740
 -11675754.94400  21393830.98100                  -8949491.52340  21393833.64240
  -8720560.79200  22721365.27800                  -6671896.99840  22721368.53640
 96  9  5  0 57  0.0010000  0  6  1 14 15 22 25 29
  11596265.83100  24327118.15300                   9209102.57340  24327122.78240
 -11717763.75500  22177560.72400                  -9010219.75740  22177564.87240
  -9767503.51200  21583297.90300                   2477476.19740  21583302.14640
   -710761.92400  24812692.92700                   -410559.59940  24812695.01340
 -11621623.93600  21404131.38000                  -8907311.51540  21404134.28640
  -8750981.74600  22715576.13800                  -6695601.60740  22715579.78240
 96  9  5  0 57 30.0010000  0  6  1 14 15 22 25 29
  11697831.16200  24346446.11400                   9288244.33140  24346451.88040
 -11765760.28500  22168427.16100                  -9047619.63140  22168431.26340
  -9699212.52900  21596292.98100                   2530689.91940  21596297.79840
   -783775.30700  24798800.09100                   -467453.15140  24798803.20840
 -11567001.10600  21414525.74700                  -8864748.27340  21414528.72440
  -8781229.27700  22709820.52800                  -6719171.07640  22709824.41940
 96  9  5  0 58  0.0010000  0  6  1 14 15 22 25 29
  11799447.94900  24365782.77100                   9367426.18640  24365787.03640
 -11813545.58700  22159333.55200                  -9084854.91540  22159337.77140
  -9630351.13600  21609396.98900                   2584348.12540  21609401.46640
   -856822.84300  24784899.11400                   -524373.22740  24784906.52440
 -11511882.12300  21425014.68500                  -8821798.42140  21425017.48540
  -8811307.49000  22704096.96600                  -6742608.61540  22704101.00940
 96  9  5  0 58 30.0010000  0  6  1 14 15 22 25 29
  11901116.12900  24385128.84100                   9446648.14640  24385134.88840
 -11861130.42700  22150278.38800                  -9121934.00040  22150282.43140
  -9560916.73300  21622609.69200                   2638452.83040  21622614.20440
   -929892.85100  24770995.31700                   -581310.88940  24771001.72840
 -11456271.00200  21435597.11400                  -8778465.07240  21435599.97440
  -8841229.09100  22698402.81000                  -6765924.12140  22698406.34940
 96  9  5  0 59  0.0010000  0  6  1 14 15 22 25 29
  12002810.93800  24404481.33300                   9525890.82940  24404485.88040
 -11908526.12300  22141259.34100                  -9158865.69240  22141263.81740
  -9490911.38400  21635931.50500                   2693002.43040  21635936.23940
  -1002978.82700  24757086.20000                   -638260.96640  24757092.36440
 -11400174.74100  21446271.61400                  -8734753.70040  21446274.53240
  -8870995.46100  22692738.23100                  -6789118.66940  22692741.84140
 96  9  5  0 59 30.0010000  0  6  1 14 15 22 25 29
  12104528.06700  24423837.54400                   9605150.89340  24423843.93140
 -11955739.74700  22132274.85600                  -9195655.51040  22132279.11040
  -9420336.07400  21649361.47400                   2747996.15540  21649366.16140
  -1076070.96100  24743177.45800                   -695215.79540  24743183.28240
 -11343596.34500  21457038.65300                  -8690666.63740  21457041.65340
  -8900599.27300  22687104.63000                  -6812186.55440  22687108.11040
 96  9  5  1  0  0.0020000  0  6  1 14 15 22 25 29
  12206269.00800  24443198.13500                   9684429.52640  24443203.03340
 -12002762.08100  22123326.83800                  -9232296.28040  22123331.03340
  -9349192.53400  21662899.79900                   2803432.65140  21662904.63940
  -1149172.94700  24729267.78300                   -752178.30340  24729275.00640
 -11286546.40800  21467894.80700                  -8646212.14840  21467897.66640
  -8930041.03100  22681502.59600                  -6835128.15740  22681505.86540
 96  9  5  1  0 30.0020000  0  6  1 14 15 22 25 29
  12308014.14500  24462559.77500                   9763711.43640  24462564.27540
 -12049580.00900  22114417.84600                  -9268777.76240  22114421.77140
  -9277488.16100  21676544.59600                   2859306.16540  21676548.86140
  -1222274.17700  24715356.58000                   -809140.24940  24715362.83840
 -11229045.18500  21478837.07200                  -8601406.00440  21478839.76840
  -8959308.52900  22675933.20500                  -6857933.95440  22675936.24040
 96  9  5  1  1  0.0020000  0  6  1 14 15 22 25 29
  12409769.53000  24481923.28300                   9843001.30140  24481927.11540
 -12096172.76400  22105551.65000                  -9305083.78840  22105555.84640
  -9205219.55800  21690296.82200                   2915619.33240  21690301.15840
  -1295376.13400  24701445.30700                   -866102.79540  24701449.90040
 -11171095.76400  21489864.33000                  -8556250.60840  21489867.28340
  -8988391.52800  22670398.50200                  -6880595.99840  22670401.87740
 96  9  5  1  1 30.0020000  0  6  1 14 15 22 25 29
  12511549.80200  24501291.36100                   9922310.57340  24501296.77540
 -12142522.33900  22096731.73600                  -9341200.32340  22096735.70940
  -9132390.44700  21704155.92400                   2972369.26940  21704160.49440
  -1368481.26700  24687532.47900                   -923067.80840  24687538.94740
 -11112702.86100  21500976.14300                  -8510749.64440  21500979.15440
  -9017289.03700  22664899.72900                  -6903113.50940  22664903.19740
 96  9  5  1  2  0.0020000  0  6  1 14 15 22 25 29
  12613342.70200  24520661.40800                  10001629.65040  24520666.75240
 -12188617.83200  22087959.76800                  -9377118.87840  22087963.64640
  -9059002.02100  21718121.38500                   3029555.03140  21718126.10740
  -1441583.67500  24673620.80700                   -980030.67640  24673629.08440
 -11053861.39900  21512173.01000                  -8464899.16240  21512175.90440
  -9045998.19500  22659436.61100                  -6925484.24740  22659440.37340
 96  9  5  1  2 30.0020000  0  6  1 14 15 22 25 29
  12715139.77400  24540032.59600                  10080952.02240  24540037.33040
 -12234471.30400  22079234.07200                  -9412848.83640  22079238.10440
  -8985058.92200  21732192.13500                   3087173.00840  21732196.74040
  -1514680.06200  24659712.90000                  -1036988.79440  24659719.07640
 -10994561.00100  21523457.76800                  -8418691.05740  21523460.62740
  -9074527.15300  22654007.46300                  -6947714.57340  22654010.93240
 96  9  5  1  3  0.0020000  0  6  1 14 15 22 25 29
  12816941.72800  24559404.63500                  10160278.18040  24559409.79140
 -12280084.80500  22070554.24400                  -9448391.80840  22070558.26440
  -8910566.13400  21746367.68200                   3145219.30740  21746372.39340
  -1587786.75500  24645800.82200                  -1093955.03140  24645807.36140
 -10934787.79700  21534832.41600                  -8372114.53740  21534835.26440
  -9102880.10400  22648611.93900                  -6969807.75540  22648615.25640
 96  9  5  1  3 30.0020000  0  6  1 14 15 22 25 29
  12918762.49500  24578780.40800                  10239618.99440  24578785.23640
 -12325455.75400  22061919.97900                  -9483745.78240  22061924.05740
  -8835518.12800  21760648.72100                   3203698.25040  21760653.60740
  -1660897.43900  24631888.43200                  -1150924.29940  24631894.18640
 -10874525.48000  21546299.83800                  -8325156.89140  21546302.65040
  -9131035.61700  22643254.36100                  -6991747.08940  22643257.61940
 96  9  5  1  4  0.0020000  0  6  1 14 15 22 25 29
  13020593.16100  24598158.22900                  10318967.53040  24598163.02140
 -12370598.72600  22053329.85400                  -9518922.10740  22053333.87340
  -8759919.15200  21775035.15000                   3262606.52040  21775039.60440
  -1734000.50100  24617977.33000                  -1207887.63940  24617983.61140
 -10813768.46700  21557861.56400                  -8277813.76340  21557864.29540
  -9158990.60400  22637934.58000                  -7013530.16440  22637937.83840
 96  9  5  1  4 30.0020000  0  6  1 14 15 22 25 29
  13122452.93500  24617541.34600                  10398338.72840  24617547.06440
 -12415511.07400  22044783.36900                  -9553918.72940  22044786.94340
  -8683769.90800  21789525.92400                   3321943.56740  21789530.21340
  -1807098.82600  24604065.80700                  -1264847.32940  24604072.55740
 -10752523.20600  21569516.36900                  -8230090.18840  21569518.83040
  -9186758.04600  22632650.63500                  -7035167.11740  22632653.97540
 96  9  5  1  5  0.0020000  0  6  1 14 15 22 25 29
  13224340.83200  24636930.24400                  10477731.83340  24636935.06140
 -12460180.17500  22036282.99400                  -9588725.80040  22036286.75640
  -8607075.26100  21804120.27500                   3381705.59840  21804124.33040
  -1880191.34100  24590157.83000                  -1321802.53240  24590161.95540
 -10690797.54800  21581262.00200                  -8181992.26840  21581264.73240
  -9214335.13400  22627402.56400                  -7056655.72740  22627406.02140
 96  9  5  1  5 30.0020000  0  6  1 14 15 22 25 29
  13326237.50700  24656320.78300                  10557131.79540  24656325.18940
 -12504611.38800  22027827.86100                  -9623347.50440  22027832.06840
  -8529842.81800  21818816.79900                   3441886.70240  21818821.38140
  -1953255.32500  24576254.05700                  -1378735.40640  24576259.79940
 -10628608.09100  21593096.20500                  -8133532.94340  21593099.19340
  -9241744.71000  22622186.64300                  -7078013.80240  22622190.00640
 96  9  5  1  6  0.0020000  0  6  1 14 15 22 25 29
  13428141.83800  24675713.07200                  10636537.70640  24675717.92440
 -12548793.64400  22019420.20500                  -9657775.21840  22019424.55340
  -8452070.16000  21833616.61100                   3502488.74140  21833621.17040
  -2026270.17800  24562359.92400                  -1435630.06240  24562367.86140
 -10565958.94000  21605017.78300                  -8084715.42640  21605020.91240
  -9269012.82500  22616998.25200                  -7099261.66740  22617001.59240
 96  9  5  1  6 30.0020000  0  6  1 14 15 22 25 29
  13530061.18300  24695107.46300                  10715955.38140  24695112.77140
 -12592716.18200  22011062.58800                  -9692000.56140  22011066.70140
  -8373756.28500  21848519.47100                   3563512.51340  21848524.00640
  -2099240.31900  24548475.08800                  -1492489.85940  24548480.57240
 -10502850.63500  21617026.93900                  -8035540.11740  21617029.97540
  -9296149.72600  22611834.04900                  -7120407.27140  22611837.20140
 96  9  5  1  7  0.0020000  0  6  1 14 15 22 25 29
  13631984.68900  24714502.32200                  10795376.28940  24714507.02140
 -12636384.34900  22002752.54100                  -9726027.69040  22002756.58440
  -8294905.98900  21863523.97900                   3624954.27440  21863528.76040
  -2172159.63000  24534598.58800                  -1549310.08940  24534604.77540
 -10439286.12200  21629123.20500                  -7986009.32740  21629126.20540
  -9323141.75800  22606697.66600                  -7141439.99940  22606700.73640
 96  9  5  1  7 30.0020000  0  6  1 14 15 22 25 29
  13733906.83200  24733898.10400                  10874796.06240  24733905.97140
 -12679811.94000  21994488.04900                  -9759867.35140  21994492.19740
  -8215521.51500  21878630.51000                   3686812.28040  21878635.17440
  -2245029.44400  24520730.75200                  -1606091.67440  24520737.51440
 -10375269.21000  21641305.07200                  -7936126.01540  21641307.96740
  -9349990.23200  22601588.47900                  -7162360.86940  22601591.81840
 96  9  5  1  8  0.0020000  0  6  1 14 15 22 25 29
  13835837.01500  24753294.65000                  10954222.14040  24753297.86140
 -12722998.41000  21986270.10400                  -9793519.13140  21986274.48640
  -8135606.47300  21893837.77500                   3749083.71340  21893842.27540
  -2317870.58400  24506868.77500                  -1662850.91040  24506875.46740
 -10310799.99100  21653573.05700                  -7885890.26540  21653575.90440
  -9376678.34600  22596509.88500                  -7183156.77340  22596513.17840
 96  9  5  1  8 30.0020000  0  6  1 14 15 22 25 29
  13937775.52100  24772693.15800                  11033654.72740  24772698.51440
 -12765953.80400  21978095.94700                  -9826990.85140  21978100.01440
  -8055162.75800  21909145.68200                   3811767.10240  21909150.42840
  -2390701.98900  24493012.26000                  -1719602.55240  24493017.85040
 -10245879.55700  21665926.87700                  -7835302.92040  21665929.78340
  -9403176.73500  22591467.44700                  -7203804.83640  22591471.04540
 96  9  5  1  9  0.0020000  0  6  1 14 15 22 25 29
  14039705.92600  24792089.22100                  11113080.99040  24792093.81440
 -12808684.69500  21969964.72100                  -9860287.63040  21969968.61140
  -7974196.52700  21924553.39300                   3874857.64640  21924558.17440
  -2463521.82700  24479155.32200                  -1776345.24040  24479161.01840
 -10180522.78600  21678364.41600                  -7784375.56540  21678367.21740
  -9429478.30300  22586462.44700                  -7224299.53940  22586465.41240
 96  9  5  1  9 30.0020000  0  6  1 14 15 22 25 29
  14141627.37900  24811484.65000                  11192500.30340  24811489.84240
 -12851178.46000  21961878.49400                  -9893399.63940  21961882.53740
  -7892707.04100  21940060.36100                   3938355.92940  21940064.55740
  -2536328.96800  24465298.82200                  -1833077.97640  24465304.82240
 -10114722.11700  21690885.70500                  -7733102.31440  21690888.29540
  -9455593.71500  22581492.68900                  -7244649.18540  22581495.76040
 96  9  5  1 10  0.0020000  0  6  1 14 15 22 25 29
  14243558.27400  24830882.51800                  11271926.92640  24830886.46740
 -12893415.21700  21953841.01000                  -9926311.38840  21953845.05340
  -7810693.60900  21955666.51800                   4002262.47640  21955671.36940
  -2609120.28900  24451447.07200                  -1889798.44440  24451454.15440
 -10048481.57900  21703490.76000                  -7681486.30940  21703493.49040
  -9481516.55900  22576559.74400                  -7264848.77440  22576563.20140
 96  9  5  1 10 30.0020000  0  6  1 14 15 22 25 29
  14345498.91500  24850279.94700                  11351361.19840  24850285.97140
 -12935389.30300  21945853.65000                  -9959018.45040  21945857.58840
  -7728162.95000  21971371.80700                   4066572.05940  21971376.71740
  -2681882.35700  24437600.05700                  -1946496.03440  24437606.38540
  -9981815.76600  21716176.67400                  -7629538.92740  21716179.36940
  -9507261.30100  22571660.46300                  -7284909.59840  22571664.20140
 96  9  5  1 11  0.0020000  0  6  1 14 15 22 25 29
  14447459.98500  24869682.84600                  11430811.37740  24869687.68640
 -12977076.48000  21937920.68200                  -9991501.95340  21937924.51440
  -7645109.77200  21987175.85400                   4131288.79940  21987181.04540
  -2754588.08300  24423765.33800                  -2003149.80240  24423772.00640
  -9914720.12900  21728944.54900                  -7577256.61940  21728947.56140
  -9532845.86000  22566791.62700                  -7304845.58940  22566795.30740
 96  9  5  1 11 30.0020000  0  6  1 14 15 22 25 29
  14549453.87800  24889092.36100                  11510287.11040  24889097.64640
 -13018473.83600  21930043.22100                 -10023759.61740  21930047.04140
  -7561545.83900  22003078.10400                   4196403.53240  22003082.96740
  -2827238.94900  24409939.54900                  -2059760.77940  24409944.17840
  -9847201.46900  21741792.97900                  -7524644.67240  21741795.87340
  -9558280.19300  22561951.95500                  -7324664.52240  22561955.28340
 96  9  5  1 12  0.0020000  0  6  1 14 15 22 25 29
  14651484.94500  24908506.75200                  11589791.80540  24908511.54540
 -13059574.39300  21922222.19700                 -10055786.00740  21922225.98240
  -7477468.26700  22019077.53300                   4261918.49540  22019082.02140
  -2899813.86700  24396130.19700                  -2116312.63440  24396135.14340
  -9779263.76400  21754721.25200                  -7471706.20240  21754724.08840
  -9583557.34800  22557141.66600                  -7344360.98140  22557144.98240
 96  9  5  1 12 30.0020000  0  6  1 14 15 22 25 29
  14753536.56000  24927927.08800                  11669312.54040  24927931.78740
 -13100383.43900  21914456.46300                 -10087585.24840  21914460.22540
  -7392883.72400  22035173.54100                   4327828.50740  22035178.21740
  -2972309.49500  24382333.37700                  -2172802.64140  24382339.15440
  -9710902.70900  21767729.69700                  -7418437.84140  21767732.49840
  -9608685.06600  22552360.33800                  -7363940.99140  22552363.49040
 96  9  5  1 13  0.0020000  0  6  1 14 15 22 25 29
  14855609.64600  24947350.97900                  11748849.95140  24947356.61540
 -13140901.99700  21906745.93900                 -10119158.13240  21906749.68940
  -7307791.29000  22051366.13500                   4394134.27940  22051370.60040
  -3044720.75500  24368554.05700                  -2229226.90840  24368557.98240
  -9642105.92600  21780821.35400                  -7364829.95640  21780824.11940
  -9633648.51800  22547609.76800                  -7383393.01140  22547613.33040
 96  9  5  1 13 30.0020000  0  6  1 14 15 22 25 29
  14957696.00600  24966778.04900                  11828397.78840  24966781.23640
 -13181135.13700  21899089.58800                 -10150508.61740  21899093.70140
  -7222192.37600  22067654.94700                   4460834.70540  22067659.37740
  -3117047.09500  24354791.29900                  -2285584.98840  24354796.20940
  -9572866.88800  21793996.97100                  -7310877.46340  21793999.95940
  -9658426.01200  22542894.70500                  -7402700.11940  22542897.88140
 96  9  5  1 14  0.0020000  0  6  1 14 15 22 25 29
  15059775.21100  24986202.57200                  11907940.03040  24986208.02140
 -13221092.87500  21891486.26800                 -10181644.49640  21891490.25240
  -7136090.56400  22084039.79900                   4527927.00040  22084044.19340
  -3189293.64600  24341042.95500                  -2341880.94440  24341048.74440
  -9503188.44700  21807256.50200                  -7256582.57540  21807259.25640
  -9683022.36300  22538214.14300                  -7421866.07340  22538217.43640
 96  9  5  1 14 30.0020000  0  6  1 14 15 22 25 29
  15161858.98300  25005628.55700                  11987485.73640  25005633.19740
 -13260787.50100  21883932.43900                 -10212575.34940  21883936.28340
  -7049491.86200  22100519.01800                   4595406.48540  22100523.63540
  -3261469.25700  24327308.08800                  -2398121.60540  24327313.35040
  -9433079.25700  21820597.72100                  -7201952.03440  21820600.45140
  -9707443.03500  22533566.79900                  -7440895.13840  22533570.13940
 96  9  5  1 15  0.0020000  0  6  1 14 15 22 25 29
  15263944.84100  25025054.64300                  12067033.16040  25025059.97540
 -13300221.23700  21876428.21300                 -10243302.92640  21876432.18640
  -6962396.04500  22117092.51800                   4663273.32940  22117097.28740
  -3333561.60600  24313589.61100                  -2454297.37440  24313595.37740
  -9362539.67400  21834021.03300                  -7146986.12440  21834023.98640
  -9731686.62300  22528953.65800                  -7459786.21140  22528956.91640
 96  9  5  1 15 30.0020000  0  6  1 14 15 22 25 29
  15366026.23900  25044480.34600                  12146577.06940  25044486.86140
 -13339387.41900  21868975.13500                 -10273822.01540  21868979.14340
  -6874804.86800  22133760.43900                   4731526.17640  22133765.60740
  -3405569.89500  24299887.58000                  -2510407.66240  24299891.90440
  -9291570.24800  21847525.82200                  -7091685.28140  21847528.89340
  -9755767.11000  22524371.44700                  -7478550.20440  22524374.45940
 96  9  5  1 16  0.0020000  0  6  1 14 15 22 25 29
  15468109.21200  25063905.45500                  12226122.22140  25063910.68240
 -13378283.46800  21861573.53300                 -10304130.61040  21861577.50640
  -6786723.81800  22150521.36900                   4800160.73740  22150526.39640
  -3477494.78900  24286199.51000                  -2566452.94640  24286205.12340
  -9220190.13300  21861109.58000                  -7036064.41140  21861112.29940
  -9779698.06400  22519817.47900                  -7497197.67140  22519820.40840
 96  9  5  1 16 30.0020000  0  6  1 14 15 22 25 29
  15570198.07400  25083333.81400                  12305671.93840  25083339.35740
 -13416900.47700  21854225.04100                 -10334221.76940  21854228.85040
  -6698154.52800  22167376.00200                   4869175.74240  22167381.07640
  -3549330.37200  24272529.59600                  -2622428.65340  24272535.08040
  -9148403.16500  21874769.82200                  -6980126.51340  21874772.51840
  -9803478.51800  22515291.71300                  -7515727.85940  22515295.04140
 96  9  5  1 17  0.0020000  0  6  1 14 15 22 25 29
  15672256.88400  25102754.34600                  12385198.28740  25102755.89340
 -13455228.88000  21846931.41600                 -10364088.04440  21846935.17840
  -6609101.66000  22184322.43900                   4938567.56740  22184327.16240
  -3621082.91400  24258875.39300                  -2678339.67340  24258883.10740
  -9076199.39800  21888509.85400                  -6923863.83840  21888512.67840
  -9827104.69700  22510796.20500                  -7534137.83340  22510799.34640
 96  9  5  1 17 30.0020000  0  6  1 14 15 22 25 29
  15774295.58700  25122170.79100                  12464708.93240  25122175.18640
 -13493257.55400  21839694.57200                 -10393720.76140  21839698.70940
  -6519568.01000  22201360.51800                   5008334.02340  22201364.91240
  -3692760.09800  24245235.69700                  -2734191.93340  24245242.58040
  -9003588.70200  21902327.31400                  -6867284.08040  21902330.06840
  -9850568.62800  22506330.71300                  -7552421.39140  22506334.15840
 96  9  5  1 18  0.0020000  0  6  1 14 15 22 25 29
  15876329.36000  25141587.47900                  12544215.69440  25141596.41240
 -13530981.81800  21832515.84600                 -10423116.27040  21832519.79540
  -6429552.17000  22218489.77500                   5078476.20740  22218494.21740
  -3764350.49600  24231612.02500                  -2789976.59640  24231617.59240
  -8930568.65900  21916222.35400                  -6810385.35140  21916225.35440
  -9873860.75200  22501898.46300                  -7570571.06640  22501902.28340
 96  9  5  1 18 30.0020000  0  6  1 14 15 22 25 29
  15978351.89700  25161002.15000                  12623713.79840  25161007.24840
 -13568401.50300  21825395.24400                 -10452274.44540  21825399.05340
  -6339057.95400  22235710.29900                   5148991.15940  22235714.86940
  -3835845.33300  24218007.69700                  -2845686.79540  24218014.72140
  -8857115.04300  21930200.00200                  -6753148.77340  21930203.14340
  -9896980.81600  22497498.97100                  -7588586.67040  22497502.38140
 96  9  5  1 19  0.0020000  0  6  1 14 15 22 25 29
  16080377.47100  25180417.26800                  12703214.22040  25180422.15440
 -13605514.56500  21818332.75200                 -10481193.69540  21818336.38540
  -6248091.00200  22253020.54900                   5219874.46140  22253025.24840
  -3907241.70900  24204421.97900                  -2901320.25640  24204425.81140
  -8783228.89600  21944260.09600                  -6695575.15040  21944263.08440
  -9919925.23200  22493133.08800                  -7606465.40640  22493136.38140
 96  9  5  1 19 30.0020000  0  6  1 14 15 22 25 29
  16182442.22400  25199839.52500                  12782745.16840  25199842.78340
 -13642326.72100  21811327.59600                 -10509878.47840  21811331.61540
  -6156653.53400  22270420.62700                   5291124.41040  22270425.17440
  -3978526.57000  24190857.11100                  -2956866.85140  24190862.92440
  -8708928.09300  21958399.29900                  -6637678.42640  21958402.36940
  -9942693.38800  22488800.50200                  -7624206.79540  22488803.91240
 96  9  5  1 20  0.0020000  0  6  1 14 15 22 25 29
  16284549.92100  25219268.70500                  12862309.54440  25219276.93640
 -13678843.84400  21804378.56400                 -10538333.36240  21804382.52540
  -6064743.81100  22287910.49400                   5362742.34740  22287915.58040
  -4049686.32700  24177315.92400                  -3012315.93040  24177321.27940
  -8634210.14100  21972617.66600                  -6579456.64640  21972620.45540
  -9965288.02300  22484500.33000                  -7641812.97240  22484503.71740
 96  9  5  1 20 30.0020000  0  6  1 14 15 22 25 29
  16386681.75000  25238703.65800                  12941892.75240  25238707.81840
 -13715065.97600  21797486.09600                 -10566558.38740  21797489.81140
  -5972369.63200  22305488.80700                   5434722.20040  22305493.75240
  -4120726.31000  24163796.38500                  -3067671.66940  24163802.67840
  -8559093.02200  21986911.93900                  -6520923.82940  21986914.63540
  -9987715.79100  22480232.58800                  -7659289.13340  22480235.95140
 96  9  5  1 21  0.0020000  0  6  1 14 15 22 25 29
  16488840.96100  25258145.36100                  13021497.34640  25258151.10440
 -13750993.60400  21790649.10400                 -10594553.92040  21790652.86540
  -5879534.43300  22323154.75200                   5507061.29340  22323158.94740
  -4191650.87200  24150300.32200                  -3122937.49940  24150305.93640
  -8483603.51800  22001277.29100                  -6462100.83740  22001280.02140
 -10009975.32400  22475996.65000                  -7676634.19340  22475999.95540
 96  9  5  1 21 30.0020000  0  6  1 14 15 22 25 29
  16591016.08500  25277588.46300                  13101114.29740  25277594.86140
 -13786616.46000  21783870.15000                 -10622311.97840  21783874.04140
  -5786235.08000  22340908.89300                   5579762.05440  22340913.70940
  -4262457.39000  24136825.91600                  -3178111.33140  24136831.42440
  -8407733.32300  22015714.77500                  -6402981.21340  22015717.99840
 -10032071.43500  22471791.93200                  -7693851.90340  22471795.17840
 96  9  5  1 22  0.0020000  0  6  1 14 15 22 25 29
  16693180.78900  25297029.33800                  13180723.15840  25297034.37740
 -13821923.76000  21777151.85400                 -10649824.14840  21777155.61540
  -5692474.59300  22358750.68200                   5652822.14440  22358755.67440
  -4333148.12800  24123373.94700                  -3233194.95740  24123379.93640
  -8331463.61200  22030228.02500                  -6343550.27440  22030231.18940
 -10054017.27100  22467616.18900                  -7710952.52840  22467618.96740
 96  9  5  1 22 30.0020000  0  6  1 14 15 22 25 29
  16795319.45100  25316466.40000                  13260311.78840  25316471.26440
 -13856903.73700  21770495.43200                 -10677081.25640  21770499.14640
  -5598261.92500  22376678.86100                   5726234.58940  22376684.22940
  -4403728.76000  24109943.24400                  -3288192.78040  24109948.88140
  -8254791.60900  22044818.47900                  -6283805.85940  22044821.60740
 -10075815.40500  22463467.89300                  -7727938.06240  22463471.05740
 96  9  5  1 23  0.0020000  0  6  1 14 15 22 25 29
  16897443.30100  25335900.84600                  13339888.79140  25335907.03340
 -13891563.99700  21763899.54900                 -10704089.24540  21763903.26440
  -5503600.64000  22394692.83800                   5799996.58940  22394697.13940
  -4474204.59500  24096532.00200                  -3343108.95040  24096536.30340
  -8177706.86300  22059487.33800                  -6223739.82440  22059490.23240
 -10097462.63900  22459348.48600                  -7744806.01640  22459351.29940
 96  9  5  1 23 30.0020000  0  6  1 14 15 22 25 29
  16999548.54000  25355329.76000                  13419451.27240  25355334.42440
 -13925894.13000  21757366.48600                 -10730839.98340  21757370.27140
  -5408491.51100  22412791.12700                   5874107.57440  22412795.97940
  -4544567.93700  24083142.00200                  -3397937.43340  24083146.56140
  -8100199.48300  22074236.52500                  -6163344.45440  22074239.50240
 -10118968.21400  22455256.39300                  -7761563.58040  22455259.06440
 96  9  5  1 24  0.0020000  0  6  1 14 15 22 25 29
  17101644.59800  25374758.25200                  13499006.65840  25374761.76840
 -13959892.14700  21750896.99400                 -10757331.93440  21750900.96740
  -5312931.96600  22430975.48600                   5948569.52640  22430980.66640
  -4614798.19600  24069777.34600                  -3452662.22740  24069783.59240
  -8022276.44100  22089064.65000                  -6102625.20440  22089067.74440
 -10140313.50500  22451194.22100                  -7778196.24540  22451197.35040
 96  9  5  1 24 30.0020000  0  6  1 14 15 22 25 29
  17203747.67100  25394186.90800                  13578567.45240  25394190.37740
 -13993563.55900  21744489.68900                 -10783569.38740  21744493.36940
  -5216924.09500  22449245.30700                   6023380.82440  22449250.47540
  -4684888.45500  24056439.77500                  -3507277.93340  24056445.33040
  -7943960.56700  22103967.61100                  -6041599.85040  22103970.88140
 -10161478.17700  22447166.70500                  -7794688.17140  22447169.72940
 96  9  5  1 25  0.0020000  0  6  1 14 15 22 25 29
  17305868.45700  25413620.65800                  13658142.07640  25413627.96340
 -14026916.70600  21738142.76800                 -10809558.84040  21738146.54140
  -5120474.73300  22467599.05700                   6098536.13540  22467603.68640
  -4754838.54100  24043129.05700                  -3561784.41640  24043133.48640
  -7865264.81700  22118942.69700                  -5980278.49240  22118946.02540
 -10182459.20600  22443174.15800                  -7811036.99940  22443177.06440
 96  9  5  1 25 30.0020000  0  6  1 14 15 22 25 29
  17407985.71700  25433052.33000                  13737713.93340  25433054.86140
 -14059949.15100  21731856.93900                 -10835298.39740  21731860.84240
  -5023596.58300  22486034.28300                   6174025.57140  22486038.97140
  -4824641.19700  24029845.52500                  -3616176.01340  24029851.15040
  -7786211.82700  22133986.47900                  -5918678.76940  22133989.30340
 -10203266.05200  22439214.68900                  -7827250.10740  22439217.86540
 96  9  5  1 26  0.0020000  0  6  1 14 15 22 25 29
  17510102.92400  25452484.91600                  13817285.76540  25452492.63140
 -14092663.09100  21725631.38500                 -10860789.76540  21725635.17040
  -4926283.23400  22504552.20500                   6249854.13140  22504557.18640
  -4894292.19500  24016591.46300                  -3670449.46440  24016597.39340
  -7706800.11100  22149098.13500                  -5856799.51440  22149100.79540
 -10223869.91800  22435294.01800                  -7843305.04340  22435297.05340
 96  9  5  1 26 30.0020000  0  6  1 14 15 22 25 29
  17612218.06700  25471916.99400                  13896856.02340  25471921.69340
 -14125053.17200  21719467.75200                 -10886028.78340  21719471.47940
  -4828536.72500  22523153.07200                   6326020.20740  22523158.02940
  -4963804.33400  24003363.60400                  -3724614.67340  24003370.06140
  -7627026.64300  22164278.43900                  -5794638.37740  22164280.94740
 -10244284.51700  22431409.08800                  -7859212.50040  22431412.20540
 96  9  5  1 27  0.0020000  0  6  1 14 15 22 25 29
  17714324.93100  25491347.52500                  13976419.82940  25491351.93240
 -14157107.46100  21713368.22100                 -10911006.13940  21713371.97140
  -4730357.28200  22541836.11900                   6402523.64240  22541841.33440
  -5033167.28200  23990163.68900                  -3778663.63540  23990169.54940
  -7546886.11200  22179528.65800                  -5732191.21040  22179531.17840
 -10264532.91500  22427555.93200                  -7874990.45040  22427558.96740
 96  9  5  1 27 30.0020000  0  6  1 14 15 22 25 29
  17816404.12000  25510772.16600                  14055962.03040  25510777.62740
 -14188835.70000  21707330.50200                 -10935729.43140  21707334.21740
  -4631754.42400  22560599.52500                   6479356.99640  22560604.90440
  -5102385.44600  23976992.60400                  -3832599.78440  23976998.62740
  -7466389.84800  22194846.40800                  -5669466.84840  22194849.37340
 -10284630.55500  22423731.36100                  -7890650.92540  22423734.85440
 96  9  5  1 28  0.0020000  0  6  1 14 15 22 25 29
  17918482.00000  25530197.11100                  14135503.23640  25530204.73240
 -14220237.70000  21701354.76000                 -10960198.51440  21701358.53340
  -4532726.32800  22579444.11900                   6556521.71640  22579449.08840
  -5171451.52900  23963849.04900                  -3886417.43240  23963854.96740
  -7385535.25700  22210232.42400                  -5606463.27740  22210235.35440
 -10304576.24100  22419936.25200                  -7906193.00340  22419939.40440
 96  9  5  1 28 30.0020000  0  6  1 14 15 22 25 29
  18020574.67600  25549625.01000                  14215055.94740  25549630.93940
 -14251304.90300  21695442.67400                 -10984406.71140  21695446.67040
  -4433278.97300  22598368.40800                   6634013.13740  22598373.10740
  -5240348.12600  23950738.90800                  -3940103.01540  23950745.15440
  -7304321.47000  22225687.06400                  -5543179.80740  22225689.83040
 -10324387.01100  22416166.20500                  -7921629.95340  22416168.93640
 96  9  5  1 29  0.0020000  0  6  1 14 15 22 25 29
  18122693.90200  25569056.91600                  14294629.31840  25569061.54540
 -14282033.62600  21689595.43900                 -11008351.16140  21689599.26040
  -4333411.67600  22617372.35400                   6711831.77940  22617377.02940
  -5309052.07200  23937663.64300                  -3993638.47740  23937668.84640
  -7222741.74000  22241211.33000                  -5479611.18740  22241214.21340
 -10344038.35700  22412426.46300                  -7936942.65940  22412429.59240
 96  9  5  1 29 30.0020000  0  6  1 14 15 22 25 29
  18224837.40200  25588495.04900                  14374221.66740  25588500.25240
 -14312433.89100  21683810.35400                 -11032039.66640  21683814.16240
  -4233133.88400  22636454.61100                   6789970.28540  22636459.38140
  -5377568.98300  23924626.09600                  -4047028.22140  23924631.60440
  -7140801.30100  22256803.97100                  -5415761.50440  22256806.58440
 -10363513.23800  22408720.14300                  -7952117.86940  22408723.65840
 96  9  5  1 30  0.0020000  0  5 14 15 22 25 29
 -14342480.80700  21678092.68900                 -11055452.83540  21678096.42840
  -4132440.36200  22655615.84600                   6868432.73440  22655620.94340
  -5445893.16300  23911625.13500                  -4100267.76440  23911630.95940
  -7058479.83200  22272468.93200                  -5351614.91140  22272471.92040
 -10382800.62400  22405050.06400                  -7967146.98340  22405053.41640
 96  9  5  1 30 30.0020000  0  5 14 15 22 25 29
 -14372169.24500  21672443.15000                 -11078586.67440  21672446.97140
  -4031337.06100  22674855.23600                   6947214.48540  22674860.45140
  -5514034.03500  23898658.32200                  -4153364.47740  23898663.25640
  -6975777.42300  22288206.75200                  -5287171.48140  22288209.58840
 -10401908.93800  22401413.86100                  -7982036.55140  22401416.95540
 96  9  5  1 31  0.0020000  0  5 14 15 22 25 29
 -14401501.39700  21666861.29100                 -11101442.88040  21666864.93640
  -3929828.51200  22694172.10400                   7026312.02640  22694176.66240
  -5582002.49900  23885724.15000                  -4206326.83640  23885729.81140
  -6892700.46600  22304015.99400                  -5222436.19640  22304018.72540
 -10420843.56500  22397811.11100                  -7996790.79440  22397813.95940
 96  9  5  1 31 30.0020000  0  5 14 15 22 25 29
 -14430476.71600  21661347.33000                 -11124021.03640  21661351.06840
  -3827918.16500  22713564.90800                   7105722.64440  22713569.80740
  -5649809.52500  23872819.83000                  -4259163.41540  23872825.90040
  -6809256.21100  22319894.86900                  -5157414.69740  22319897.62340
 -10439629.66000  22394236.31400                  -8011429.28840  22394239.18640
 96  9  5  1 32  0.0020000  0  5 14 15 22 25 29
 -14459092.57400  21655902.11900                 -11146319.08740  21655905.83440
  -3725610.72600  22733033.03300                   7185442.69040  22733038.14340
  -5717453.20400  23859948.45500                  -4311872.69840  23859954.44340
  -6725448.13200  22335842.88500                  -5092109.70240  22335845.62740
 -10458282.80800  22390686.45500                  -8025964.18740  22390689.36140
 96  9  5  1 32 30.0020000  0  5 14 15 22 25 29
 -14487365.65100  21650521.87700                 -11168350.04340  21650525.52140
  -3622909.57000  22752576.28300                   7265469.52240  22752581.12340
  -5784917.29100  23847110.80700                  -4364442.00840  23847116.30340
  -6641290.40100  22351857.56400                  -5026532.25640  22351860.49440
 -10476799.96000  22387162.62700                  -8040393.12240  22387166.03740
 96  9  5  1 33  0.0020000  0  5 14 15 22 25 29
 -14515292.19200  21645207.60400                 -11190110.97540  21645211.20140
  -3519814.20700  22772195.08800                   7345803.53640  22772200.29140
  -5852190.62000  23834308.76800                  -4416862.71140  23834313.78340
  -6556782.95200  22367939.01800                  -4960682.30540  22367942.22940
 -10495162.45500  22383668.34600                  -8054701.54340  22383671.54540
 96  9  5  1 33 30.0030000  0  5 14 15 22 25 29
 -14542865.09300  21639960.61600                 -11211596.33540  21639964.42540
  -3416325.05000  22791888.23300                   7426444.39240  22791893.48340
  -5919266.52600  23821544.58500                  -4469129.57840  23821549.46040
  -6471931.12600  22384085.41300                  -4894564.01340  22384088.46040
 -10513350.19400  22380207.12400                  -8068873.79340  22380210.45240
 96  9  5  1 34  0.0030000  0  5 14 15 22 25 29
 -14570077.47500  21634782.41300                 -11232800.77940  21634786.26940
  -3312455.55900  22811654.18700                   7507381.62540  22811658.79240
  -5986133.62500  23808819.66300                  -4521233.72240  23808825.56940
  -6386738.64600  22400297.16300                  -4828180.26840  22400300.25740
 -10531344.92700  22376782.86600                  -8082895.65340  22376786.06540
 96  9  5  1 34 30.0030000  0  5 14 15 22 25 29
 -14596923.56200  21629673.71800                 -11253719.79540  21629677.53840
  -3208201.69100  22831492.74900                   7588618.37540  22831497.56540
  -6052787.82400  23796135.99100                  -4573171.98840  23796141.99140
  -6301205.54900  22416573.81200                  -4761531.11240  22416576.61240
 -10549140.23300  22373396.46000                  -8096762.11040  22373399.83540
 96  9  5  1 35  0.0030000  0  5 14 15 22 25 29
 -14623391.03100  21624637.28800                 -11274343.78840  21624640.88640
  -3103564.16900  22851404.77200                   7670154.05840  22851410.02240
  -6119229.44500  23783491.99100                  -4624944.58740  23783497.52240
  -6215332.13400  22432914.90500                  -4694616.76640  22432917.82340
 -10566745.82600  22370046.67900                  -8110480.74240  22370049.94840
 96  9  5  1 35 30.0030000  0  5 14 15 22 25 29
 -14649486.60100  21619671.34300                 -11294677.98440  21619675.01140
  -2998551.97400  22871387.84300                   7751981.71340  22871393.04640
  -6185467.58400  23770888.06900                  -4676558.64840  23770893.01540
  -6129117.91700  22449320.92900                  -4627436.85940  22449323.78840
 -10584178.80500  22366729.24100                  -8124064.86940  22366732.44040
 96  9  5  1 36  0.0030000  0  5 14 15 22 25 29
 -14675213.26200  21614775.48300                 -11314724.71640  21614779.18740
  -2893164.73300  22891442.60800                   7834101.59340  22891447.87040
  -6251503.40300  23758321.07700                  -4728015.06040  23758326.45640
  -6042553.49500  22465793.37400                  -4559984.06640  22465796.25740
 -10601451.43300  22363442.19400                  -8137524.04740  22363445.28840
 96  9  5  1 36 30.0030000  0  5 14 15 22 25 29
 -14700582.73400  21609947.89000                 -11334493.11940  21609951.53440
  -2787411.39500  22911566.42100                   7916506.75540  22911572.01140
  -6317336.65400  23745793.03800                  -4779313.61640  23745798.05440
  -5955654.21300  22482329.89700                  -4492270.34340  22482333.15540
 -10618575.94000  22360183.24900                  -8150867.80440  22360186.40140
 96  9  5  1 37  0.0030000  0  5 14 15 22 25 29
 -14725594.11600  21605188.40500                 -11353982.48940  21605192.16740
  -2681291.21300  22931760.57700                   7999197.77140  22931766.41340
  -6382964.62500  23733305.44400                  -4830452.22140  23733310.10840
  -5868408.21200  22498932.24900                  -4424286.44240  22498935.20240
 -10635536.58800  22356955.96800                  -8164083.88540  22356958.99140
 96  9  5  1 37 30.0030000  0  5 14 15 22 25 29
 -14750243.25400  21600497.65500                 -11373189.59440  21600501.64040
  -2574800.77300  22952025.39000                   8082177.29840  22952030.56940
  -6448377.32700  23720856.80400                  -4881423.06240  23720862.25340
  -5780811.36400  22515601.48300                  -4356029.15840  22515604.62440
 -10652319.60900  22353762.56900                  -8177161.54440  22353765.54640
 96  9  5  1 38  0.0030000  0  5 14 15 22 25 29
 -14774538.09800  21595874.80400                 -11392120.62440  21595878.64740
  -2467952.68500  22972358.08500                   8165435.51940  22972362.80840
  -6513565.55600  23708452.21800                  -4932219.02940  23708457.92540
  -5692895.77700  22532331.35100                  -4287523.50040  22532334.22240
 -10668935.52100  22350600.52200                  -8190108.98640  22350603.28840
 96  9  5  1 38 30.0030000  0  5 14 15 22 25 29
 -14798469.98600  21591320.43700                 -11410768.83240  21591324.21040
  -2360747.84500  22992758.14700                   8248971.71540  22992763.18740
  -6578519.53400  23696092.55400                  -4982832.43640  23696097.38240
  -5604669.07600  22549120.28800                  -4218775.42540  22549123.28840
 -10685391.22600  22347469.11600                  -8202931.58240  22347471.84740
 96  9  5  1 39  0.0030000  0  5 14 15 22 25 29
 -14822021.39500  21586838.90500                 -11429120.56640  21586842.60840
  -2253188.79500  23013226.52200                   8332783.91040  23013231.01140
  -6643234.76400  23683777.03000                  -5033259.81140  23683782.42140
  -5516142.74000  22565966.00700                  -4149793.86040  22565969.17140
 -10701700.37800  22344365.44400                  -8215639.98340  22344367.98740
 96  9  5  1 39 30.0030000  0  5 14 15 22 25 29
 -14845179.53100  21582431.97600                 -11447165.85340  21582435.72640
  -2145280.33200  23033760.78000                   8416868.39540  23033766.12440
  -6707700.91200  23671509.04600                  -5083493.10440  23671513.86240
  -5427332.83400  22582866.13200                  -4080591.33340  22582869.05040
 -10717877.27200  22341286.78800                  -8228245.32640  22341289.70640
 96  9  5  1 40  0.0030000  0  5 14 15 22 25 29
 -14867925.58400  21578103.55400                 -11464890.04240  21578107.29240
  -2037023.55600  23054360.77200                   8501224.27340  23054365.69440
  -6771908.01300  23659291.24100                  -5133524.53640  23659294.82740
  -5338226.77100  22599822.47600                  -4011158.03740  22599825.33540
 -10733912.87500  22338235.49100                  -8240740.57040  22338238.47940
 96  9  5  1 40 30.0030000  0  5 14 15 22 25 29
 -14890255.60600  21573854.46800                 -11482290.04840  21573858.21840
  -1928421.61800  23075027.91300                   8585849.11540  23075032.68340
  -6835861.64700  23647121.57700                  -5183358.46540  23647126.20640
  -5248805.98200  22616838.88200                  -3941479.51340  22616841.48340
 -10749796.26600  22335213.33500                  -8253117.20740  22335216.28840
 96  9  5  1 41  0.0030000  0  6 14 15 18 22 25 29
 -14912182.33500  21569681.74900                 -11499375.80140  21569685.55840
  -1819479.47100  23095758.18700                   8670739.06840  23095763.30840
                  25647630.24900
  -6899559.46500  23635000.10100                  -5232993.05140  23635005.26940
  -5159068.13000  22633915.20200                  -3871553.91440  22633918.34340
 -10765511.52600  22332222.53000                  -8265362.83340  22332225.60140
 96  9  5  1 41 30.0030000  0  6 14 15 18 22 25 29
 -14933719.56000  21565583.49900                 -11516158.05140  21565587.29640
  -1710197.30700  23116554.43700                   8755893.95240  23116559.11240
    -58330.65500  25636145.75700
  -6963007.84100  23622926.05400                  -5282433.26140  23622930.31940
  -5068985.78900  22651057.22600                  -3801359.88240  22651060.23740
 -10781044.06900  22329266.49900                  -8277466.08340  22329269.79240
 96  9  5  1 42  0.0030000  0  6 14 15 18 22 25 29
 -14954881.38100  21561556.46000                 -11532647.77940  21561560.04640
  -1600582.84500  23137412.96000                   8841307.78040  23137418.39740
   -118657.86000  25624665.56900
  -7026224.76200  23610896.58500                  -5331693.12940  23610901.29640
  -4978563.06400  22668264.30400                  -3730900.61440  22668267.08140
 -10796391.84700  22326345.82700                  -8289425.36240  22326348.95640
 96  9  5  1 42 30.0030000  0  6 14 15 18 22 25 29
 -14975680.89900  21557598.35100                 -11548855.19240  21557602.00740
  -1490639.13800  23158335.05400                   8926978.15340  23158340.53840
   -178963.33400  25613189.42100                    -20358.86650  25613195.94840
  -7089214.36200  23598909.85800                  -5380775.87540  23598914.61640
  -4887815.38200  22685533.19400                  -3660188.13940  22685535.86640
 -10811572.64000  22323457.24900                  -8301254.52540  22323460.21440
 96  9  5  1 43  0.0030000  0  6 14 15 18 22 25 29
 -14996113.38200  21553710.22600                 -11564776.60240  21553713.96440
  -1380369.66500  23179318.24900                   9012902.38440  23179323.40540
   -239234.08000  25601720.96800                    -67323.02240  25601725.21040
  -7151975.30900  23586966.89700                  -5429680.43040  23586971.76140
  -4796748.61400  22702862.41300                  -3589227.02740  22702865.47240
 -10826592.78600  22320598.87400                  -8312958.50540  22320601.95640
 96  9  5  1 43 30.0030000  0  6 14 15 18 22 25 29
 -15016151.58900  21549896.88200                 -11580390.78840  21549900.71440
  -1269774.12400  23200363.85800                   9099080.67540  23200369.48340
   -299464.00100  25590258.42900                   -114255.30040  25590265.95640
  -7214498.74600  23575068.53800                  -5478399.94240  23575073.91740
  -4705368.21700  22720251.71800                  -3518021.52640  22720254.77640
 -10841443.65700  22317772.77200                  -8324530.58440  22317775.56240
 96  9  5  1 44  0.0030000  0  6 14 15 18 22 25 29
 -15035786.06100  21546160.74100                 -11595690.37040  21546164.53840
  -1158860.54400  23221470.24900                   9185506.80740  23221475.69840
   -359659.02500  25578804.70200                   -161160.47140  25578807.01140
  -7276775.14700  23563217.95200                  -5526926.93740  23563223.15540
  -4613699.90100  22737695.36600                  -3446591.67240  22737698.14440
 -10856130.06800  22314978.22600                  -8335974.51440  22314981.02640
 96  9  5  1 44 30.0030000  0  6 14 15 18 22 25 29
 -15055005.18300  21542503.48300                 -11610666.31240  21542507.25740
  -1047629.79200  23242636.84300                   9272180.07440  23242641.87040
   -419806.30300  25567358.55400                   -208028.42140  25567366.80840
  -7338786.34900  23551417.75700                  -5575247.27340  23551422.70240
  -4521739.13300  22755194.81900                  -3374933.94040  22755197.94840
 -10870657.15800  22312213.82700                  -8347294.30140  22312216.51140
 96  9  5  1 45  0.0030000  0  6 14 15 18 22 25 29
 -15073788.68200  21538928.93700                 -11625302.80440  21538932.79240
   -936083.62500  23263863.48300                   9359099.10640  23263868.88640
   -479912.03700  25555921.01500                   -254864.00340  25555926.68740
  -7400530.51100  23539667.67900                  -5623359.52640  23539672.15540
  -4429480.81000  22772751.04600                  -3303044.34340  22772754.17540
 -10885011.48700  22309482.38200                  -8358479.46740  22309485.11240
 96  9  5  1 45 30.0030000  0  6 14 15 18 22 25 29
 -15092136.52000  21535437.46800                 -11639599.81440  21535441.24140
   -824225.26700  23285149.51500                   9446261.41040  23285154.14440
   -539986.88200  25544490.32700                   -301675.48740  25544495.03840
  -7462008.80100  23527968.96800                  -5671264.61940  23527973.66740
  -4336935.29900  22790362.01500                  -3230930.96340  22790364.96840
 -10899205.60000  22306781.01500                  -8369539.79340  22306783.79240
 96  9  5  1 46  0.0030000  0  6 14 15 18 22 25 29
 -15110058.82800  21532026.74100                 -11653565.24840  21532030.56240
   -712055.88400  23306494.49900                   9533666.07440  23306499.69040
   -600027.81000  25533063.11600                   -348460.56140  25533071.30040
  -7523217.57500  23516320.80400                  -5718959.71440  23516326.12440
  -4244098.34000  22808028.57700                  -3158590.47940  22808031.33140
 -10913257.96900  22304106.89000                  -8380489.67040  22304109.70240
 96  9  5  1 46 30.0030000  0  6 14 15 18 22 25 29
 -15127557.19900  21528697.53000                 -11667200.33640  21528701.33940
   -599578.45800  23327898.00700                   9621310.76940  23327903.06940
   -660036.21000  25521644.11600                   -395220.33140  25521651.60840
  -7584147.22600  23504727.03000                  -5766437.29940  23504731.00340
  -4150968.64200  22825750.47600                  -3086021.88440  22825752.70240
 -10927179.42900  22301457.74900                  -8391337.54540  22301460.74940
 96  9  5  1 47  0.0030000  0  6 14 15 18 22 25 29
 -15144646.03800  21525445.28000                 -11680516.30140  21525449.06540
   -486802.43800  23349358.77200                   9709188.16140  23349364.18740
   -720020.83700  25510231.01500                   -441961.49140  25510237.89740
  -7644793.03400  23493185.60800                  -5813693.69740  23493190.48340
  -4057559.69000  22843525.38200                  -3013235.68840  22843528.19440
 -10940973.68000  22298832.71800                  -8402086.30440  22298835.70640
 96  9  5  1 47 30.0030000  0  6 14 15 18 22 25 29
 -15161335.03700  21522269.44400                 -11693520.70140  21522273.15940
   -373723.94600  23370876.91300                   9797301.20540  23370882.24540
   -779967.80300  25498822.17900                   -488673.36740  25498828.33140
  -7705129.04300  23481703.92100                  -5860708.72140  23481709.26540
  -3963867.15400  22861354.43700                  -2940228.51640  22861356.95640
 -10954629.07400  22296234.42900                  -8412726.86240  22296237.54640
 96  9  5  1 48  0.0030000  0  6 14 15 18 22 25 29
 -15177634.22000  21519168.06200                 -11706221.35440  21519171.75340
   -260354.48000  23392450.96800                   9885641.00740  23392455.89040
   -839897.30900  25487418.60100
  -7765147.37200  23470282.93700                  -5907476.16940  23470288.59740
  -3869895.50700  22879236.43700                  -2867003.85640  22879239.63640
 -10968128.73200  22293665.32700                  -8423246.06540  22293668.11640
 96  9  5  1 48 30.0030000  0  6 14 15 18 22 25 29
 -15193528.86200  21516143.50700                 -11718606.77840  21516147.08140
   -146693.45500  23414079.64000                   9974207.98240  23414084.35140
   -899804.29100  25476017.57700
  -7824853.58000  23458921.14700                  -5954000.44040  23458926.24540
  -3775637.78000  22897173.03800                  -2793556.28940  22897176.24940
 -10981450.05800  22291130.54600                  -8433626.30540  22291133.44040
 96  9  5  1 49  0.0030000  0  6 14 15 18 22 25 29
 -15209017.33600  21513195.98300                 -11730675.70440  21513199.76940
    -32739.13300  23435763.59300                  10063003.50640  23435769.41740
   -959673.79000  25464626.47600
  -7884255.91900  23447617.79600                  -6000287.90740  23447622.10840
  -3681093.29200  22915164.48300                  -2719885.26340  22915167.36640
 -10994567.75500  22288634.36600                  -8443847.87740  22288637.01540
 96  9  5  1 49 30.0030000  0  6 14 15 18 22 25 29
 -15224094.60600  21510326.64700                 -11742424.20340  21510330.56240
     81499.26100  23457503.31900                  10152020.38340  23457509.09740
  -1019517.41100  25453238.13200                    -32639.12850  25453242.15140
  -7943370.76800  23436368.03800                  -6046351.35040  23436372.53840
  -3586270.93100  22933208.35100                  -2645997.71240  22933211.25740
 -11007481.20500  22286176.78800                  -8453910.29740  22286179.58940
 96  9  5  1 50  0.0030000  0  6 14 15 18 22 25 29
 -15238743.73400  21507538.99100                 -11753839.08740  21507542.77640
    196019.36400  23479296.17900                  10241256.77540  23479301.67540
  -1079328.23300  25441856.51500                    -79244.91540  25441859.16340
  -8002207.98700  23425171.69400                  -6092198.47340  23425176.55840
  -3491174.66100  22951304.59300                  -2571896.73040  22951307.37040
 -11020203.42600  22283756.04600                  -8463823.71440  22283758.89440
 96  9  5  1 50 30.0030000  0  6 14 15 18 22 25 29
 -15252955.40600  21504834.56200                 -11764913.10040  21504838.32340
    310818.79900  23501141.17100                  10330710.82240  23501146.91340
  -1139081.04600  25430484.42100                   -125805.49040  25430489.08540
  -8060767.58600  23414028.06200                  -6137829.27640  23414032.83140
  -3395804.83700  22969453.06200                  -2497582.58440  22969455.87440
 -11032759.37700  22281366.74100                  -8473607.55840  22281369.68340
 96  9  5  1 51  0.0030000  0  6 14 15 18 22 25 29
 -15266727.09400  21502213.71800                 -11775644.27540  21502217.87840
    425896.43400  23523039.89700                  10420381.65640  23523045.33540
  -1198774.69300  25419124.07700                   -172319.95940  25419130.35840
  -8119025.86300  23402941.70200                  -6183225.27840  23402947.08140
  -3300172.27500  22987651.55400                  -2423063.70440  22987654.14440
 -11045155.85600  22279007.42100                  -8483267.15240  22279010.40940
 96  9  5  1 51 30.0030000  0  6 14 15 18 22 25 29
 -15280047.88700  21499678.94400                 -11786024.09740  21499682.89440
    541246.77200  23544990.28000                  10510264.98940  23544995.42540
  -1258426.21200  25407773.67900                   -218801.56540  25407780.24140
  -8176974.76400  23391914.71000                  -6228380.19240  23391919.42140
  -3204273.06100  23005900.17900                  -2348337.04440  23005903.20240
 -11057402.56400  22276677.07700                  -8492810.03540  22276680.10140
 96  9  5  1 52  0.0030000  0  6 14 15 18 22 25 29
 -15292920.39300  21497229.72600                 -11796054.61440  21497233.45240
    656869.40700  23566993.16300                  10600360.49940  23566997.42940
  -1318035.88700  25396429.53800                   -265250.62940  25396437.15940
  -8234606.29500  23380947.68700                  -6273287.82740  23380952.66740
  -3108100.09500  23024201.42100                  -2273397.08040  23024204.52640
 -11069498.38500  22274375.36600                  -8502235.34340  22274378.33140
 96  9  5  1 52 30.0030000  0  6 14 15 18 22 25 29
 -15305352.77600  21494863.81900                 -11805742.17740  21494867.46440
    772758.51300  23589045.27200                  10690663.63040  23589050.73340
  -1377620.56600  25385090.94400                   -311680.18640  25385095.32740
  -8291919.45400  23370040.92900                  -6317947.37840  23370045.33540
  -3011670.25400  23042551.71000                  -2198256.95740  23042554.68740
 -11081428.65800  22272105.14700                  -8511531.65140  22272108.03040
 96  9  5  1 53  0.0030000  0  6 14 15 18 22 25 29
 -15317356.41800  21492579.71800                 -11815095.65540  21492583.32740
    888913.89400  23611149.30400                  10781174.25940  23611155.05840
  -1437200.52300  25373754.69400                   -358106.08240  25373758.73740
  -8348907.20400  23359196.56200                  -6362353.36240  23359201.48340
  -2914991.08800  23060949.06200                  -2122922.53140  23060952.33140
 -11093179.92700  22269868.92900                  -8520688.47940  22269871.94040
 96  9  5  1 53 30.0030000  0  6 14 15 18 22 25 29
 -15328942.12800  21490374.93700                 -11824123.47540  21490378.64040
   1005331.83500  23633302.51500                  10871889.47940  23633307.89440
  -1496776.43100  25362418.03800                   -404528.79540  25362422.73740
  -8405571.60500  23348414.35800                  -6406507.38140  23348419.01140
  -2818056.26500  23079394.99900                  -2047388.91840  23079398.18740
 -11104752.41300  22267666.72600                  -8529705.98440  22267669.42140
 96  9  5  1 54  0.0030000  0  6 14 15 18 22 25 29
 -15340120.45700  21488247.67100                 -11832833.85140  21488251.32740
   1121998.10700  23655504.19400                  10962798.19440  23655508.92940
  -1556343.50900  25351082.56900                   -450944.66340  25351087.30440
  -8461918.94600  23337691.30400                  -6450414.34440  23337695.76940
  -2720889.75300  23097885.21800                  -1971674.76040  23097888.27640
 -11116164.55800  22265495.07700                  -8538598.55140  22265497.89040
 96  9  5  1 54 30.0030000  0  6 14 15 18 22 25 29
 -15350873.00800  21486201.60100                 -11841212.46140  21486205.32740
   1238918.42300  23677753.29600                  11053904.86540  23677758.06540
  -1615881.23900  25339752.85800                   -497337.64240  25339756.85440
  -8517924.56700  23327033.64700                  -6494055.03840  23327038.00740
  -2623479.38700  23116421.81900                  -1895770.59340  23116425.07740
 -11127413.56300  22263354.53800                  -8547363.99040  22263357.36240
 96  9  5  1 55  0.0030000  0  6 14 15 18 22 25 29
 -15361184.79100  21484239.48300                 -11849247.61040  21484243.15140
   1356093.70800  23700050.69400                  11145210.22840  23700056.27240
  -1675371.70700  25328431.61600                   -543693.74240  25328436.60840
  -8573575.14300  23316443.64700                  -6537419.08940  23316448.30040
  -2525782.32000  23135012.72600                  -1819643.00240  23135015.91340
 -11138499.54200  22261245.08500                  -8556002.40040  22261247.71040
 96  9  5  1 55 30.0030000  0  6 14 15 18 22 25 29
 -15371039.40600  21482364.17900                 -11856926.52440  21482367.83540
   1473515.94800  23722395.25700                  11236708.01240  23722400.92940
  -1734800.59700  25317121.98300                   -590001.97740  25317126.82340
  -8628884.50900  23305918.04600                  -6580517.23440  23305923.01540
  -2427791.05100  23153659.97600                  -1743286.17740  23153663.45640
 -11149423.19900  22259166.12400                  -8564514.32440  22259168.64440
 96  9  5  1 56  0.0030000  0  6 14 15 18 22 25 29
 -15380425.16100  21480578.11600                 -11864240.09840  21480581.87840
   1591176.79000  23744785.71800                  11328391.71640  23744791.09740
  -1794171.55600  25305824.61600                   -636264.96140  25305830.68740
  -8683859.46100  23295457.64700                  -6623354.81140  23295461.73740
  -2329512.58400  23172361.90500                  -1666705.54440  23172365.04640
 -11160191.95700  22257116.99100                  -8572905.54940  22257119.68740
 96  9  5  1 56 30.0030000  0  6 14 15 18 22 25 29
 -15389350.90900  21478879.49900                 -11871195.21940  21478883.36640
   1709076.25400  23767221.02200                  11420261.37040  23767226.54240
  -1853489.12100  25294537.55400                   -682486.36540  25294540.78840
  -8738500.56400  23285059.64700                  -6665932.24440  23285064.24140
  -2230933.30700  23191120.90500                  -1589890.51940  23191124.62040
 -11170794.81400  22255099.22600                  -8581167.49440  22255102.06240
 96  9  5  1 57  0.0030000  0  6 14 15 18 22 25 29
 -15397815.07700  21477269.03800                 -11877790.67440  21477272.96440
   1827214.98300  23789702.35800                  11512317.46940  23789707.92540
  -1912756.18500  25283259.71800                   -728668.43240  25283266.10440
  -8792819.22600  23274722.95200                  -6708258.40940  23274727.35840
  -2132072.71800  23209933.53800                  -1512856.29840  23209936.99540
 -11181220.19000  22253115.21800                  -8589291.14040  22253118.03040
 96  9  5  1 57 30.0030000  0  6 14 15 18 22 25 29
 -15405833.81100  21475743.02200                 -11884039.03840  21475746.66740
   1945584.47000  23812227.58500                  11604553.37040  23812232.80040
  -1971983.90100  25271988.97600                   -774819.80440  25271994.30840
  -8846814.80300  23264447.46000                  -6750332.84640  23264452.26540
  -2032980.40700  23228790.04600                  -1435641.51540  23228793.56240
 -11191476.16600  22251163.50700                  -8597282.79440  22251166.39040
 96  9  5  1 58  0.0030000  0  6 14 15 18 22 25 29
 -15413413.06900  21474300.49900                 -11889944.94740  21474304.30840
   2064187.99800  23834796.67900                  11696971.64140  23834802.77240
  -2031178.68000  25260723.19400                   -820945.51840  25260731.23740
  -8900462.70500  23254239.07700                  -6792136.34140  23254243.84740
  -1933666.27800  23247688.72600                  -1358253.88740  23247691.65540
 -11201559.79100  22249244.87400                  -8605140.14440  22249247.69840
 96  9  5  1 58 30.0030000  0  6 14 15 18 22 25 29
 -15420552.30300  21472941.98300                 -11895507.98740  21472945.74540
   2183023.00600  23857410.70200                  11789570.27040  23857416.65540
  -2090340.13700  25249464.28800                   -867045.32640  25249469.99540
  -8953752.88200  23244098.38200                  -6833661.10240  23244102.90540
  -1834142.40200  23266627.31900                  -1280702.81540  23266630.84740
 -11211465.93500  22247359.71000                  -8612859.20340  22247362.67540
 96  9  5  1 59  0.0030000  0  6 14 15 18 22 25 29
 -15427245.29100  21471668.42100                 -11900723.29540  21471671.98340
   2302079.80600  23880066.95200                  11882341.72540  23880072.92940
  -2149476.34700  25238211.35800                   -913125.38540  25238215.44840
  -9006671.63800  23234027.86600                  -6874896.43940  23234032.72940
  -1734427.36400  23285602.60800                  -1203002.78440  23285606.13640
 -11221199.65700  22245507.46000                  -8620443.91040  22245510.34340
 96  9  5  1 59 30.0030000  0  6 14 15 18 22 25 29
 -15433494.70300  21470479.24100                 -11905592.96540  21470483.05040
   2421353.87900  23902763.71800                  11975282.51640  23902768.96840
  -2208591.70900  25226963.16300                   -959189.18940  25226967.35840
  -9059205.46600  23224030.62400                  -6915831.85240  23224035.24140
  -1634504.18700  23304617.27200                  -1125140.57340  23304620.55440
 -11230769.39200  22243686.45200                  -8627900.83140  22243689.26540
 96  9  5  2  0  0.0030000  0  6 14 15 18 22 25 29
 -15439282.22900  21469377.85100                 -11910102.72340  21469381.54240
   2540843.53000  23925501.92900                  12068391.28040  23925507.82340
  -2267683.74500  25215717.86600                  -1005234.86640  25215723.53840
  -9111360.30600  23214106.51500                  -6956471.94540  23214111.27240
  -1534355.96700  23323675.06200                  -1047102.99940  23323678.36640
 -11240178.55800  22241895.84300                  -8635232.62640  22241898.57340
 96  9  5  2  0 30.0030000  0  6 14 15 18 22 25 29
 -15444588.14500  21468368.21000                 -11914237.19540  21468371.76140
   2660552.69900  23948282.24100                  12161671.09240  23948287.67940
  -2326737.32800  25204479.65500                  -1051250.60640  25204484.13240
  -9163130.39000  23204255.19400                  -6996812.21540  23204259.83540
  -1433971.91100  23342777.29600                   -968881.64740  23342780.80040
 -11249422.57800  22240136.86600                  -8642435.74540  22240139.45640
 96  9  5  2  1  0.0030000  0  6 14 15 18 22 25 29
 -15449425.61900  21467447.42100                 -11918006.64940  21467451.17140
   2780470.58200  23971101.42100                  12255113.51640  23971106.22640
  -2385752.83700  25193249.15500                  -1097236.60940  25193255.70640
  -9214532.63100  23194472.81200                  -7036865.85340  23194477.90940
  -1333347.94800  23361925.61600                   -890473.36140  23361928.73340
 -11258506.70900  22238408.17900                  -8649514.27040  22238410.82740
 96  9  5  2  1 30.0030000  0  6 14 15 18 22 25 29
 -15453789.53300  21466617.11600                 -11921407.10040  21466620.87840
   2900596.47900  23993961.14700                  12348718.03040  23993966.84340
  -2444718.63300  25182028.68700                  -1143183.93940  25182032.85840
  -9265579.51800  23184759.20200                  -7076642.61640  23184763.59740
  -1232482.69900  23381119.62400                   -811877.05340  23381122.75340
 -11267432.46900  22236709.87400                  -8656469.39440  22236712.56940
 96  9  5  2  2  0.0030000  0  6 14 15 18 22 25 29
 -15457671.67100  21465878.39700                 -11924432.13240  21465882.01940
   3020920.21300  24016857.69400                  12442476.71540  24016863.28440
  -2503628.64400  25170819.05400                  -1189087.73040  25170822.79240
  -9316276.52800  23175112.10100                  -7116146.73040  23175116.21440
  -1131392.30700  23400356.62400                   -733105.30940  23400359.44840
 -11276192.67900  22235042.56900                  -8663295.51140  22235045.10140
 96  9  5  2  2 30.0030000  0  6 14 15 18 22 25 29
 -15461083.47700  21465229.07700                 -11927090.67940  21465232.65140
   3141441.37500  24039791.56900                  12536389.23140  24039797.48740
  -2562483.39600  25159619.09300                  -1234948.51540  25159622.96040
  -9366608.78200  23165534.42100                  -7155366.61440  23165538.53440
  -1030080.32500  23419635.65500                   -654160.90840  23419638.66740
 -11284772.93600  22233409.72600                  -8669981.41440  22233412.46840
 96  9  5  2  3  0.0030000  0  6 14 15 18 22 25 29
 -15464027.47900  21464669.22600                 -11929384.70240  21464672.60140
   3262158.92100  24062763.74100                  12630454.77740  24062769.54240
  -2621291.33500  25148428.28800                  -1280772.81740  25148434.01940
  -9416569.48000  23156026.89700                  -7194296.98240  23156031.71440
   -928548.18800  23438956.78800                   -575044.96340  23438959.98740
 -11293161.74500  22231813.27200                  -8676518.13440  22231815.78040
 96  9  5  2  3 30.0030000  0  6 14 15 18 22 25 29
 -15466488.85500  21464200.74900                 -11931302.65240  21464204.15940
   3383072.02500  24085773.10100                  12724672.71140  24085778.58540
  -2680057.21500  25137243.80400                  -1326564.36240  25137248.93740
  -9466140.42600  23146593.50700                  -7232923.64740  23146597.79640
   -826797.30100  23458319.16300                   -495758.55640  23458322.33940
 -11301360.34500  22230253.35800                  -8682906.63540  22230255.99540
 96  9  5  2  4  0.0030000  0  6 14 15 18 22 25 29
 -15468474.44300  21463822.48300                 -11932849.85440  21463826.08140
   3504175.03200  24108818.47600                  12819038.62240  24108823.66740
  -2738792.55000  25126067.49900                  -1372332.10140  25126073.21840
  -9515312.64900  23137236.74100                  -7271239.60740  23137241.01940
   -724830.27900  23477722.96000                   -416303.73940  23477726.33540
 -11309373.65400  22228728.42100                  -8689150.75140  22228731.12840
 96  9  5  2  4 30.0030000  0  6 14 15 18 22 25 29
 -15470001.67800  21463532.06200                 -11934039.90040  21463535.67140
   3625462.54100  24131898.30400                  12913548.28440  24131903.43740
  -2797506.87900  25114895.64700                  -1418083.45340  25114900.88640
  -9564096.05900  23127953.58500                  -7309252.61040  23127958.05040
   -622649.13200  23497166.88200                   -336682.06740  23497170.28040
 -11317216.71600  22227236.10100                  -8695262.21540  22227238.59740
 96  9  5  2  5  0.0030000  0  6 14 15 18 22 25 29
 -15471048.60900  21463333.14700                 -11934855.68440  21463336.61640
   3746930.02100  24155013.06900                  13008198.18840  24155018.87040
  -2856193.31100  25103728.21800                  -1463813.07440  25103732.13240
  -9612494.37700  23118743.02200                  -7346965.53540  23118747.94440
   -520251.80900  23516652.45200                   -256891.94140  23516655.79240
 -11324900.02000  22225774.07700                  -8701249.19240  22225776.72640
 96  9  5  2  5 30.0030000  0  6 14 15 18 22 25 29
 -15471605.01100  21463226.99900                 -11935289.23940  21463230.53840
   3868577.29100  24178161.87400                  13102988.18940  24178167.15940
  -2914834.47400  25092569.07700                  -1509507.44340  25092574.12840
  -9660506.30100  23109606.71800                  -7384377.37240  23109611.27640
   -417640.52800  23536179.15500                   -176935.09440  23536182.12040
 -11332428.29000  22224341.12400                  -8707115.35840  22224343.78440
 96  9  5  2  6  0.0030000  0  6 14 15 18 22 25 29
 -15471671.32100  21463214.56200                 -11935340.90340  21463218.04240
   3990404.67200  24201344.74100                  13197918.54840  24201350.08540
  -2973423.38500  25081419.86600                  -1555161.09640  25081425.09340
  -9708132.54500  23100544.15500                  -7421488.69240  23100548.21040
   -314825.80800  23555744.15500                    -96819.72940  23555747.20240
 -11339801.46200  22222937.98300                  -8712860.67440  22222940.84340
 96  9  5  2  6 30.0030000  0  6 14 15 18 22 25 29
 -15471241.33200  21463296.39000                 -11935005.84040  21463299.71840
   4112402.70900  24224560.39700                  13292981.86440  24224566.42140
  -3031954.91300  25070281.20200                  -1600769.99040  25070287.23740
  -9755368.69600  23091554.95200                  -7458296.03240  23091559.54640
   -211812.02100  23575346.86600                    -16549.23140  23575349.87840
 -11347019.91700  22221564.56200                  -8718485.43040  22221567.37440
 96  9  5  2  7  0.0040000  0  6 14 15 18 22 25 29
 -15470300.80100  21463475.04300                 -11934272.95340  21463478.78140
   4234576.26700  24247809.43400                  13388181.95540  24247815.41040
  -3090421.78000  25059155.36300                  -1646328.56440  25059161.70340
  -9802189.38200  23082645.52000                  -7494779.63540  23082650.09040
   -108591.25900  23594988.97300                     63882.53640  23594991.94940
 -11354078.29300  22220221.29300                  -8723985.44840  22220224.01240
 96  9  5  2  7 30.0040000  0  6 14 15 18 22 25 29
 -15468876.29500  21463746.07400                 -11933162.95040  21463749.84840
   4356916.07500  24271090.15200                  13483511.59340  24271095.56640
  -3148826.42700  25048041.06600                  -1691838.63340  25048046.52740
  -9848586.44400  23073815.99600                  -7530933.15740  23073821.18740
     -5180.81400  23614668.02000                    144462.10940  23614670.97340
 -11360971.87300  22218909.57400                  -8729357.05940  22218912.22340
 96  9  5  2  8  0.0040000  0  6 14 15 18 22 25 29
 -15466986.30300  21464105.90200                 -11931690.21840  21464109.53540
   4479419.37400  24294401.54300                  13578968.64140  24294407.22740
  -3207184.10800  25036936.09000                  -1737312.09840  25036941.52740
  -9894554.91000  23065068.73000                  -7566752.70740  23065073.47740
     98417.36200  23634381.53500                    225187.96440  23634384.89840
 -11367699.92100  22217629.11300                  -8734599.67440  22217631.84440
 96  9  5  2  8 30.0040000  0  6 14 15 18 22 25 29
 -15464632.92200  21464553.69900                 -11929856.41340  21464557.23840
   4602089.08400  24317744.89500                  13674555.34140  24317750.39140
  -3265496.20600  25025839.41800                  -1782750.06140  25025843.88340
  -9940087.26900  23056404.15200                  -7602232.42840  23056408.38340
    202213.14500  23654133.35500                    306067.78340  23654136.82440
 -11374244.98300  22216383.62900                  -8739699.71340  22216386.31240
 96  9  5  2  9  0.0040000  0  6 14 15 18 22 25 29
 -15461837.63000  21465085.45700                 -11927678.25840  21465089.23040
   4724916.82200  24341118.44900                  13770265.16740  24341123.87540
  -3323776.80700  25014748.52700                  -1828163.44640  25014753.14540
  -9985203.69900  23047819.05100                  -7637388.04740  23047823.37540
    306188.84500  23673918.69100                    387087.80540  23673921.80940
 -11380618.77700  22215170.77700                  -8744666.29340  22215173.41440
 96  9  5  2  9 30.0040000  0  6 14 15 18 22 25 29
 -15458604.29400  21465700.72300                 -11925158.77440  21465704.52040
   4847896.26100  24364520.08200                  13866093.25240  24364525.78940
  -3382034.41000  25003663.62900                  -1873558.93540  25003668.96140
 -10029916.65700  23039310.14500                  -7672229.27140  23039315.03140
    410337.58100  23693738.00400                    468242.67840  23693741.13340
 -11386818.71100  22213991.01200                  -8749497.39840  22213993.52040
 96  9  5  2 10  0.0040000  0  6 14 15 18 22 25 29
 -15454900.34300  21466405.94100                 -11922272.57940  21466409.49240
   4971024.36600  24387950.84000                  13962037.14340  24387957.07440
  -3440263.15800  24992583.04300                  -1918931.97740  24992586.81640
 -10074222.77900  23030879.00400                  -7706753.47440  23030883.96140
    514679.91000  23713593.36300                    549548.38240  23713596.69140
 -11392839.43500  22212845.20700                  -8754188.86340  22212847.71540
 96  9  5  2 10 30.0040000  0  6 14 15 18 22 25 29
 -15450685.70400  21467207.77700                 -11918988.44340  21467211.34040
   5094304.96300  24411410.16800                  14058099.85640  24411415.79340
  -3498452.20800  24981509.18400                  -1964274.00640  24981514.35240
 -10118114.47800  23022526.90200                  -7740954.75640  23022531.70740
    619226.65200  23733487.77000                    631013.37140  23733491.60240
 -11398678.00300  22211734.18400                  -8758738.38540  22211736.93740
 96  9  5  2 11  0.0040000  0  6 14 15 18 22 25 29
 -15445946.77800  21468109.41800                 -11915295.77440  21468113.20340
   5217730.46500  24434897.52000                  14154275.48340  24434903.71940
  -3556606.58300  24970443.14500                  -2009589.07440  24970448.20740
 -10161583.12300  23014254.77000                  -7774826.38040  23014259.01240
    723977.35800  23753421.41800                    712637.29840  23753424.62940
 -11404352.91400  22210654.05900                  -8763160.37940  22210656.77740
 96  9  5  2 11 30.0040000  0  6 14 15 18 22 25 29
 -15440665.73300  21469114.44100                 -11911180.67040  21469117.93440
   5341291.14600  24458410.77000                  14250556.44840  24458417.02740
  -3614736.15100  24959380.66000                  -2054884.79040  24959386.34440
 -10204620.41600  23006065.11300                  -7808361.90140  23006069.48440
    828931.39700  23773393.39500                    794419.65440  23773396.10240
 -11409860.37300  22209606.40200                  -8767451.89740  22209609.10940
 96  9  5  2 12  0.0040000  0  6 14 15 18 22 25 29
 -15434840.39900  21470223.03500                 -11906641.45340  21470226.62140
   5464983.47300  24481948.98000                  14346940.00940  24481954.41840
  -3672844.37500  24948324.00400                  -2100163.92640  24948328.19940
 -10247216.30400  22997959.77000                  -7841553.46940  22997964.09440
    934081.93300  23793403.14500                    876355.13840  23793406.07440
 -11415203.32100  22208589.61300                  -8771615.22240  22208592.33240
 96  9  5  2 12 30.0040000  0  6 14 15 18 22 25 29
 -15428481.84100  21471433.15200                 -11901686.73040  21471436.53940
   5588811.56900  24505512.51200                  14443429.35140  24505518.23040
  -3730926.36900  24937270.60500                  -2145422.57440  24937276.25440
 -10289361.57400  22989939.14500                  -7874393.89540  22989943.14140
   1039412.93100  23813447.14500                    958431.23540  23813450.22740
 -11420378.30300  22207604.79300                  -8775647.65940  22207607.41840
 96  9  5  2 13  0.0040000  0  6 14 15 18 22 25 29
 -15421618.87400  21472739.02000                 -11896338.96340  21472742.54740
   5712771.94500  24529101.24600                  14540021.78140  24529107.42240
  -3788981.57300  24926223.16000                  -2190660.31840  24926229.35940
 -10331061.31000  22982004.09800                  -7906887.14940  22982008.18740
   1144928.58900  23833525.93400                   1040651.23340  23833528.75840
 -11425374.63100  22206654.00400                  -8779540.89040  22206656.53540
 96  9  5  2 13 30.0040000  0  6 14 15 18 22 25 29
 -15414267.25300  21474137.82400                 -11890610.42240  21474141.43440
   5836855.17300  24552713.58200                  14636709.90240  24552719.00840
  -3847003.99500  24915181.53500                  -2235872.57940  24915186.05940
 -10372326.36600  22974151.90200                  -7939041.69940  22974155.77040
   1250615.03400  23853637.07400                   1123004.30440  23853639.93440
 -11430185.10500  22205738.46500                  -8783289.30140  22205741.13740
 96  9  5  2 14  0.0040000  0  6 14 15 18 22 25 29
 -15406437.05500  21475627.95700                 -11884508.97340  21475631.71940
   5961061.44400  24576349.24600                  14733493.92440  24576355.57440
  -3904977.25600  24904149.35500                  -2281046.50240  24904154.77040
 -10413157.04900  22966381.98800                  -7970857.77340  22966386.24240
   1356471.07300  23873780.62100                   1205489.52140  23873783.66840
 -11434811.81700  22204857.97300                  -8786894.52640  22204860.79740
 96  9  5  2 14 30.0040000  0  6 14 15 18 22 25 29
 -15398121.78100  21477210.52700                 -11878029.54240  21477214.14840
   6085389.59800  24600007.69100                  14830372.92540  24600013.46940
  -3962893.12200  24893129.39500                  -2326175.72240  24893135.25440
 -10453554.03600  22958694.52700                  -8002335.90940  22958698.72340
   1462495.66300  23893956.79300                   1288106.07940  23893960.28540
 -11439249.97100  22204013.52700                  -8790352.81940  22204016.21140
 96  9  5  2 15  0.0040000  0  6 14 15 18 22 25 29
 -15389315.20800  21478886.42600                 -11871167.27540  21478889.95340
   6209834.07300  24623689.25400                  14927342.55640  24623694.80940
  -4020752.87000  24882119.26200                  -2371261.17340  24882124.53540
 -10493509.91800  22951090.87100                  -8033470.32340  22951095.32440
   1568688.41400  23914165.19900                   1370853.65140  23914168.44540
 -11443500.55700  22203204.62100                  -8793664.95840  22203207.39840
 96  9  5  2 15 30.0040000  0  6 14 15 18 22 25 29
 -15380006.54400  21480657.70700                 -11863913.76440  21480661.28140
   6334387.20100  24647391.07400                  15024396.86340  24647397.20340
  -4078566.69200  24871115.54300                  -2416310.87540  24871120.73440
 -10533027.45400  22943571.36300                  -8064263.16940  22943574.86740
   1675027.39200  23934400.32400                   1453715.19740  23934403.52340
 -11447571.73800  22202429.89500                  -8796837.29240  22202432.61340
 96  9  5  2 16  0.0040000  0  6 14 15 18 22 25 29
 -15370184.39300  21482526.57400                 -11856260.13340  21482530.23040
   6459053.15600  24671114.10500                  15121539.08940  24671120.65640
  -4136329.21300  24860124.60500                  -2461320.57340  24860129.10540
 -10572097.32900  22936136.59000                  -8094707.19740  22936140.35240
   1781514.04300  23954663.97300                   1536691.78040  23954666.94940
 -11451452.00200  22201691.63700                  -8799860.87140  22201694.37940
 96  9  5  2 16 30.0040000  0  6 14 15 18 22 25 29
 -15359833.96000  21484496.30900                 -11848194.85840  21484500.08240
   6583832.75600  24694859.49600                  15218769.85340  24694866.03540
  -4194038.70100  24849142.82400                  -2506288.95540  24849149.49240
 -10610715.26200  22928787.77700                  -8124799.05540  22928792.11340
   1888157.88900  23974957.56600                   1619790.87540  23974961.04740
 -11455133.33200  22200991.07400                  -8802729.42740  22200993.61740
 96  9  5  2 17  0.0040000  0  6 14 15 18 22 25 29
 -15348962.94200  21486564.88700                 -11839723.92740  21486568.43740
   6708716.07700  24718623.52000                  15316081.44140  24718629.61340
  -4251694.65600  24838171.17600                  -2551215.64740  24838176.12140
 -10648888.23800  22921523.59800                  -8154544.19140  22921527.48840
   1994962.85100  23995281.90200                   1703015.51340  23995285.43040
 -11458615.99400  22200328.55100                  -8805443.17540  22200331.02340
 96  9  5  2 17 30.0040000  0  6 14 15 18 22 25 29
 -15337560.68700  21488734.62900                 -11830839.04740  21488738.21540
   6833708.38000  24742408.69100                  15413477.95440  24742415.38340
  -4309276.84700  24827213.52000                  -2596084.84840  24827219.05140
 -10686602.99200  22914346.43400                  -8183932.27140  22914350.53540
   2101945.56400  24015640.32400                   1786378.66540  24015643.54740
 -11461897.99600  22199703.66800                  -8808000.57040  22199706.24640
 96  9  5  2 18  0.0040000  0  6 14 15 18 22 25 29
 -15325636.09100  21491004.07400                 -11821547.15740  21491007.60240
   6958796.66600  24766212.04300                  15510949.25140  24766218.34840
  -4366788.84700  24816270.03500                  -2640899.33640  24816275.37940
 -10723850.62500  22907258.14500                  -8212956.36140  22907262.53940
   2209108.06800  24036032.20700                   1869881.88540  24036035.38340
 -11465002.55800  22199113.01200                  -8810419.69240  22199115.68440
 96  9  5  2 18 30.0040000  0  6 14 15 18 22 25 29
 -15313193.72200  21493371.73000                 -11811851.79940  21493375.14140
   7083973.67200  24790032.93400                  15608489.71440  24790039.70740
  -4424237.57500  24805337.57400                  -2685664.54440  24805341.80540
 -10760618.25700  22900261.80900                  -8241606.43840  22900265.84040
   2316456.47300  24056460.61300                   1953529.99340  24056463.78940
 -11467948.62300  22198552.09000                  -8812715.31140  22198554.85540
 96  9  5  2 19  0.0040000  0  6 14 15 18 22 25 29
 -15300247.66800  21495835.08200                 -11801763.96440  21495838.58640
   7209241.53700  24813871.35500                  15706100.92740  24813877.05140
  -4481620.10300  24794418.64500                  -2730378.13340  24794422.65240
 -10796875.55700  22893362.73000                  -8269858.83640  22893366.98440
   2423985.76700  24076923.04300                   2037319.04840  24076925.75040
 -11470743.89700  22198020.20700                  -8814893.42540  22198022.79740
 96  9  5  2 19 30.0040000  0  6 14 15 18 22 25 29
 -15286805.04200  21498393.24600                 -11791289.19140  21498396.87940
   7334595.69600  24837725.87100                  15803779.41040  24837731.02740
  -4538946.66600  24783509.64500                  -2775048.13740  24783514.27340
 -10832611.12100  22886561.98000                  -8297704.69940  22886565.48440
   2531681.88100  24097416.40200                   2121238.09240  24097419.59040
 -11473399.43300  22197515.09000                  -8816962.66140  22197517.68040
 96  9  5  2 20  0.0040000  0  6 14 15 18 22 25 29
 -15272874.42500  21501044.10500                 -11780434.16240  21501047.63340
   7460031.78800  24861594.71500                  15901521.71640  24861600.37540
  -4596223.93500  24772608.97300                  -2819679.71440  24772614.01240
 -10867830.70000  22879859.73000                  -8325148.49540  22879863.79740
   2639525.60700  24117938.19100                   2205272.15940  24117941.59040
 -11475904.33600  22197038.15200                  -8818914.51540  22197040.66040
 96  9  5  2 20 30.0040000  0  6 14 15 18 22 25 29
 -15258457.05400  21503787.73000                 -11769199.84740  21503791.39840
   7585553.68600  24885480.86300                  15999330.87740  24885487.16840
  -4653448.99600  24761720.29300                  -2864270.60840  24761725.30940
 -10902542.09900  22873254.77700                  -8352196.30840  22873258.70340
   2747504.25100  24138485.90200                   2289411.35240  24138488.84440
 -11478243.36900  22196593.29300                  -8820737.12040  22196596.04740
 96  9  5  2 21  0.0040000  0  6 14 15 18 22 25 29
 -15243557.39200  21506622.97300                 -11757589.72140  21506626.54740
   7711154.27000  24909381.84000                  16097201.37340  24909387.68740
  -4710627.08700  24750839.01200                  -2908824.93640  24750844.62540
 -10936777.94500  22866739.93400                  -8378873.55340  22866743.71940
   2855595.14000  24159055.06600                   2373638.02340  24159057.85540
 -11480405.48200  22196181.59800                  -8822421.87040  22196184.49240
 96  9  5  2 21 30.0040000  0  6 14 15 18 22 25 29
 -15228145.90900  21509555.85500                 -11745580.76740  21509559.28940
   7836837.78900  24933299.00400                  16195136.49440  24933304.13740
  -4767750.55600  24739968.61300                  -2953336.69340  24739973.40640
 -10970556.39800  22860311.92600                  -8405194.38840  22860315.74640
   2963792.63200  24179644.22300                   2457947.75940  24179646.91840
 -11482368.95300  22195808.09800                  -8823951.83740  22195811.01640
 96  9  5  2 22  0.0040000  0  6 14 15 18 22 25 29
 -15212230.21800  21512584.45700                 -11733178.92740  21512588.05540
   7962582.29900  24957227.04300                  16293119.13540  24957232.92640
  -4824846.00700  24729103.80100                  -2997826.56840  24729109.19140
 -11003901.88800  22853966.53500                  -8431177.84640  22853970.62540
   3072078.20700  24200250.77700                   2542326.13140  24200253.33240
 -11484149.63500  22195469.21500                  -8825339.37140  22195472.06240
 96  9  5  2 22 30.0040000  0  6 14 15 18 22 25 29
 -15195780.98300  21515714.35500                 -11720361.34040  21515717.95340
   8088396.81800  24981168.61300                  16391156.34040  24981174.55540
  -4881898.52800  24718246.87100                  -3042283.03840  24718252.40240
 -11036800.14100  22847706.23800                  -8456812.81440  22847710.17640
   3180480.00700  24220878.96500                   2626795.06740  24220881.01640
 -11485744.44000  22195165.73800                  -8826582.06240  22195168.41040
 96  9  5  2 23  0.0040000  0  6 14 15 18 22 25 29
 -15178775.16600  21518950.57400                 -11707110.05240  21518954.23040
   8214279.79200  25005124.03500                  16489246.84040  25005129.61340
  -4938901.35700  24707400.66000                  -3086700.75740  24707404.92640
 -11069231.74400  22841534.27700                  -8482084.16340  22841538.73040
   3289017.39500  24241532.77000                   2711369.65940  24241535.54740
 -11487150.57800  22194897.98800                  -8827677.73840  22194900.63740
 96  9  5  2 23 30.0040000  0  6 14 15 18 22 25 29
 -15161217.18200  21522291.65200                 -11693428.50040  21522295.13340
   8340222.94600  25029090.95700                  16587384.28140  25029096.53540
  -4995859.28900  24696561.80100                  -3131083.52940  24696566.81640
 -11101174.88900  22835455.62900                  -8506974.90040  22835459.69540
   3397705.90100  24262215.00400                   2796061.99140  24262217.87540
 -11488378.89800  22194664.66000                  -8828634.86340  22194667.06240
 96  9  5  2 24  0.0040000  0  6 14 15 18 22 25 29
 -15143102.43800  21525738.88700                 -11679313.11840  21525742.27340
   8466229.06000  25053067.67600                  16685570.75440  25053072.52740
  -5052759.41500  24685733.76200                  -3175421.20240  24685739.48040
 -11132610.86400  22829473.41800                  -8531470.42740  22829477.69540
   3506576.26500  24282932.41800                   2880896.04040  24282935.13740
 -11489419.22900  22194466.47300                  -8829445.50040  22194468.88740
 96  9  5  2 24 30.0040000  0  6 14 15 18 22 25 29
 -15124431.22600  21529291.77000                 -11664764.11940  21529295.28540
   8592293.71100  25077056.57400                  16783802.86940  25077062.64540
  -5109589.44600  24674918.66800                  -3219704.30940  24674922.64140
 -11163534.65800  22823589.06600                  -8555566.85540  22823593.16840
   3615619.56300  24303682.84000                   2965864.86940  24303685.52340
 -11490262.91200  22194306.13700                  -8830102.89940  22194308.66840
 96  9  5  2 25  0.0040000  0  6 14 15 18 22 25 29
 -15105208.21600  21532949.66000                 -11649785.15140  21532953.21140
   8718416.29300  25101057.34800                  16882080.13740  25101064.94540
  -5166360.82500  24664115.16000                  -3263941.68640  24664120.42240
 -11193934.99900  22817803.94100                  -8579255.39740  22817807.92640
   3724826.56200  24324464.36300                   3050961.22740  24324467.89140
 -11490892.01300  22194186.23000                  -8830593.09940  22194188.71540
 96  9  5  2 25 30.0040000  0  6 14 15 18 22 25 29
 -15085442.30600  21536711.16000                 -11634383.13740  21536714.87540
   8844590.64100  25125068.41000                  16980397.68840  25125075.03140
  -5223076.57400  24653323.66800                  -3308135.72540  24653328.67240
 -11223821.57700  22812116.88700                  -8602543.60540  22812120.83640
   3834188.00700  24345274.79300                   3136177.94140  24345277.93440
 -11491308.54300  22194106.89500                  -8830917.65540  22194109.30940
 96  9  5  2 26  0.0040000  0  6 14 15 18 22 25 29
 -15065120.52300  21540578.38700                 -11618547.98040  21540581.97340
   8970809.45400  25149086.82400                  17078749.94940  25149093.81240
  -5279745.50900  24642539.18400                  -3352293.30640  24642543.12140
 -11253204.56300  22806525.31600                  -8625439.40740  22806529.23040
   3943684.29800  24366111.12900                   3221499.73740  24366114.41040
 -11491527.77100  22194065.28500                  -8831088.48040  22194067.82840
 96  9  5  2 26 30.0040000  0  6 14 15 18 22 25 29
 -15044248.25500  21544550.07400                 -11602283.87440  21544553.74240
   9097070.53000  25173113.91800                  17177135.14740  25173119.78940
  -5336374.42100  24631762.80100                  -3396419.67940  24631768.13340
 -11282081.35900  22801030.41000                  -8647940.76140  22801034.31240
   4053297.33600  24386970.62100                   3306912.48640  24386973.44540
 -11491560.59500  22194058.49600                  -8831114.04840  22194061.27340
 96  9  5  2 27  0.0040000  0  6 14 15 18 22 25 29
 -15022830.14300  21548625.77700                 -11585594.43340  21548629.45740
   9223373.23300  25197148.46500                  17275552.73440  25197154.06640
  -5392960.30900  24620995.73000                  -3440512.53640  24621001.08640
 -11310462.46100  22795629.66800                  -8670055.87540  22795633.35940
   4163035.97200  24407852.37900                   3392423.12040  24407854.93440
 -11491418.03300  22194085.74600                  -8831002.95540  22194088.46540
 96  9  5  2 27 30.0040000  0  6 14 15 18 22 25 29
 -15000873.48000  21552803.99600                 -11568485.34240  21552807.75840
   9349712.43000  25221190.13700                  17373998.77540  25221196.52340
  -5449490.53900  24610237.31600                  -3484562.05540  24610242.90640
 -11338355.34300  22790321.52000                  -8691790.55740  22790325.37540
   4272882.84300  24428755.83200                   3478018.09240  24428758.84440
 -11491114.68500  22194143.56600                  -8830766.57640  22194146.43740
 96  9  5  2 28  0.0040000  0  6 14 15 18 22 25 29
 -14978394.14100  21557081.75400                 -11550968.97640  21557085.55140
   9476086.24100  25245238.40200                  17472471.77440  25245244.94140
  -5505961.89700  24599491.93400                  -3528565.66540  24599496.64540
 -11365754.69900  22785107.50400                  -8713140.67340  22785111.55940
   4382827.69500  24449677.86300                   3563689.41940  24449681.21540
 -11490650.64500  22194232.30900                  -8830404.98040  22194234.99240
 96  9  5  2 28 30.0040000  0  7  4 14 15 18 22 25 29
                  26159962.80900
 -14955424.06900  21561452.91000                 -11533070.21640  21561456.50840
   9602489.94400  25269290.94900                  17570968.06840  25269299.21540
  -5562360.34000  24588758.99600                  -3572512.44540  24588763.54340
 -11392648.24700  22779990.05100                  -8734096.65140  22779993.87140
   4492860.96600  24470616.40200                   3649429.63240  24470619.13340
 -11490012.95900  22194353.56600                  -8829908.07540  22194356.07440
 96  9  5  2 29  0.0040000  0  7  4 14 15 18 22 25 29
    -21290.54700  26155771.40200
 -14931957.97900  21565918.38700                 -11514784.95740  21565921.99640
   9728922.78700  25293351.38700                  17669487.06940  25293357.41040
  -5618684.47900  24578040.94100                  -3616401.33940  24578045.34840
 -11419021.15400  22774971.34000                  -8754646.93940  22774975.21940
   4602993.67700  24491574.15200                   3735247.31540  24491576.42640
 -11489194.32800  22194509.42600                  -8829270.17640  22194511.91040
 96  9  5  2 29 30.0040000  0  7  4 14 15 18 22 25 29
    -42827.25700  26151673.95700
 -14907990.14700  21570479.31600                 -11496108.72440  21570482.96140
   9855385.41100  25317416.84800                  17768029.25640  25317423.34040
  -5674933.66300  24567336.69900                  -3660231.83640  24567342.18440
 -11444842.40400  22770057.59000                  -8774767.35940  22770061.93740
   4713240.03100  24512553.51200                   3821153.56340  24512556.50040
 -11488182.80500  22194701.88700                  -8828481.96340  22194704.37140
 96  9  5  2 30  0.0040000  0  7  4 14 15 18 22 25 29
    -63877.51600  26147668.24600                     -7062.06550  26147673.63740
 -14883526.22200  21575134.61300                 -11477045.92940  21575138.15240
   9981870.08100  25341486.41800                  17866588.61740  25341493.26240
  -5731106.21600  24556648.02700                  -3704002.63740  24556652.59840
 -11470112.39100  22765248.84800                  -8794458.23740  22765253.18440
   4823614.51900  24533557.08200                   3907159.67240  24533560.68040
 -11486972.25700  22194931.84000                  -8827538.66640  22194934.32440
 96  9  5  2 30 30.0040000  0  7  4 14 15 18 22 25 29
    -84464.81900  26143751.50400                    -23104.09740  26143754.87940
 -14858537.08600  21579889.97300                 -11457573.87340  21579893.57040
  10108373.43800  25365559.80100                  17965162.60440  25365567.77340
  -5787210.42600  24545971.59800                  -3747720.14440  24545976.84840
 -11494831.74000  22760545.37900                  -8813720.03040  22760549.17640
   4934128.52600  24554587.42600                   3993274.48940  24554590.76640
 -11485563.25400  22195199.98800                  -8826440.72740  22195202.48440
 96  9  5  2 31  0.0040000  0  7  4 14 15 18 22 25 29
   -104598.38000  26139919.51200                    -38792.53640  26139923.48440
 -14832990.95300  21584751.30900                 -11437667.80240  21584754.63740
  10234893.30900  25389635.72300                  18063749.39540  25389641.40640
  -5843250.08900  24535307.79300                  -3791387.39140  24535312.46940
 -11519015.75600  22755943.32400                  -8832564.68340  22755947.01640
   5044790.40600  24575644.65200                   4079504.52940  24575646.79740
 -11483955.13100  22195506.09800                  -8825187.63640  22195508.74640
 96  9  5  2 31 30.0040000  0  7  4 14 15 18 22 25 29
   -124276.34600  26136174.95700                    -54126.01340  26136178.53140
 -14806891.38200  21589717.73800                 -11417330.48240  21589721.33640
  10361425.36800  25413713.53500                  18162345.69140  25413720.46540
  -5899211.63600  24524658.91800                  -3834993.70840  24524663.72340
 -11542680.48800  22751439.84000                  -8851004.69640  22751443.91840
   5155583.19200  24596727.94900                   4165836.56440  24596730.85540
 -11482149.20700  22195849.73800                  -8823780.41340  22195852.39840
 96  9  5  2 32  0.0040000  0  7  4 14 15 18 22 25 29
   -143498.33900  26132516.38700                    -69104.18540  26132521.87140
 -14780233.66900  21594790.48800                 -11396558.24740  21594793.95740
  10487967.24600  25437794.28500                  18260949.67940  25437801.25040
  -5955103.25000  24514022.69100                  -3878545.55540  24514027.25040
 -11565828.15000  22747034.99600                  -8869041.81140  22747038.88740
   5266483.33600  24617831.98800                   4252252.25240  24617834.85940
 -11480144.84200  22196231.17600                  -8822218.56140  22196233.98840
 96  9  5  2 32 30.0040000  0  7  4 14 15 18 22 25 29
   -162250.96900  26128948.12900                    -83716.62440  26128951.99640
 -14753003.39800  21599971.99600                 -11375339.84940  21599975.78140
  10614514.78400  25461875.04300                  18359558.07040  25461881.51240
  -6010935.31500  24503398.41000                  -3922050.98140  24503403.21540
 -11588451.25900  22742729.72300                  -8886670.17040  22742733.80140
   5377474.76300  24638952.59800                   4338739.05840  24638956.28940
 -11477943.49900  22196650.07400                  -8820503.21240  22196652.79340
 96  9  5  2 33  0.0040000  0  7  4 14 15 18 22 25 29
   -180511.15800  26125473.73800                    -97945.27740  26125479.22340
 -14725224.08600  21605258.48000                 -11353693.64140  21605262.18440
  10741068.03200  25485956.84800                  18458170.85640  25485963.43440
  -6066698.43600  24492786.76200                  -3965502.69140  24492791.37940
 -11610537.67500  22738526.62900                  -8903880.33140  22738530.63740
   5488552.70600  24660089.66800                   4425293.29640  24660093.02040
 -11475532.90600  22197108.77700                  -8818624.81340  22197111.52040
 96  9  5  2 33 30.0040000  0  7  4 14 15 18 22 25 29
   -198273.56100  26122093.77700                   -111786.10340  26122097.49240
 -14696911.62400  21610646.15200                 -11331631.98940  21610649.70340
  10867622.94700  25510039.23000                  18556784.97740  25510045.86340
  -6122406.54900  24482185.59800                  -4008911.52640  24482190.29740
 -11632065.68700  22734429.79300                  -8920655.37740  22734433.95340
   5599706.87800  24681241.75400                   4511906.92740  24681246.12540
 -11472920.43100  22197605.85500                  -8816589.10140  22197608.41040
 96  9  5  2 34  0.0040000  0  7  4 14 15 18 22 25 29
   -215544.32700  26118807.12100                   -125243.80540  26118811.22340
 -14668047.65500  21616138.81600                 -11309140.58940  21616142.57840
  10994174.25800  25534121.54300                  18655396.28040  25534128.89540
  -6178071.57400  24471593.40200                  -4052286.78640  24471597.55140
 -11653031.10100  22730440.76200                  -8936992.02440  22730444.75840
   5710946.12200  24702410.79300                   4598586.85940  24702415.51640
 -11470108.72100  22198140.91000                  -8814398.14740  22198143.62940
 96  9  5  2 34 30.0040000  0  7  4 14 15 18 22 25 29
   -232319.04400  26115615.15200                   -138314.99340  26115620.21540
 -14638619.26300  21621738.77000                 -11286209.37340  21621742.62540
  11120724.57400  25558203.69100                  18754006.81640  25558208.88340
  -6233673.48400  24461013.05100                  -4095612.86140  24461016.62540
 -11673444.96600  22726555.74600                  -8952898.89740  22726559.49640
   5822290.48800  24723598.44100                   4685348.68640  24723601.74640
 -11467095.58100  22198714.44100                  -8812050.22740  22198717.07840
 96  9  5  2 35  0.0040000  0  7  4 14 15 18 22 25 29
   -248604.44200  26112516.40200                   -151004.89940  26112520.85540
 -14608635.78500  21627444.73000                 -11262845.62640  21627448.30540
  11247269.39000  25582284.52000                  18852613.09540  25582289.60540
  -6289219.78000  24450442.58200                  -4138895.60440  24450446.08640
 -11693311.45400  22722775.49600                  -8968379.24640  22722779.22340
   5933737.33600  24744805.10500                   4772190.39340  24744807.94140
 -11463896.90900  22199323.28500                  -8809557.74040  22199325.55940
 96  9  5  2 35 30.0040000  0  7  4 14 15 18 22 25 29
   -264401.84100  26109509.62900                   -163314.53740  26109513.21540
 -14578084.80800  21633258.09000                 -11239039.67240  21633261.68740
  11373805.46400  25606363.91800                  18951212.53240  25606370.66840
  -6344703.15900  24439883.81600                  -4182129.31340  24439887.52040
 -11712637.09100  22719097.82400                  -8983438.15040  22719101.55140
   6045286.18500  24766033.16800                   4859111.54240  24766036.76640
 -11460522.88000  22199965.09000                  -8806928.60840  22199967.43440
 96  9  5  2 36  0.0040000  0  7  4 14 15 18 22 25 29
   -279713.78300  26106595.56600                   -175245.87740  26106597.59440
 -14546963.44400  21639180.57400                 -11214789.26140  21639184.20740
  11500328.63100  25630440.66800                  19049801.84840  25630447.10240
  -6400113.57100  24429340.00400                  -4225306.19140  24429344.49240
 -11731435.30900  22715520.54300                  -8998086.07540  22715524.55140
   6156947.80000  24787282.59800                   4946120.60040  24787284.15640
 -11456965.93000  22200641.87100                  -8804156.93840  22200644.37940
 96  9  5  2 36 30.0040000  0  7  4 14 15 18 22 25 29
   -294522.30200  26103777.43400                   -186785.00440  26103780.84440
 -14515288.05100  21645208.13700                 -11190107.13540  21645211.60540
  11626844.78800  25654515.41800                  19148385.79940  25654521.23040
  -6455450.70500  24418809.41800                  -4268425.96040  24418813.50840
 -11749690.57100  22712046.61300                  -9012310.92140  22712050.55140
   6268716.23100  24808550.70700                   5033212.90040  24808553.13340
 -11453211.51200  22201356.26200                  -8801231.39740  22201358.77040
 96  9  5  2 37  0.0040000  0  7  4 14 15 18 22 25 29
   -308840.27600  26101052.66000                   -197941.80740  26101057.69940
 -14483084.57200  21651336.44900                 -11165013.51640  21651339.83640
  11753336.99200  25678585.51200                  19246951.05640  25678591.25440
  -6510736.86400  24408288.96500                  -4311506.02940  24408293.09040
 -11767403.68700  22708675.87100                  -9026113.32440  22708679.66840
   6380571.89300  24829836.87100                   5120373.12340  24829839.03940
 -11449265.90000  22202106.97300                  -8798156.88340  22202109.46940
 96  9  5  2 37 30.0040000  0  7  4 14 15 18 22 25 29
   -322650.56400  26098425.17600                   -208703.05240  26098430.21540
 -14450340.36900  21657567.30900                 -11139498.55440  21657570.63740
  11879810.25100  25702652.59000                  19345501.52640  25702658.33240
  -6565949.54000  24397781.80100                  -4354528.84540  24397786.35940
 -11784571.45800  22705409.24600                  -9039490.77540  22705412.98440
   6492536.75800  24851143.33200                   5207618.47040  24851145.74640
 -11445105.89300  22202898.49600                  -8794915.29740  22202901.15640
 96  9  5  2 38  0.0040000  0  7  4 14 15 18 22 25 29
   -335961.04300  26095892.01200                   -219074.82740  26095894.66040
 -14417052.19200  21663901.97300                 -11113559.71340  21663905.25440
  12006261.82000  25726716.60500                  19444035.12340  25726723.37940
  -6621101.63500  24387286.87900                  -4397504.45340  24387290.59440
 -11801187.95700  22702247.03500                  -9052438.66640  22702250.55140
   6604604.08900  24872468.11300                   5294943.65140  24872469.47340
 -11440726.62700  22203731.91800                  -8791502.87140  22203734.53140
 96  9  5  2 38 30.0040000  0  7  4 14 15 18 22 25 29
   -348775.08700  26093453.94100                   -229059.80840  26093456.12140
 -14383219.44200  21670339.73000                 -11087196.53340  21670343.28140
  12132685.27000  25750773.58200                  19542546.74640  25750780.71140
  -6676191.29500  24376803.37900                  -4440431.40540  24376806.87140
 -11817257.42800  22699189.36300                  -9064960.29140  22699192.92640
   6716757.37400  24893810.08200                   5382335.82840  24893813.32840
 -11436135.31700  22204605.91000                  -8787925.21740  22204608.34840
 96  9  5  2 39  0.0040000  0  7  4 14 15 18 22 25 29
   -361091.97000  26091109.60500                   -238657.35140  26091112.61740
 -14348826.78600  21676884.43400                 -11060397.06240  21676888.07840
  12259082.01500  25774826.77700                  19641037.62140  25774833.91840
  -6731195.08500  24366337.16800                  -4483291.46740  24366340.07440
 -11832775.17300  22696236.19100                  -9077052.00640  22696239.76640
   6829007.79200  24915170.41800                   5469803.69440  24915174.25040
 -11431335.79300  22205519.03500                  -8784185.32040  22205521.67240
 96  9  5  2 39 30.0040000  0  7  4 14 15 18 22 25 29
   -372912.96600  26088860.30900                   -247868.49640  26088864.98440
 -14313870.05800  21683536.62900                 -11033158.04740  21683540.23840
  12385450.68800  25798874.41800                  19739506.55040  25798882.36740
  -6786108.89800  24355887.66800                  -4526081.39540  24355891.10240
 -11847731.74100  22693389.93400                  -9088706.44140  22693393.75440
   6941340.31300  24936546.65200                   5557335.50940  24936550.90640
 -11426327.16200  22206472.12100                  -8780282.47940  22206474.77040
 96  9  5  2 40  0.0040000  0  7  4 14 15 18 22 25 29
   -384250.39700  26086703.26200                   -256702.84640  26086706.74240
 -14278356.48500  21690294.43400                 -11005485.13440  21690297.97340
  12511788.29400  25822915.37900                  19837951.38340  25822920.62940
  -6840935.76600  24345453.76200                  -4568803.60840  24345457.44140
 -11862115.47000  22690652.87100                  -9099914.51640  22690656.87940
   7053745.39700  24957936.61300                   5644923.87940  24957939.33240
 -11421111.56900  22207464.56600                  -8776218.37640  22207467.09840
 96  9  5  2 40 30.0040000  0  7  4 14 15 18 22 25 29
   -395096.32700  26084639.20700                   -265154.22140  26084643.00440
 -14242311.24200  21697153.66000                 -10977397.93140  21697157.30540
  12638081.73200  25846947.80900                  19936361.72040  25846953.57440
  -6895677.51400  24335037.00400                  -4611459.46740  24335041.14140
 -11875930.13100  22688024.23000                  -9110679.15740  22688027.74640
   7166208.59700  24979337.39500                   5732557.53040  24979340.74640
 -11415699.51100  22208494.52700                  -8772001.18240  22208497.03540
 96  9  5  2 41  0.0050000  0  7  4 14 15 18 22 25 29
   -405438.91100  26082670.51700                   -273213.35740  26082673.39940
 -14205743.99700  21704112.16500                 -10948903.97740  21704115.75140
  12764338.99700  25870974.30600                  20034743.86340  25870981.72840
  -6950339.91000  24324634.49300                  -4654053.51340  24324638.06740
 -11889150.50700  22685507.92300                  -9120980.70940  22685511.49740
   7278743.21000  25000752.86800                   5820246.87240  25000755.96240
 -11410080.08600  22209563.98500                  -8767622.40140  22209566.43540
 96  9  5  2 41 30.0050000  0  7  4 14 15 18 22 25 29
   -415270.11200  26080800.18800                   -280874.03740  26080804.94640
 -14168652.46100  21711170.68100                 -10920001.47640  21711174.34940
  12890550.54400  25894991.38400                  20133090.40340  25894996.31740
  -7004922.74700  24314247.89200                  -4696585.54940  24314251.43140
 -11901763.30300  22683108.01700                  -9130808.84240  22683111.57940
   7391337.67500  25022178.47000                   5907982.81740  25022181.72840
 -11404249.99200  22210673.58700                  -8763079.45840  22210675.94240
 96  9  5  2 42  0.0050000  0  7  4 14 15 18 22 25 29
   -424576.68600  26079029.21200                   -288125.87940  26079032.66940
 -14131028.81500  21718330.01700                 -10890684.34940  21718333.89540
  13016716.45800  25919001.49300                  20231401.42240  25919008.35340
  -7059420.17700  24303877.63400                  -4739051.04040  24303881.47840
 -11913777.11900  22680821.78200                  -9140170.21240  22680825.68540
   7504004.75700  25043618.24300                   5995775.33940  25043621.06740
 -11398220.50100  22211820.68800                  -8758381.14240  22211823.12640
 96  9  5  2 42 30.0050000  0  7  4 14 15 18 22 25 29
   -433348.13500  26077360.02400                   -294960.77240  26077362.95440
 -14092865.55400  21725592.30600                 -10860946.74840  21725595.99740
  13142831.10700  25942999.59500                  20329672.44340  25943008.39940
  -7113834.34000  24293523.10300                  -4781451.65140  24293526.52440
 -11925201.64700  22678648.17300                  -9149072.41440  22678651.03240
   7616731.45900  25065069.63400                   6083614.33440  25065073.16140
 -11391994.55800  22213005.43100                  -8753529.75740  22213007.70440
 96  9  5  2 43  0.0050000  0  7  4 14 15 18 22 25 29
   -441597.28500  26075790.37600                   -301388.67940  26075793.58740
 -14054133.39300  21732962.92300                 -10830765.84840  21732966.55640
  13268892.11000  25966988.00100                  20427901.72640  25966997.26340
  -7168164.10000  24283184.12600                  -4823786.50440  24283187.47840
 -11936054.36600  22676582.46200                  -9157529.03940  22676586.16540
   7729528.59700  25086533.78200                   6171508.18940  25086536.59540
 -11385572.54600  22214227.61000                  -8748525.58740  22214229.91940
 96  9  5  2 43 30.0050000  0  7  4 14 15 18 22 25 29
   -449326.82200  26074319.89200                   -307411.67340  26074325.49340
 -14014803.17900  21740447.14900                 -10800118.93240  21740450.73540
  13394899.49900  25990966.14200                  20526089.17940  25990973.49340
  -7222400.40200  24272863.22000                  -4866048.51740  24272866.61840
 -11946350.42400  22674623.49300                  -9165551.91540  22674627.02040
   7842402.66000  25108012.77400                   6259462.00540  25108015.89240
 -11378953.76100  22215487.05600                  -8743368.08340  22215489.58740
 96  9  5  2 44  0.0050000  0  7  4 14 15 18 22 25 29
   -456547.25300  26072946.29000                   -313037.97440  26072951.73940
 -13974875.22800  21748045.28200                 -10769006.24540  21748048.91540
  13520848.93600  26014933.39900                  20624231.52540  26014940.25940
  -7276556.10200  24262557.52400                  -4908247.71240  24262561.21640
 -11956104.65000  22672767.43100                  -9173152.57940  22672771.14540
   7955356.67900  25129507.97000                   6347478.12640  25129511.20440
 -11372119.87400  22216787.44600                  -8738042.97240  22216790.11840
 96  9  5  2 44 30.0050000  0  7  4 14 15 18 22 25 29
   -463273.59000  26071665.63400                   -318279.27640  26071671.28240
 -13934362.72800  21755754.47800                 -10737438.06240  21755758.12240
  13646735.89300  26038890.23500                  20722325.09940  26038897.13040
  -7330643.91700  24252264.78200                  -4950394.04840  24252268.49740
 -11965311.83100  22671015.18800                  -9180326.96640  22671018.50540
   8068395.91700  25151018.20400                   6435560.66840  25151021.60340
 -11365062.69000  22218130.42300                  -8732543.86540  22218133.03640
 96  9  5  2 45  0.0050000  0  7  4 14 15 18 22 25 29
   -469522.09800  26070476.47800                   -323148.22940  26070479.64240
 -13893278.64600  21763572.58700                 -10705424.49840  21763576.19640
  13772556.97200  26062832.60300                  20820367.40540  26062839.90740
  -7384663.89800  24241985.94600                  -4992487.49740  24241989.87240
 -11973958.32200  22669369.64200                  -9187064.47240  22669373.26340
   8181526.44700  25172546.15700                   6523714.32840  25172549.12240
 -11357779.44800  22219516.39900                  -8726868.60640  22219518.94240
 96  9  5  2 45 30.0050000  0  7  4 14 15 18 22 25 29
   -475288.60200  26069378.72000                   -327641.63240  26069381.11040
 -13851649.02700  21771494.58700                 -10672985.83640  21771498.14940
  13898310.35400  26086762.95400                  20918356.90940  26086768.31040
  -7438608.35300  24231720.32900                  -5034522.10840  24231724.78240
 -11982013.75000  22667836.75900                  -9193341.40540  22667840.73140
   8294737.16600  25194089.48500                   6611930.47540  25194091.46640
 -11350263.45700  22220946.42300                  -8721011.98240  22220949.02440
 96  9  5  2 46  0.0050000  0  7  4 14 15 18 22 25 29
   -480567.01700  26068373.79800                   -331754.68240  26068377.93540
 -13809501.59100  21779514.88400                 -10640143.67940  21779518.47040
  14023992.30200  26110679.43800                  21016290.72740  26110685.19240
  -7492471.13200  24221470.37600                  -5076493.06840  24221474.75940
 -11989468.12500  22666418.38400                  -9199149.97340  22666422.08740
   8408007.80500  25215643.97000                   6700193.33440  25215647.93140
 -11342517.52500  22222420.46200                  -8714976.18340  22222423.20440
 96  9  5  2 46 30.0050000  0  7  4 14 15 18 22 25 29
   -485351.95500  26067463.63400                   -335483.19640  26067468.77840
 -13766846.33800  21787631.75900                 -10606905.82140  21787635.50940
  14149600.48200  26134581.80600                  21114167.15940  26134587.92340
  -7546241.33800  24211238.25100                  -5118391.89140  24211242.52840
 -11996312.72600  22665115.93800                  -9204483.40340  22665119.19640
   8521333.28100  25237208.32900                   6788498.88740  25237211.68140
 -11334567.90100  22223933.18800                  -8708781.66240  22223935.81340
 96  9  5  2 47  0.0050000  0  7  4 14 15 18 22 25 29
   -489629.99200  26066649.89200                   -338816.72540  26066653.67740
 -13723668.02300  21795848.42300                 -10573260.38140  21795852.06740
  14275134.97500  26158471.39200                  21211986.17240  26158477.86040
  -7599911.92300  24201024.87600                  -5160213.09140  24201028.81340
 -12002541.81100  22663930.43100                  -9209337.21040  22663933.80640
   8634704.29800  25258782.63400                   6876839.95440  25258787.22840
 -11326417.58800  22225484.28200                  -8702430.76340  22225486.79040
 96  9  5  2 47 30.0050000  0  7  4 14 15 18 22 25 29
   -493378.59400  26065936.52400                   -341737.74340  26065940.05240
 -13679952.04900  21804167.29000                 -10539195.99040  21804171.01740
  14400595.85600  26182345.05600                  21309747.81240  26182350.90340
  -7653480.99400  24190831.11800                  -5201955.17840  24190835.19640
 -12008159.59700  22662861.48500                  -9213714.67340  22662864.88440
   8748113.02900  25280363.99300                   6965210.39740  25280366.40740
 -11318068.11700  22227073.20400                  -8695924.67040  22227075.56040
 96  9  5  2 48  0.0050000  0  8  4 14 15 18 19 22 25 29
   -496590.97200  26065325.65700                   -344240.87540  26065327.53240
 -13635683.00800  21812591.47800                 -10504700.64240  21812595.06340
  14525975.90800  26206203.61000                  21407446.44940  26206210.02040
  -7706971.56400  24180651.62600                  -5243636.08740  24180655.58740
    -40099.56910  26248095.81300
 -12013185.00800  22661905.14200                  -9217630.55240  22661908.45840
   8861559.23500  25301952.01700                   7053610.03640  25301955.26340
 -11309527.68600  22228698.32100                  -8689269.77640  22228700.85340
 96  9  5  2 48 30.0050000  0  8  4 14 15 18 19 22 25 29
   -499267.66700  26064816.10300                   -346326.65640  26064818.77440
 -13590845.68100  21821123.74300                 -10469762.47340  21821127.36440
  14651268.64600  26230047.39200                  21505077.05440  26230055.23540
  -7760402.19200  24170484.80600                  -5285270.29940  24170488.75540
   -110772.12300  26234648.95400
 -12017625.06000  22661059.86800                  -9221090.30340  22661063.40740
   8975053.47300  25323549.27400                   7142047.10640  25323552.61440
 -11300792.95000  22230360.29800                  -8682463.47840  22230362.89940
 96  9  5  2 49  0.0050000  0  8  4 14 15 18 19 22 25 29
   -501412.29300  26064407.59500                   -347997.77640  26064412.16540
 -13545417.84700  21829768.18800                 -10434364.16140  21829771.79840
  14776474.36900  26253872.29000                  21602639.85840  26253879.44240
  -7813765.52800  24160329.97000                  -5326852.07940  24160333.53240
   -181325.72500  26221222.71200                     -1830.26250  26221229.09940
 -12021483.51800  22660325.90700                  -9224096.86440  22660329.24740
   9088595.77300  25345156.19600                   7230521.64340  25345158.13040
 -11291841.85600  22232063.75100                  -8675488.58840  22232066.21240
 96  9  5  2 49 30.0050000  0  8  4 14 15 18 19 22 25 29
   -503033.19000  26064099.66500                   -349260.79640  26064104.00140
 -13499403.58400  21838524.45400                 -10398508.89540  21838528.14540
  14901587.91200  26277680.08700                  21700130.80340  26277685.64240
  -7867058.64200  24150189.18100                  -5368379.11340  24150192.98940
   -251777.28400  26207816.24300                    -56727.34240  26207820.96640
 -12024766.79200  22659700.73500                  -9226655.24640  22659704.48540
   9202181.89400  25366770.97000                   7319030.32940  25366772.27040
 -11282671.50400  22233808.95400                  -8668342.84540  22233811.40340
 96  9  5  2 50  0.0050000  0  8  4 14 15 18 19 22 25 29
   -504139.34200  26063888.79000                   -350122.75540  26063892.66940
 -13452810.54600  21847391.08700                 -10362202.63440  21847394.61440
  15026607.68700  26301471.36000                  21797548.70340  26301476.95040
  -7920276.97200  24140061.15700                  -5409847.89140  24140064.13440
   -322128.70300  26194427.61800                   -111546.40940  26194437.65340
 -12027478.45300  22659184.97000                  -9228768.19740  22659189.04840
   9315820.58900  25388395.33700                   7407579.96340  25388398.86440
 -11273280.92600  22235595.68100                  -8661025.50140  22235598.18840
 96  9  5  2 50 30.0050000  0  8  4 14 15 18 19 22 25 29
   -504747.87000  26063773.09500                   -350596.97640  26063777.14940
 -13405647.25000  21856365.74300                 -10325452.02040  21856369.34140
  15151531.21200  26325243.08700                  21894891.57540  26325251.90340
  -7973392.61700  24129954.00100                  -5451236.66040  24129957.41140
   -392380.10200  26181059.23500                   -166287.58040  26181067.51340
 -12029617.65000  22658777.97800                  -9230435.08640  22658781.58740
   9429508.95500  25410029.60300                   7496168.32040  25410033.88040
 -11263665.72400  22237425.45400                  -8653533.12540  22237428.09140
 96  9  5  2 51  0.0050000  0  7  4 14 18 19 22 25 29
   -504859.90100  26063752.41500                   -350684.26340  26063757.06740
 -13357917.96500  21865448.11800                 -10288260.37140  21865451.93840
  -8026394.02100  24119868.39200                  -5492536.39740  24119871.43840
   -462520.05100  26167712.54800                   -220941.91440  26167717.81040
 -12031178.12700  22658481.06300                  -9231651.01740  22658484.76740
   9543239.91700  25431671.78200                   7584789.85740  25431673.03640
 -11253827.26500  22239297.79000                  -8645866.78740  22239300.23940
 96  9  5  2 51 30.0050000  0  7  4 14 18 19 22 25 29
   -504457.06100  26063827.94600                   -350370.37940  26063832.02440
 -13309641.85100  21874634.68100                 -10250642.62140  21874638.47840
  -8079276.82900  24109804.60300                  -5533743.72440  24109808.07140
   -532521.10400  26154391.21200                   -275488.04440  26154398.16540
 -12032137.99400  22658298.24300                  -9232398.94340  22658301.72440
   9657015.30100  25453322.69600                   7673446.00240  25453326.07140
 -11243766.19600  22241212.25900                  -8638026.98540  22241214.62640
 96  9  5  2 52  0.0050000  0  7  4 14 18 19 22 25 29
   -503545.61100  26064001.64200                   -349660.19340  26064004.57140
 -13260822.20300  21883925.14900                 -10212601.34940  21883928.94640
  -8132043.43700  24099762.95400                  -5574860.51140  24099767.06740
   -602372.50900  26141098.63400                   -329917.55840  26141108.20040
 -12032484.91000  22658232.40700                  -9232669.24140  22658235.68840
   9770844.59300  25474983.24300                   7762144.20540  25474984.64940
 -11233471.01800  22243171.14900                  -8630004.75440  22243173.65740
 96  9  5  2 52 30.0050000  0  7  4 14 18 19 22 25 29
   -502141.09500  26064268.52400                   -348565.77640  26064271.98140
 -13211450.15100  21893320.34500                 -10174129.62040  21893323.82540
  -8184704.48100  24089741.57900                  -5615895.03240  24089746.39540
   -672078.19200  26127834.21200                   -384233.57840  26127841.41140
 -12032207.18700  22658284.86800                  -9232452.81340  22658288.32540
   9884726.44400  25496654.46200                   7850883.30540  25496658.27040
 -11222935.50900  22245176.05600                  -8621795.25640  22245178.64540
 96  9  5  2 53  0.0050000  0  7  4 14 18 19 22 25 29
   -500230.87200  26064632.58700                   -347077.29040  26064636.86440
 -13161525.00300  21902820.82900                 -10135226.91140  21902824.38040
  -8237272.13800  24079738.54800                  -5656856.80240  24079742.79040
   -741611.98200  26114602.06300                   -438415.59640  26114608.64940
 -12031289.74700  22658459.31300                  -9231737.90340  22658462.95840
   9998672.92300  25518337.64200                   7939672.73140  25518339.61040
 -11212156.41900  22247227.45400                  -8613395.95340  22247229.90340
 96  9  5  2 53 30.0050000  0  7  4 14 18 19 22 25 29
   -497837.52900  26065087.29800                   -345212.34240  26065090.87240
 -13111060.10800  21912423.76700                 -10095903.62540  21912427.14240
  -8289752.82000  24069752.11000                  -5697750.79040  24069756.86840
   -810978.75800  26101402.12600                   -492467.49040  26101407.75140
 -12029741.43400  22658754.35300                  -9230531.40040  22658758.03240
  10112684.61100  25540032.50100                   8028513.01940  25540038.33740
 -11201141.77000  22249323.64200                  -8604813.09740  22249325.97440
 96  9  5  2 54  0.0050000  0  7  4 14 18 19 22 25 29
   -494959.57100  26065635.24300                   -342969.79840  26065639.98940
 -13060034.14000  21922133.67300                 -10056143.13940  21922137.18840
  -8342146.90500  24059781.53200                  -5738577.29540  24059784.89540
   -880185.72400  26088232.74300                   -546394.87540  26088236.69240
 -12027562.10300  22659168.75100                  -9228833.19540  22659172.19640
  10226776.08100  25561743.32100                   8117415.44840  25561742.85340
 -11189884.87100  22251465.55600                  -8596041.47840  22251467.93540
 96  9  5  2 54 30.0050000  0  7  4 14 18 19 22 25 29
   -491587.22800  26066277.63400                   -340341.98140  26066281.51340
 -13008458.39100  21931948.35300                 -10015954.24740  21931951.91540
  -8394467.86500  24049824.74300                  -5779346.83240  24049829.09140
   -949239.87500  26075093.14900                   -600203.12340  26075098.54040
 -12024768.40500  22659700.05600                  -9226656.26740  22659703.34940
  10340923.92200  25583466.21200                   8206361.89440  25583472.88040
 -11178410.79700  22253648.99300                  -8587100.63240  22253651.59540
 96  9  5  2 55  0.0050000  0  7  4 14 18 19 22 25 29
   -487705.75700  26067015.50100                   -337317.46640  26067020.42340
 -12956348.69100  21941864.65700                  -9975349.29240  21941868.23140
  -8446703.30200  24039885.22800                  -5820049.73540  24039888.81340
  -1018143.71500  26061979.38400                   -653894.29140  26061984.58740
 -12021372.75400  22660346.57100                  -9224010.28740  22660350.04040
  10455114.44000  25605196.32100                   8295341.49640  25605198.29040
 -11166732.20700  22255871.10300                  -8578000.42240  22255873.56340
 96  9  5  2 55 30.0050000  0  7  4 14 18 19 22 25 29
   -483295.46600  26067855.29800                   -333880.91540  26067858.28640
 -12903676.32000  21951887.79800                  -9934305.89440  21951891.23140
  -8498832.94600  24029966.32900                  -5860670.19240  24029969.66940
  -1086899.86400  26048896.57100                   -707470.34940  26048903.91140
 -12017366.76400  22661108.85300                  -9220888.71540  22661112.15740
  10569353.94600  25626934.73500                   8384359.26440  25626936.37640
 -11154833.70300  22258135.40700                  -8568728.85440  22258137.85640
 96  9  5  2 56  0.0050000  0  7  4 14 18 19 22 25 29
   -478344.73900  26068797.70400                   -330023.20740  26068800.66940
 -12850445.43200  21962017.25900                  -9892827.28840  21962020.73940
  -8550865.95500  24020064.41500                  -5901215.35540  24020067.43840
  -1155523.49800  26035837.73500                   -760943.11340  26035843.78240
 -12012770.21100  22661983.49300                  -9217306.96540  22661986.98540
  10683615.48100  25648677.84500                   8473394.27540  25648681.70040
 -11142723.67400  22260439.88400                  -8559292.46540  22260442.32140
 96  9  5  2 56 30.0050000  0  7  4 14 18 19 22 25 29
   -472848.63400  26069843.25900                   -325740.50140  26069846.55240
 -12796660.50700  21972252.11800                  -9850916.96240  21972255.82140
  -8602790.06800  24010183.08700                  -5941675.65640  24010186.50940
  -1224009.61500  26022803.54800                   -814308.71640  26022809.53640
 -12007595.75900  22662968.07900                  -9213274.90140  22662971.46640
  10797894.12000  25670425.08700                   8562442.48640  25670428.91940
 -11130402.34600  22262784.46200                  -8549691.42140  22262786.98140
 96  9  5  2 57  0.0050000  0  7  4 14 18 19 22 25 29
   -466809.11200  26070992.33700                   -321034.39440  26070996.62640
 -12742324.10500  21982591.88400                  -9808576.91640  21982595.85640
  -8654585.97100  24000326.38400                  -5982036.06140  24000329.53640
  -1292348.69600  26009799.61000                   -867559.78840  26009806.11440
 -12001836.24100  22664064.17300                  -9208786.94440  22664067.71240
  10912205.31900  25692179.38400
 -11117845.11700  22265174.16500                  -8539906.56040  22265176.59140
 96  9  5  2 57 30.0050000  0  7  4 14 18 19 22 25 29
   -460233.20600  26072244.28200                   -315910.33440  26072250.58740
 -12687442.93000  21993035.36800                  -9765812.36840  21993039.24740
  -8706268.97200  23990492.05600                  -6022308.50740  23990495.72440
  -1360551.07400  25996820.75100                   -920704.29740  25996824.75940
 -11995488.19300  22665272.40700                  -9203840.38640  22665275.65340
                  25713934.22800
 -11105048.99600  22267609.25100                  -8529935.54540  22267611.63040
 96  9  5  2 58  0.0050000  0  7  4 14 18 19 22 25 29
   -453125.04200  26073597.00900                   -310371.51040  26073599.13040
 -12632024.38100  22003581.44600                  -9722629.08340  22003585.03240
  -8757842.35400  23980677.38400                  -6062495.53240  23980680.85340
  -1428616.38900  25983866.22800                   -973741.98640  25983872.42740
 -11988542.66900  22666593.79800                  -9198428.28340  22666597.10340
                  25735696.61800
 -11092010.66000  22270090.12600                  -8519775.79440  22270092.59940
 96  9  5  2 58 30.0050000  0  6  4 14 18 19 22 29
   -445498.81500  26075047.57100
 -12576066.12900  22014230.16500                  -9679025.26240  22014233.55240
  -8809303.20900  23970883.65700                  -6102594.87940  23970887.50140
  -1496535.67200  25970942.93800                  -1026665.96240  25970950.74740
 -11980974.10100  22668034.25900                  -9192530.68140  22668037.68140
 -11078716.18300  22272619.86000                  -8509416.46440  22272622.49740
 96  9  5  2 59  0.0050000  0  6  4 14 18 19 22 29
   -437364.02100  26076596.35300
 -12519563.17000  22024982.08700                  -9634996.98940  22024985.46240
  -8860651.82000  23961112.93800                  -6142606.77240  23961116.80640
  -1564320.39700  25958044.27400                  -1079484.99840  25958051.63840
 -11972768.13300  22669595.69600                  -9186136.39740  22669598.98940
 -11065165.84900  22275198.74300                  -8498857.75140  22275201.21640
 96  9  5  2 59 30.0050000  0  7  4 14 18 19 22 25 29
   -428718.57100  26078241.20400
 -12462492.43600  22035842.23500                  -9590526.30340  22035845.72840
  -8911894.64100  23951361.45400                  -6182536.23540  23951365.35640
  -1631976.65200  25945169.68800                  -1132204.02040  25945174.06040
 -11963922.40700  22671279.07100                  -9179243.60940  22671282.68140
     41946.33510  25801008.37600
 -11051376.93700  22277822.43800                  -8488113.13640  22277824.89940
 96  9  5  3  0  0.0050000  0  7  4 14 18 19 22 25 29
   -419558.86000  26079984.64200                      5271.93750  26079987.82940
 -12404841.71800  22046812.82100                  -9545603.67240  22046816.56040
  -8963007.87900  23941635.59500                  -6222364.72540  23941638.99340
  -1699487.96800  25932322.14200                  -1184810.07440  25932328.71640
 -11954435.30000  22673084.32900                  -9171851.03940  22673087.73940
                  25822783.04000
 -11037347.23000  22280492.25100                  -8477180.88640  22280494.73540
 96  9  5  3  0 30.0050000  0  7  4 14 18 19 22 25 29
   -409879.82900  26081825.39900                     12814.06740  26081828.76340
 -12346619.48700  22057892.31300                  -9500235.71340  22057895.67740
  -9013989.59500  23931934.50100                  -6262090.73040  23931938.02840
  -1766847.82400  25919504.77400                  -1237298.12040  25919510.61040
 -11944311.45400  22675010.76700                  -9163962.31040  22675014.07140
     19067.54110  25844557.92300
 -11023089.84000  22283205.57100                  -8466071.22440  22283207.86840
 96  9  5  3  1  0.0050000  0  6  4 14 18 19 22 29
   -399677.32700  26083766.89900                     20764.04140  26083771.73940
 -12287831.44300  22069078.93100                  -9454426.85240  22069082.48140
  -9064856.82600  23922254.42300                  -6301727.53240  23922257.82140
  -1834063.12400  25906714.19600                  -1289673.51040  25906720.00940
 -11933563.83100  22677055.75900                  -9155587.52040  22677059.19240
 -11008631.71100  22285956.82100                  -8454805.13940  22285959.03640
 96  9  5  3  1 30.0050000  0  6  4 14 18 19 22 29
   -388951.27500  26085808.80600                     29122.01040  26085812.90740
 -12228479.85900  22080373.25100                  -9408178.87640  22080376.73140
  -9115619.06500  23912594.26700                  -6341282.50540  23912598.56740
  -1901113.70400  25893954.67300                  -1341920.56240  25893959.04440
 -11922196.07300  22679219.28200                  -9146729.50640  22679222.96240
 -10993973.04000  22288746.30600                  -8443382.79040  22288748.54440
 96  9  5  3  2  0.0050000  0  6  4 14 18 19 22 29
   -377713.97500  26087946.55600                     37878.33040  26087950.21240
 -12168590.40600  22091770.18100                  -9361511.78440  22091773.88440
  -9166292.32700  23902951.86000                  -6380768.15640  23902956.10340
  -1967994.58800  25881227.21200                  -1394035.35940  25881233.78640
 -11910217.23400  22681498.89200                  -9137395.32740  22681502.03240
 -10979106.96300  22291575.09500                  -8431798.82640  22291577.36840
 96  9  5  3  2 30.0050000  0  6  4 14 18 19 22 29
   -365965.19100  26090183.11000                     47033.21140  26090186.38040
 -12108167.00800  22103268.11000                  -9314428.62640  22103271.67340
  -9216899.37800  23893320.79000                  -6420202.21040  23893324.77440
  -2034702.58200  25868534.39900                  -1446015.52440  25868539.53240
 -11897625.22700  22683894.73500                  -9127583.36140  22683897.92340
 -10964028.32800  22294444.51700                  -8420049.22940  22294446.83740
 96  9  5  3  3  0.0050000  0  6  4 14 18 19 22 29
   -353714.64200  26092513.57900                     56579.10940  26092518.16140
 -12047209.77800  22114867.82100                  -9266929.49240  22114871.61840
  -9267435.45400  23883704.96200                  -6459580.93740  23883708.88840
  -2101245.23200  25855870.53200                  -1497866.79540  25855875.32540
 -11884434.91200  22686404.67300                  -9117305.17540  22686408.15340
 -10948726.83500  22297356.52400                  -8408125.97440  22297358.83340
 96  9  5  3  3 30.0050000  0  6  4 14 18 19 22 29
   -340956.39700  26094941.51700                     66520.58140  26094946.04040
 -11985715.57300  22126569.83700                  -9219011.93840  22126573.59940
  -9317869.99000  23874107.35300                  -6498880.55540  23874111.18540
  -2167612.73300  25843240.78200                  -1549581.61240  25843245.15340
 -11870644.02600  22689029.10300                  -9106559.00840  22689032.34940
 -10933171.41300  22300316.06300                  -8396004.85640  22300318.67740
 96  9  5  3  4  0.0050000  0  6  4 14 18 19 22 29
   -327683.48700  26097467.89200                     76863.11740  26097471.89940
 -11923700.24300  22138371.24300                  -9170688.31540  22138374.79440
  -9368189.93100  23864532.28200                  -6538090.84340  23864535.04840
  -2233830.20800  25830639.39200                  -1601179.50340  25830643.17740
 -11856257.01400  22691766.82100                  -9095348.32740  22691770.06740
 -10917354.77800  22303326.18800                  -8383680.20040  22303328.49740
 96  9  5  3  4 30.0050000  0  6  4 14 18 19 22 29
   -313890.67200  26100091.84500                     87610.78740  26100096.26340
 -11861146.68000  22150274.61800                  -9121945.29040  22150278.21640
  -9418383.22200  23854980.63400                  -6577202.44540  23854983.68140
  -2299914.24300  25818064.35300                  -1652673.42240  25818069.14540
 -11841259.82400  22694620.94600                  -9083662.18740  22694624.16940
 -10901279.96000  22306384.97000                  -8371154.35140  22306387.31340
 96  9  5  3  5  0.0050000  0  6  4 14 18 19 22 29
   -299569.96100  26102816.40700                     98769.77340  26102820.50940
 -11798056.53300  22162280.34500                  -9072784.14240  22162284.22440
  -9468437.95000  23845455.62600                  -6616206.07940  23845458.47440
  -2365874.70200  25805511.68100                  -1704071.09840  25805518.68140
 -11825649.55000  22697591.24300                  -9071498.32640  22697594.73540
 -10884941.13900  22309493.72000                  -8358422.79140  22309496.28640
 96  9  5  3  5 30.0050000  0  6  4 14 18 19 22 29
   -284727.18300  26105641.19600                    110335.59840  26105644.77040
 -11734428.84500  22174387.92300                  -9023204.13140  22174391.73140
  -9518366.15800  23835954.85300                  -6655111.12240  23835958.20440
  -2431710.04200  25792983.79000                  -1755371.17340  25792989.36840
 -11809418.03600  22700679.89900                  -9058850.37140  22700683.38040
 -10868340.74400  22312652.91500                  -8345487.41040  22312655.52840
 96  9  5  3  6  0.0050000  0  6  4 14 18 19 22 29
   -269352.62500  26108566.61800                    122315.74640  26108571.04840
 -11670251.73900  22186600.53200                  -8973196.00440  22186604.27040
  -9568179.45900  23826475.55600                  -6693926.62440  23826478.80240
  -2497413.51900  25780482.52400                  -1806568.59940  25780488.87640
 -11792548.45200  22703890.19600                  -9045705.22540  22703893.87640
 -10851490.95200  22315859.50900                  -8332357.69440  22315861.89940
 96  9  5  3  6 30.0050000  0  7  4 14 18 19 22 25 29
   -253455.79300  26111592.43800                    134702.91940  26111596.10640
 -11605527.17600  22198917.31300                  -8922761.28840  22198921.02840
  -9617892.29600  23817015.00100                  -6732663.84640  23817018.72840
  -2562961.93300  25768008.61000                  -1857645.13740  25768014.51740
 -11775041.10100  22707221.89900                  -9032063.11240  22707225.05240
     87851.52310  26106145.26700
 -10834405.32700  22319110.82900                  -8319044.21240  22319113.26740
 96  9  5  3  7  0.0050000  0  7  4 14 18 19 22 25 29
   -237051.58900  26114714.49300                    147485.39840  26114718.25540
 -11540278.80200  22211333.68800                  -8871918.40840  22211337.47440
  -9667496.15500  23807575.46200                  -6771316.14240  23807579.65740
  -2628333.50200  25755568.87600                  -1908583.89540  25755574.63040
 -11756911.46500  22710671.74300                  -9017936.10040  22710674.77840
    202440.07700  26127951.27400
 -10817083.03900  22322406.94600                  -8305546.32040  22322409.30240
 96  9  5  3  7 30.0050000  0  7  4 14 18 19 22 25 29
   -220155.30900  26117929.89900                    160651.32940  26117934.16540
 -11474507.57500  22223849.34500                  -8820668.10640  22223853.17740
  -9716986.76700  23798158.24300                  -6809880.20840  23798161.93540
  -2693518.37300  25743164.21200                  -1959377.17640  25743169.28640
 -11738159.76900  22714239.88400                  -9003324.37440  22714243.15340
    317029.36100  26149757.04800                     41667.34650  26149762.00540
 -10799530.69400  22325747.10300                  -8291869.15840  22325749.39940
 96  9  5  3  8  0.0050000  0  7  4 14 18 19 22 25 29
   -202758.70700  26121239.50100                    174207.11440  26121243.96640
 -11408212.69200  22236465.21200                  -8769009.76440  22236468.97440
  -9766353.13100  23788763.89200                  -6848347.46040  23788767.41940
  -2758504.68600  25730796.65700                  -2010015.69640  25730802.41140
 -11718779.28500  22717927.93100                  -8988222.68240  22717931.23540
    431625.41100  26171563.04000                    130962.98740  26171564.88040
 -10781743.12700  22329131.92300                  -8278008.71040  22329134.26740
 96  9  5  3  8 30.0050000  0  7  4 14 18 19 22 25 29
   -184870.85000  26124642.49300
 -11341392.57700  22249180.66500                  -8716942.15540  22249184.39240
  -9815581.15400  23779395.68800                  -6886706.89940  23779398.85340
  -2823291.35200  25718468.40700                  -2060498.67940  25718475.61840
 -11698775.02900  22721734.41500                  -8972634.93440  22721737.73140
    546211.04300  26193369.54800                    220250.46640  26193372.07940
 -10763708.06200  22332564.02400                  -8263955.40540  22332566.54440
 96  9  5  3  9  0.0050000  0  7  4 14 18 19 22 25 29
   -166489.11000  26128141.75900
 -11274025.66500  22261999.82900                  -8664448.46740  22262003.57940
  -9864664.04200  23770055.64200                  -6924953.25440  23770059.26340
  -2887893.47100  25706175.00100                  -2110837.84740  25706181.00140
 -11678144.83500  22725660.19600                  -8956559.43540  22725663.48940
    660786.11700  26215173.17300                    309529.77940  26215175.92740
 -10745423.42200  22336043.80600                  -8249707.62840  22336046.11440
 96  9  5  3  9 30.0050000  0  7  4 14 18 19 22 25 29
   -147590.66300  26131737.57100                       993.15750  26131742.61040
 -11206095.47400  22274926.66500                  -8611515.85340  22274930.46240
  -9913613.95000  23760740.47800                  -6963096.00240  23760743.95840
  -2952319.21000  25693914.63400                  -2161039.59840  25693921.38440
 -11656886.53400  22729705.75100                  -8939994.50640  22729708.91540
    775368.60600  26236976.89200                    398814.79840  26236978.82540
 -10726891.06800  22339570.01700                  -8235266.82740  22339572.26740
 96  9  5  3 10  0.0050000  0  7  4 14 18 19 22 25 29
   -128175.52400  26135432.14200                     16121.83640  26135437.49740
 -11137597.88900  22287961.54000                  -8558141.12440  22287964.90340
  -9962437.06900  23751449.70400                  -7001139.94440  23751453.20840
  -3016578.59300  25681686.10300                  -2211111.73140  25681691.37640
 -11635003.23700  22733870.00100                  -8922942.56740  22733873.16540
    889956.24200  26258782.47000                    488103.89740  26258785.31740
 -10708113.52100  22343143.36000                  -8220634.96740  22343145.92740
 96  9  5  3 10 30.0050000  0  7  4 14 18 19 22 25 29
   -108247.74900  26139223.71200                     31649.96640  26139227.41540
 -11068539.95700  22301102.88400                  -8504329.76340  22301106.25940
 -10011135.94100  23742183.20400                  -7039087.08040  23742186.55640
  -3080694.95300  25669485.39200                  -2261072.39440  25669490.72440
 -11612506.66200  22738150.68100                  -8905412.74840  22738153.95040
   1004545.86200  26280586.64200                    577394.50940  26280591.43540
 -10689096.24900  22346762.15700                  -8205816.30640  22346764.66540
 96  9  5  3 11  0.0050000  0  7  4 14 18 19 22 25 29
    -87801.98000  26143114.90700                     47581.71440  26143117.90740
 -10998937.31200  22314347.47800                  -8450093.93740  22314351.21640
 -10059705.86800  23732940.23500                  -7076933.74340  23732943.72840
  -3144663.73100  25657313.42300                  -2310918.12840  25657318.75540
 -11589394.72300  22742548.90700                  -8887403.43240  22742552.43540
   1119153.49400  26302395.84500                    666699.14240  26302395.93840
 -10669838.97500  22350426.61000                  -8190810.62940  22350429.00140
 96  9  5  3 11 30.0050000  0  7  4 14 18 19 22 25 29
    -66833.10200  26147104.90700                     63921.07940  26147110.74340
 -10928815.67400  22327691.38400                  -8395453.71140  22327695.31040
 -10108139.16900  23723723.51700                  -7114673.94640  23723726.57540
  -3208475.48600  25645169.61800                  -2360641.47040  25645171.57540
 -11565662.99700  22747064.97800                  -8868911.15640  22747068.49340
   1233789.61600  26324210.05600                    756026.00040  26324212.88040
 -10650323.69900  22354140.50900                  -8175603.91840  22354142.92340
 96  9  5  3 12  0.0050000  0  7  4 14 18 19 22 25 29
    -45357.69200  26151191.97800                     80655.14540  26151196.22040
 -10858181.74100  22341132.50100                  -8340414.29240  22341136.25140
 -10156441.17200  23714532.39200                  -7152311.83940  23714535.56740
  -3272145.93500  25633053.84500                  -2410254.67040  25633060.13840
 -11541311.28100  22751699.09500                  -8849935.76840  22751702.34140
   1348434.69500  26346027.43100                    845359.80940  26346034.87640
 -10630549.20500  22357903.15700                  -8160195.21340  22357905.70040
 96  9  5  3 12 30.0050000  0  6  4 14 18 19 22 29
    -23372.46000  26155375.91500                     97786.51240  26155381.85640
 -10787052.05500  22354668.05600                  -8284988.58040  22354671.72440
 -10204611.48600  23705365.68800                  -7189847.12440  23705368.92340
  -3335668.06800  25620964.87600                  -2459752.32840  25620970.70040
 -11516341.77500  22756450.55600                  -8830478.99540  22756454.14240
 -10610524.97700  22361713.74300                  -8144591.91140  22361716.27440
 96  9  5  3 13  0.0050000  0  6  4 14 18 19 22 29
      -880.71500  26159656.36800                    115312.53040  26159660.50540
 -10715430.33600  22368297.28200                  -8229179.45540  22368301.00940
 -10252648.03400  23696224.93800                  -7227278.18240  23696228.71240
  -3399017.18300  25608911.64200                  -2509115.12340  25608917.59540
 -11490743.77600  22761321.36000                  -8810532.48040  22761324.59540
 -10590244.99000  22365572.79000                  -8128789.31540  22365575.18140
 96  9  5  3 13 30.0050000  0  6  4 14 18 19 22 29
     22118.25500  26164032.38400                    133233.77140  26164036.81340
 -10643296.44100  22382023.91500                  -8172971.23240  22382027.68840
 -10300553.09100  23687108.46200                  -7264606.77140  23687111.75540
  -3462197.24700  25596887.40700                  -2558346.21240  25596891.63840
 -11464515.54600  22766312.32100                  -8790094.87340  22766315.63840
 -10569703.81300  22369481.87600                  -8112783.20040  22369484.29040
 96  9  5  3 14  0.0050000  0  6  4 14 18 19 22 29
     45619.22800  26168504.14200                    151546.24040  26168509.02840
 -10570630.51300  22395851.74300                  -8116348.44040  22395855.36440
 -10348324.53600  23678018.16500                  -7301831.25040  23678021.24740
  -3525206.83300  25584897.00100                  -2607444.49040  25584903.65740
 -11437656.98800  22771423.55600                  -8769166.10040  22771426.91940
 -10548920.85800  22373436.58700                  -8096588.68040  22373438.95440
 96  9  5  3 14 30.0050000  0  6  4 14 18 19 22 29
     69609.63500  26173069.13400                    170239.99040  26173072.13440
 -10497447.50100  22409778.06300                  -8059322.72540  22409781.69640
 -10395950.38600  23668955.48500                  -7338942.28340  23668958.21640
  -3588029.20500  25572942.58700                  -2656396.83340  25572947.59140
 -11410172.19500  22776653.80600                  -8747749.36040  22776657.29840
 -10527898.22200  22377437.11000                  -8080207.40040  22377439.60640
 96  9  5  3 15  0.0050000  0  6  4 14 18 19 22 29
     94095.37800  26177729.40700                    189319.79740  26177734.64540
 -10423725.01700  22423806.95400                  -8001876.64440  22423810.78640
 -10443423.35600  23659921.45400                  -7375934.17740  23659924.09140
  -3650665.81200  25561022.65700                  -2705204.48340  25561028.22440
 -11382054.29100  22782004.43100                  -8725839.28440  22782007.44240
 -10506610.78300  22381487.92300                  -8063619.78040  22381490.61840
 96  9  5  3 15 30.0050000  0  6  4 14 18 19 22 29
    119084.35000  26182483.69600                    208791.73040  26182486.72040
 -10349448.23800  22437941.52400                  -7943998.64640  22437945.26340
 -10490756.48400  23650914.16500                  -7412817.11140  23650917.32940
  -3713129.98700  25549136.64200                  -2753877.77040  25549142.05640
 -11353315.41400  22787473.17300                  -8703445.33640  22787476.48940
 -10485058.61000  22385589.19600                  -8046825.87540  22385591.72840
 96  9  5  3 16  0.0060000  0  6  4 14 18 19 22 29
    144562.13300  26187332.62300                    228644.51940  26187336.76040
 -10274632.18000  22452178.55300                  -7885700.42940  22452182.24440
 -10537961.37800  23641931.33400                  -7449600.12840  23641934.36940
  -3775430.73600  25537281.45900                  -2802423.65640  25537286.90840
 -11323962.16600  22793058.70100                  -8680572.65740  22793062.19340
 -10463244.44100  22389740.27100                  -8029827.81440  22389742.66240
 96  9  5  3 16 30.0060000  0  6  4 14 18 19 22 29
    170536.44300  26192275.62300                    248884.22840  26192279.88940
 -10199286.36100  22466516.14600                  -7826989.41340  22466519.79140
 -10585032.87600  23632973.92000                  -7486279.20040  23632977.29540
  -3837554.49700  25525458.98200                  -2850831.70440  25525466.17040
 -11293986.00100  22798763.14600                  -8657214.59340  22798766.39340
 -10441144.51400  22393945.54500                  -8012607.08840  22393948.00640
 96  9  5  3 17  0.0060000  0  6  4 14 18 19 22 29
    197008.76900  26197313.06100                    269511.94840  26197314.84240
 -10123413.18600  22480954.24000                  -7767867.46840  22480958.11940
 -10631985.23500  23624038.67000                  -7522865.44140  23624042.40840
  -3899520.48800  25513667.52100                  -2899116.78240  25513674.96740
 -11263392.30500  22804584.82600                  -8633375.33440  22804588.07240
 -10418765.06400  22398204.54500                  -7995168.54840  22398207.01840
 96  9  5  3 17 30.0060000  0  6  4 14 18 19 22 29
    223966.40000  26202442.93600                    290517.88040  26202447.99840
 -10047039.49600  22495487.40400                  -7708355.50740  22495491.35340
 -10678817.41400  23615127.08400                  -7559358.03640  23615131.01040
  -3961323.31300  25501905.75600                  -2947274.72440  25501910.29140
 -11232184.55600  22810523.45100                  -8609057.59140  22810526.74440
 -10396119.46400  22402513.58400                  -7977522.61940  22402516.03340
 96  9  5  3 18  0.0060000  0  6  4 14 18 19 22 29
    251396.37800  26207663.23200                    311891.87640  26207665.18940
  -9970183.99300  22510112.95900                  -7648468.11440  22510116.76840
 -10725515.09100  23606241.19300                  -7595745.82240  23606244.94340
  -4022963.68000  25490177.31800                  -2995306.11240  25490181.37340
 -11200351.10600  22816581.18600                  -8584252.29140  22816584.59640
 -10373215.04100  22406872.40400                  -7959675.00940  22406874.88940
 96  9  5  3 18 30.0060000  0  6  4 14 18 19 22 29
    279323.38000  26212976.74000                    333653.12240  26212980.84240
  -9892843.67000  22524830.35700                  -7588202.93340  22524834.13140
 -10772067.95700  23597382.09200                  -7632020.76640  23597385.36140
  -4084421.15700  25478481.26400                  -3043194.96340  25478488.15840
 -11167892.33900  22822757.88900                  -8558959.72840  22822761.05340
 -10350059.67600  22411278.85000                  -7941631.86440  22411281.18240
 96  9  5  3 19  0.0060000  0  6  4 14 18 19 22 29
    307765.47700  26218389.84200                    355815.78540  26218394.48240
  -9815005.10300  22539642.51400                  -7527549.51340  22539646.38140
 -10818464.98100  23588553.03700                  -7668174.27440  23588556.44740
  -4145680.16500  25466823.74800                  -3090929.16040  25466830.07640
 -11134805.74900  22829054.05300                  -8533177.95940  22829057.47540
 -10326651.48800  22415733.14600                  -7923391.70840  22415735.24440
 96  9  5  3 19 30.0060000  0  6  4 14 18 19 22 29
    336737.03300  26223901.77100                    378391.02940  26223907.97140
  -9736647.73000  22554553.67800                  -7466491.82940  22554557.43940
 -10864697.22200  23579755.27100                  -7704199.38140  23579758.78740
  -4206722.81600  25455207.59200                  -3138494.77740  25455213.97840
 -11101086.43300  22835470.42800                  -8506903.15840  22835473.59240
 -10302986.44300  22420236.44300                  -7904951.40640  22420238.48240
 96  9  5  3 20  0.0060000  0  6  4 14 18 19 22 29
    366246.62400  26229517.59200                    401385.41840  26229521.03740
  -9657756.79600  22569565.96700                  -7405018.38740  22569569.63540
 -10910771.73000  23570987.55300                  -7740101.58040  23570990.92840
  -4267553.00800  25443632.02900                  -3185894.82940  25443639.07640
 -11066747.41400  22842005.17000                  -8480145.46840  22842008.26440
 -10279074.04500  22424786.57600                  -7886318.36640  22424788.77940
 96  9  5  3 20 30.0060000  0  6  4 14 18 19 22 29
    396292.89400  26235236.23200                    424798.07640  26235240.86140
  -9578329.45000  22584680.38900                  -7343126.95740  22584684.24440
 -10956684.20300  23562250.57600                  -7775877.52240  23562253.98640
  -4328165.35900  25432098.36500                  -3233125.15940  25432104.04940
 -11031801.01500  22848655.14600                  -8452914.48840  22848658.65040
 -10254903.35800  22429386.24800                  -7867484.05940  22429388.61540
 96  9  5  3 21  0.0060000  0  6  4 14 18 19 22 29
    426837.09600  26241048.49000                    448598.75340  26241051.67840
  -9498374.22200  22599895.69300                  -7280824.19740  22599899.49040
 -11002433.84400  23553544.63100                  -7811526.57140  23553548.06440
  -4388585.22800  25420601.16200                  -3280205.51540  25420605.08840
 -10996249.12100  22855420.60700                  -8425211.71240  22855423.98240
 -10230474.95900  22434034.75600                  -7848448.93540  22434037.10040
 96  9  5  3 21 30.0060000  0  6  4 14 18 19 22 29
    457859.72100  26246952.02100                    472772.17340  26246956.04140
  -9417896.70900  22615209.92000                  -7218114.46240  22615213.58840
 -11048013.14200  23544871.64600                  -7847042.89040  23544874.96340
  -4448831.47100  25409137.22500                  -3327150.56940  25409141.45540
 -10960085.54000  22862302.11500                  -8397032.27940  22862305.70140
 -10205781.28900  22438733.70100                  -7829207.10840  22438736.10340
 96  9  5  3 22  0.0060000  0  6  4 14 18 19 22 29
    489329.27900  26252939.63900                    497293.87540  26252943.55340
  -9336929.08900  22630617.41200                  -7155022.82540  22630621.30340
 -11093426.69500  23536229.43600                  -7882430.06440  23536232.37740
  -4508927.78300  25397700.33400                  -3373978.83540  25397706.53340
 -10923317.66700  22869298.81100                  -8368381.98440  22869302.05740
 -10180823.30800  22443483.24800                  -7809759.32340  22443485.59240
 96  9  5  3 22 30.0060000  0  6  4 14 18 19 22 29
    521227.52800  26259010.60700                    522149.62240  26259014.92040
  -9255495.74500  22646113.67000                  -7091568.27840  22646117.56140
 -11138678.30500  23527618.20100                  -7917691.04240  23527621.51840
  -4568893.80200  25386289.96700                  -3420705.50740  25386295.45140
 -10885947.16100  22876410.21700                  -8339262.09340  22876413.61540
 -10155607.30100  22448281.70100                  -7790110.47940  22448283.84640
 96  9  5  3 23  0.0060000  0  6  4 14 18 19 22 29
    553560.26800  26265163.33400                    547343.96040  26265168.27940
  -9173601.36700  22661697.75600                  -7027754.48440  22661701.43640
 -11183786.25100  23519034.35000                  -7952840.07740  23519037.70140
  -4628733.59500  25374901.95900                  -3467333.84640  25374908.07640
 -10847971.00800  22883636.40400                  -8309670.26640  22883639.95540
 -10130135.48700  22453128.70100                  -7770262.31040  22453131.04540
 96  9  5  3 23 30.0060000  0  6  4 14 18 19 22 29
    586369.28000  26271407.52900                    572909.41040  26271411.49040
  -9091230.98100  22677372.10700                  -6963569.77440  22677375.74040
 -11228741.23300  23510479.71700                  -7987869.91040  23510483.54940
  -4688419.21900  25363543.25600                  -3513842.10440  25363548.41240
 -10809385.99800  22890979.39600                  -8279604.01140  22890982.60740
 -10104387.51400  22458028.32600                  -7750198.95040  22458030.62340
 96  9  5  3 24  0.0060000  0  6  4 14 18 19 22 29
    619671.18400  26277743.47500                    598858.91740  26277746.85040
  -9008381.29100  22693137.91200                  -6899011.58640  22693141.86140
 -11273553.56000  23501952.70100                  -8022788.58540  23501956.21740
  -4747931.91700  25352219.60000                  -3560215.51040  25352223.68940
 -10770198.76500  22898436.38900                  -8249068.49040  22898439.57640
 -10078370.26100  22462979.47500                  -7729925.76440  22462981.73640
 96  9  5  3 24 30.0060000  0  6  4 14 18 19 22 29
    653490.77400  26284178.79500                    625211.81840  26284183.51840
  -8925042.92200  22708996.74000                  -6834072.60140  22709000.70140
 -11318234.04400  23493450.06100                  -8057604.52140  23493453.40040
  -4807257.55500  25340930.00600                  -3606443.29040  25340935.73640
 -10730400.38500  22906009.74000                  -8218056.74740  22906013.04540
 -10052075.20600  22467983.14600                  -7709436.10540  22467985.16240
 96  9  5  3 25  0.0060000  0  6  4 14 18 19 22 29
    687838.37400  26290716.14600                    651976.17440  26290718.78340
  -8841206.53800  22724950.52900                  -6768745.55740  22724954.26840
 -11362774.18700  23484974.38900                  -8092311.10140  23484977.55340
  -4866376.13000  25329679.62300                  -3652509.62140  25329685.63540
 -10689975.97100  22913701.97500                  -8186557.19240  22913705.33840
 -10025483.71100  22473043.25600                  -7688715.45840  22473045.47140
 96  9  5  3 25 30.0060000  0  6  4 14 18 19 22 29
    722711.88500  26297352.17800                    679150.33040  26297357.63940
  -8756871.32400  22740998.81100                  -6703029.82540  22741002.84240
 -11407164.93400  23476527.17800                  -8126901.26940  23476530.61140
  -4925293.49200  25318467.85000                  -3698419.20340  25318473.04140
 -10648923.77000  22921514.11500                  -8154568.45640  22921517.31440
  -9998609.51800  22478157.43600                  -7667774.52940  22478159.80340
 96  9  5  3 26  0.0060000  0  6  4 14 18 19 22 29
    758095.37700  26304085.21700                    706721.83240  26304089.10740
  -8672045.41700  22757140.56100                  -6636931.72640  22757144.24040
 -11451415.30200  23468106.14600                  -8161382.05040  23468109.67440
  -4984024.92100  25307291.92000                  -3744183.89140  25307297.59240
 -10607231.34000  22929447.93600                  -8122080.83340  22929450.88940
  -9971459.81800  22483323.69300                  -7646618.91940  22483326.04940
 96  9  5  3 26 30.0060000  0  6  4 14 18 19 22 29
    793982.97500  26310913.73200                    734686.15140  26310918.70140
  -8586722.03200  22773377.11500                  -6570445.98840  22773381.04140
 -11495515.39900  23459714.41200                  -8195745.73740  23459717.89340
  -5042566.99200  25296152.04500                  -3789801.00240  25296157.38940
 -10564899.13700  22937503.22500                  -8089094.68940  22937506.47140
  -9944027.87000  22488543.95100                  -7625243.37240  22488545.92040
 96  9  5  3 27  0.0060000  0  6  4 14 18 19 22 29
    830354.66000  26317835.96700                    763027.72840  26317839.89340
  -8500887.01300  22789710.83400                  -6503561.57440  22789715.07640
 -11539446.65200  23451354.58400                  -8229977.86140  23451358.21740
  -5100920.80500  25285047.59200                  -3835271.40840  25285051.26040
 -10521943.30400  22945677.46700                  -8055622.60540  22945680.92440
  -9916330.37100  22493814.62300                  -7603660.89940  22493816.58040
 96  9  5  3 27 30.0060000  0  6  4 14 18 19 22 29
    867194.68900  26324844.88900                    791734.23340  26324847.04540
  -8414530.52100  22806144.31800                  -6436270.80740  22806148.05740
 -11583202.67400  23443028.07600                  -8264073.42040  23443031.53340
  -5159090.03400  25273976.77100                  -3880597.99040  25273980.07640
 -10478379.81300  22953967.22500                  -8021677.01440  22953970.42440
  -9888378.27400  22499133.53700                  -7581880.04340  22499135.88140
 96  9  5  3 28  0.0060000  0  6  4 14 18 19 22 29
    904478.07500  26331940.04500                    820786.17840  26331945.44740
  -8327666.87600  22822673.78700                  -6368584.86140  22822677.13940
 -11626792.60200  23434733.13900                  -8298039.57540  23434736.46740
  -5217069.46900  25262944.94300                  -3925776.68140  25262950.14640
 -10434233.40700  22962368.48200                  -7987277.21040  22962371.55340
  -9860172.97400  22504501.26400                  -7559901.89140  22504503.43240
 96  9  5  3 28 30.0060000  0  6  4 14 18 19 22 29
    942195.61800  26339117.58400                    850176.45340  26339120.80740
  -8240295.64100  22839299.93600                  -6300503.39540  22839303.66240
 -11670200.32300  23426472.90400                  -8331863.74640  23426476.27940
  -5274854.18900  25251948.81100                  -3970803.63540  25251953.36940
 -10389517.01400  22970877.59200                  -7952433.25540  22970880.77940
  -9831722.39700  22509914.93600                  -7537732.60940  22509916.95140
 96  9  5  3 29  0.0060000  0  6  4 14 18 19 22 29
    980355.01100  26346378.95900                    879911.03340  26346382.82640
  -8152428.22100  22856020.66200                  -6232035.29240  22856024.52940
 -11713406.46200  23418251.02900                  -8365530.84840  23418254.59240
  -5332447.62300  25240988.75600                  -4015681.53440  25240993.33840
 -10344214.89200  22979498.27100                  -7917132.88740  22979501.23640
  -9803016.89000  22515377.07600                  -7515364.67840  22515379.61940
 96  9  5  3 29 30.0060000  0  6  4 14 18 19 22 29
   1018967.55600  26353727.35000                    909998.70040  26353731.88540
  -8064091.43000  22872830.65400                  -6163201.43840  22872834.48640
 -11756430.99900  23410063.68600                  -8399056.43940  23410066.97840
  -5389858.66700  25230063.95900                  -4060417.34240  25230068.45940
 -10298326.27800  22988230.42800                  -7881375.51440  22988233.63940
  -9774043.75100  22520890.59200                  -7492788.20740  22520892.99440
 96  9  5  3 30  0.0060000  0  6  4 14 18 19 22 29
   1058059.62500  26361165.97500                    940459.99240  26361168.83440
  -7975300.40000  22889726.88100                  -6094013.64040  22889731.12340
 -11799283.86300  23401908.74000                  -8432448.26240  23401911.98640
  -5447085.50700  25219173.56800                  -4105009.57640  25219178.35040
 -10251834.98600  22997077.92800                  -7845148.52140  22997080.99840
  -9744784.38000  22526458.70100                  -7469988.69540  22526460.86940
 96  9  5  3 30 30.0060000  0  6  4 14 18 19 22 29
   1097636.28900  26368698.40400                    971298.93140  26368701.22840
  -7886064.95300  22906707.80300                  -6024479.53240  22906711.77540
 -11841966.93200  23393786.88100                  -8465707.78140  23393790.02140
  -5504149.11700  25208314.33400                  -4149474.68340  25208319.19740
 -10204730.57500  23006041.25600                  -7808443.76940  23006044.37340
  -9715232.86200  22532082.06800                  -7446961.54040  22532084.22540
 96  9  5  3 31  0.0060000  0  6  4 14 18 19 22 29
   1137706.98600  26376322.00600                   1002522.84040  26376327.19740
  -7796388.07900  22923772.81800                  -5954601.45740  22923776.54540
 -11884489.46300  23385694.87300                  -8498842.19640  23385698.10740
  -5561044.93900  25197488.10000                  -4193808.97140  25197493.42040
 -10157008.06400  23015122.52100                  -7771257.38640  23015125.60340
  -9685368.76500  22537764.90400                  -7423690.81340  22537767.50640
 96  9  5  3 31 30.0060000  0  6  4 14 18 19 22 29
   1178254.97100  26384039.55300                   1034118.64940  26384043.06840
  -7706271.51300  22940921.78700                  -5884380.77440  22940925.15040
 -11926864.98100  23377631.13900                  -8531862.06740  23377634.11540
  -5617767.50200  25186693.92000                  -4238008.30040  25186699.26440
 -10108676.85900  23024319.71700                  -7733596.69440  23024322.67040
  -9655195.28800  22543506.97500                  -7400179.01240  22543509.31840
 96  9  5  3 32  0.0060000  0  6  4 14 18 19 22 29
   1219269.56700  26391843.17000                   1066078.06640  26391849.20540
  -7615706.50300  22958155.51400                  -5813810.65640  22958159.11140
 -11969058.32400  23369602.16200                  -8564739.98140  23369605.04540
  -5674307.00500  25175934.26400                  -4282064.98540  25175939.40840
 -10059724.65000  23033634.80300                  -7695452.10440  23033638.18940
  -9624714.34300  22549307.27100                  -7376427.62440  22549309.62740
 96  9  5  3 32 30.0060000  0  6  4 14 18 19 22 29
   1260730.87600  26399732.81100                   1098385.55340  26399737.32240
  -7524691.83400  22975474.95900                  -5742890.14740  22975478.74440
 -12011048.64000  23361611.39600                  -8597459.70340  23361614.29140
  -5730661.89700  25165210.38900                  -4325977.82640  25165215.02940
 -10010168.03800  23043065.49800                  -7656836.54840  23043068.76840
  -9593939.23500  22555163.37300                  -7352447.01740  22555165.96340
 96  9  5  3 33  0.0060000  0  6  4 14 18 19 22 29
   1302630.31900  26407707.43600                   1131034.48740  26407711.37340
  -7433217.34200  22992882.08400                  -5671611.33540  22992885.88140
 -12052833.47500  23353660.04500                  -8630019.30240  23353663.36140
  -5786814.48800  25154525.78700                  -4369733.02340  25154530.12340
  -9960015.72000  23052609.18600                  -7617756.81240  23052612.30340
  -9562882.05700  22561073.47500                  -7328246.61740  22561076.04140
 96  9  5  3 33 30.0060000  0  6  4 14 18 19 22 29
   1344959.67400  26415760.97500                   1164018.37740  26415764.12740
  -7341280.10500  23010376.93600                  -5599971.94140  23010380.76840
 -12094410.87900  23345748.25600                  -8662417.27340  23345751.27940
  -5842766.69800  25143877.56100                  -4413332.08540  25143883.11540
  -9909272.73100  23062265.18600                  -7578216.81040  23062268.42040
  -9531553.58300  22567035.12300                  -7303834.82040  22567037.45540
 96  9  5  3 34  0.0060000  0  6  4 14 18 19 22 29
   1387727.55300  26423900.52100                   1197343.96240  26423904.68240
  -7248878.76100  23027960.34200                  -5527970.90540  23027964.18640
 -12135789.94200  23337874.11500                  -8694660.69240  23337877.05740
  -5898524.28200  25133267.60700                  -4456779.49440  25133271.39340
  -9857943.13400  23072032.85700                  -7538219.72240  23072035.76440
  -9499961.71800  22573047.03700                  -7279217.78340  22573049.21740
 96  9  5  3 34 30.0060000  0  6  4 14 18 19 22 29
   1430951.96700  26432126.29500                   1231025.31340  26432131.97840
  -7155997.68900  23045635.08400                  -5455596.05840  23045638.82240
 -12176990.53600  23330033.99000                  -8726765.04240  23330037.16640
  -5954074.85400  25122695.95100                  -4500065.59040  25122701.04940
  -9806024.13800  23081912.20100                  -7497763.34840  23081915.60040
  -9468093.28000  22579111.32600                  -7254385.22540  22579113.61140
 96  9  5  3 35  0.0060000  0  6  4 14 18 19 22 29
   1474637.67500  26440438.81100                   1265066.08040  26440442.74840
  -7062633.37900  23063401.84200                  -5382844.66140  23063405.66240
 -12218034.20700  23322223.60000                  -8758747.11940  23322226.90440
  -6009424.62900  25112163.95900                  -4543195.25840  25112168.92840
  -9753512.94000  23091905.17000                  -7456845.52640  23091908.35740
  -9435946.34900  22585228.55300                  -7229335.67140  22585231.00240
 96  9  5  3 35 30.0060000  0  6  4 14 18 19 22 29
   1518798.36600  26448841.58400                   1299477.01140  26448845.80340
  -6968786.38900  23081260.42800                  -5309717.14740  23081264.21340
 -12258920.66000  23314443.16200                  -8790606.68140  23314446.45540
  -6064581.87600  25101667.49800                  -4586174.88540  25101672.15040
  -9700404.00000  23102011.04500                  -7415461.92440  23102014.43240
  -9403508.00800  22591401.54500                  -7204059.04040  22591403.93640
 96  9  5  3 36  0.0060000  0  6  4 14 18 19 22 29
   1563436.72900  26457336.51400                   1334260.14640  26457342.50240
  -6874455.08000  23099211.07600                  -5236212.24440  23099215.10740
 -12299645.74500  23306693.43600                  -8822340.50540  23306696.81140
  -6119556.40000  25091206.07600                  -4629012.16240  25091210.99840
  -9646697.17300  23112231.50600                  -7373612.44340  23112234.54140
  -9370780.22000  22597629.42800                  -7178556.87040  22597631.70140
 96  9  5  3 36 30.0060000  0  6  4 14 18 19 22 29
   1608546.53700  26465921.22500                   1369410.63540  26465927.17840
  -6779639.53800  23117253.81800                  -5162330.01340  23117257.59240
 -12340194.89200  23298977.04500                  -8853937.23740  23298980.43240
  -6174349.36800  25080779.53700                  -4671707.93240  25080784.67040
  -9592395.22600  23122564.81800                  -7331299.22540  23122568.17040
  -9337752.32800  22603914.31100                  -7152820.84540  22603916.52540
 96  9  5  3 37  0.0060000  0  6  4 14 18 19 22 29
   1654119.20000  26474591.74800                   1404921.74340  26474596.74040
  -6684360.37200  23135384.88900                  -5088086.51740  23135388.58040
 -12380550.63000  23291297.55300                  -8885383.25540  23291300.69340
  -6228972.91700  25070384.61500                  -4714271.69440  25070390.28740
  -9537501.45600  23133010.63900                  -7288524.85440  23133013.86140
  -9304433.74800  22610254.38100                  -7126858.31840  22610256.92440
 96  9  5  3 37 30.0060000  0  6  4 14 18 19 22 29
   1700146.31000  26483351.87300                   1440787.02340  26483355.56440
  -6588627.95000  23153601.92800                  -5013489.83240  23153605.85340
 -12420697.01800  23283658.15400                  -8916666.13640  23283661.40040
  -6283411.30600  25060025.42800                  -4756691.19140  25060030.87740
  -9482018.78900  23143568.58400                  -7245291.60640  23143571.64340
  -9270818.78800  22616651.05300                  -7100664.84340  22616653.45540
 96  9  5  3 38  0.0060000  0  6  4 14 18 19 22 29
   1746621.69700  26492195.11500                   1477001.59940  26492198.93640
  -6492459.56300  23171902.58400                  -4938553.44640  23171906.53340
 -12460625.24100  23276059.89600                  -8947779.01340  23276062.93240
  -6337649.46500  25049704.66200                  -4798954.65140  25049709.35040
  -9425952.99600  23154237.20100                  -7201603.96240  23154240.62340
  -9236910.08500  22623103.97500                  -7074242.47540  22623106.43640
 96  9  5  3 38 30.0060000  0  6  4 14 18 19 22 29
   1793546.98800  26501125.26400                   1513566.69940  26501127.70140
  -6395867.81900  23190283.47500                  -4863287.16540  23190287.02540
 -12500324.47600  23268505.45900                  -8978713.46040  23268508.74040
  -6391668.73800  25039425.19300                  -4841047.55840  25039429.45940
  -9369309.15300  23165016.39600                  -7157465.89940  23165019.50240
  -9202701.67800  22629613.42000                  -7047586.57840  22629615.84640
 96  9  5  3 39  0.0060000  0  6  4 14 18 19 22 29
   1840914.39900  26510139.70100                   1550476.35740  26510145.51440
  -6298864.52400  23208742.10000                  -4787700.19040  23208745.66240
 -12539814.50600  23260990.73200                  -9009484.89440  23260994.06140
  -6445475.32500  25029185.72500                  -4882974.73740  25029190.54140
  -9312101.25400  23175902.66200                  -7112888.30140  23175906.14340
  -9168207.75400  22636177.48200                  -7020708.19740  22636180.06140
 96  9  5  3 39 30.0060000  0  6  4 14 18 19 22 29
   1888719.23500  26519235.70900                   1587726.89640  26519238.47540
  -6201444.19800  23227280.88100                  -4711788.26140  23227284.59640
 -12579104.86500  23253514.06100                  -9040100.73540  23253517.40040
  -6499065.73000  25018987.29500                  -4924733.47840  25018992.42840
  -9254332.69100  23186895.77900                  -7067873.83540  23186898.96740
  -9133421.25800  22642797.40400                  -6993601.83840  22642799.88940
 96  9  5  3 40  0.0060000  0  6  4 14 18 19 22 29
   1936972.78500  26528417.45100                   1625327.00640  26528420.40440
  -6103605.08900  23245898.70900                  -4635550.00840  23245902.76440
 -12618194.70200  23246075.48200                  -9070560.32740  23246078.84640
  -6552455.53000  25008827.88900                  -4966335.87840  25008833.49040
  -9195987.98700  23197998.33400                  -7022410.41840  23198001.58040
  -9098342.30700  22649472.29500                  -6966267.59440  22649474.53340
 96  9  5  3 40 30.0060000  0  6  4 14 18 19 22 29
   1985664.85400  26537684.77900                   1663268.86340  26537688.28340
  -6005340.70200  23264598.15400                  -4558980.35740  23264601.74040
 -12657095.44700  23238672.88900                  -9100872.57240  23238676.19340
  -6605670.73400  24998701.63900                  -5007802.22840  24998706.76040
  -9137064.55600  23209211.31100                  -6976496.04140  23209214.38140
  -9062975.97700  22656202.35700                  -6938709.41040  22656204.87740
 96  9  5  3 41  0.0060000  0  6  4 14 18 19 22 29
   2034781.28300  26547030.27900                   1701541.35540  26547031.82640
  -5906648.95200  23283378.27100                  -4482077.72140  23283382.51440
 -12695817.40400  23231304.20900                  -9131045.50040  23231307.22140
  -6658710.36100  24988608.71700                  -5049131.75240  24988613.62740
  -9077555.05300  23220535.47500                  -6930124.99240  23220538.76840
  -9027324.18500  22662986.63900                  -6910928.79640  22662989.11140
 96  9  5  3 41 30.0060000  0  6  4 14 18 19 22 29
   2084323.54800  26556457.26400                   1740145.69440  26556462.52540
  -5807527.65400  23302240.52100                  -4404840.36540  23302244.50640
 -12734340.11100  23223973.63100                  -9161063.17740  23223976.58440
  -6711565.10400  24978550.59200                  -5090317.21540  24978556.08840
  -9017449.16600  23231973.03700                  -6883289.21840  23231976.52940
  -8991376.18800  22669827.64600                  -6882917.37140  22669830.04940
 96  9  5  3 42  0.0060000  0  6  4 14 18 19 22 29
   2134284.19900  26565965.27900                   1779076.01440  26565967.40040
  -5707974.11200  23321184.77900                  -4327266.18140  23321188.77540
 -12772650.47300  23216683.21700                  -9190915.39240  23216686.25240
  -6764232.51900  24968528.02100                  -5131356.72540  24968533.01440
  -8956761.46800  23243521.67800                  -6836000.09340  23243525.15840
  -8955135.85800  22676724.06800                  -6854678.15240  22676726.36540
 96  9  5  3 42 30.0060000  0  6  4 14 18 19 22 29
   2184652.76700  26575550.78700                   1818324.23840  26575554.64340
  -5607983.85600  23340212.49800                  -4249351.71140  23340216.45940
 -12810755.98900  23209431.99000                  -9220607.98340  23209435.23640
  -6816700.84400  24958543.09200                  -5172241.12940  24958548.26040
  -8895515.40100  23255176.31800                  -6788275.88640  23255179.71740
  -8918609.20400  22683674.52900                  -6826215.82540  22683676.69740
 96  9  5  3 43  0.0060000  0  6  4 14 18 19 22 29
   2235431.59000  26585214.04500                   1857892.08640  26585219.10740
  -5507559.87700  23359322.52900                  -4171099.26840  23359326.26840
 -12848654.03700  23202220.32600                  -9250138.91440  23202223.64340
  -6868951.87500  24948600.67000                  -5212956.14540  24948604.54940
  -8833718.04100  23266936.14600                  -6740122.09540  23266939.49840
  -8881795.60600  22690679.74800                  -6797529.90240  22690682.24440
 96  9  5  3 43 30.0060000  0  6  4 14 18 19 22 29
   2286626.96400  26594953.91200                   1897784.57140  26594957.05340
  -5406709.51900  23378513.90400                  -4092514.58940  23378517.64340
 -12886344.57300  23195047.93600                  -9279508.15140  23195051.24040
  -6920998.84800  24938695.91200                  -5253512.18640  24938700.36540
  -8771378.38700  23278798.66200                  -6691545.73440  23278802.16640
  -8844696.50200  22697739.53700                  -6768621.50740  22697741.97540
 96  9  5  3 44  0.0060000  0  6  4 14 18 19 22 29
   2338250.15400  26604779.24800                   1938010.34440  26604782.92840
  -5305429.63400  23397786.83400                  -4013595.21040  23397790.85340
 -12923830.53000  23187914.67800                  -9308717.97740  23187917.65440
  -6972832.81900  24928832.19300                  -5293902.25240  24928836.58840
  -8708485.21000  23290767.17000                  -6642538.04840  23290770.56840
  -8807308.31800  22704854.38100                  -6739487.85340  22704856.71340
 96  9  5  3 44 30.0060000  0  6  4 14 18 19 22 29
   2390305.62300  26614683.81800                   1978573.05940  26614690.31140
  -5203740.91500  23417137.10700                  -3934357.26340  23417141.39640
 -12961122.94300  23180818.40400                  -9337776.98540  23180821.43940
  -7024457.80400  24919009.48200                  -5334129.47640  24919013.60740
  -8645016.57300  23302844.49800                  -6593081.95740  23302847.48640
  -8769621.02200  22712026.13900                  -6710121.12540  22712028.44740
 96  9  5  3 45  0.0060000  0  6  4 14 18 19 22 29
   2442799.09900  26624674.63900                   2019476.99040  26624679.25640
  -5101643.58400  23436565.74000                  -3854800.91640  23436569.74840
 -12998201.98300  23173761.99000                  -9366669.73040  23173764.88540
  -7075870.68300  24909226.31100                  -5374191.40640  24909230.08440
  -8580954.91700  23315035.16200                  -6543163.77640  23315038.33840
  -8731607.31500  22719259.85000                  -6680500.05140  22719262.21740
 96  9  5  3 45 30.0060000  0  6  4 14 18 19 22 29
   2495733.01800  26634746.52900                   2060724.22540  26634749.38940
  -4999138.15800  23456072.21700                  -3774926.56240  23456076.13140
 -13035053.32000  23166749.56100                  -9395385.05240  23166752.79540
  -7127073.06000  24899481.46700                  -5414089.30140  24899486.38940
  -8516292.87300  23327339.96700                  -6492777.76040  23327343.16640
  -8693246.94500  22726559.63900                  -6650608.85640  22726562.07640
 96  9  5  3 46  0.0060000  0  6  4 14 18 19 22 29
   2549102.29000  26644902.30300                   2102310.63240  26644906.69740
  -4896229.00400  23475655.22500                  -3694737.61740  23475658.83440
 -13071679.68200  23159779.71700                  -9423925.05540  23159782.93940
  -7178071.07800  24889776.46700                  -5453827.96940  24889781.72840
  -8451036.28700  23339757.75600                  -6441928.46340  23339761.04940
  -8654544.57300  22733924.27100                  -6620451.16340  22733926.90840
 96  9  5  3 46 30.0060000  0  6  4 14 18 19 22 29
   2602889.78500  26655137.65400                   2144222.95140  26655143.95940
  -4792921.59900  23495313.80300                  -3614238.35740  23495317.57640
 -13108082.70200  23152852.68600                  -9452291.03040  23152855.70940
  -7228875.60400  24880109.26400                  -5493415.85940  24880114.18640
  -8385203.58200  23352285.47500                  -6390630.23540  23352288.83840
  -8615511.34100  22741351.84200                  -6590035.65040  22741354.63140
 96  9  5  3 47  0.0060000  0  6  4 14 18 19 22 29
   2657085.20300  26665452.07600                   2186453.10240  26665456.41240
  -4689207.40800  23515049.63900                  -3533422.12140  23515053.78740
 -13144253.35000  23145969.47500                  -9480475.94140  23145972.55740
  -7279485.79600  24870478.52100                  -5532852.32140  24870482.29540
  -8318821.11000  23364917.77100                  -6338903.62440  23364921.19340
  -8576171.78300  22748838.17800                  -6559381.44940  22748840.65040
 96  9  5  3 47 30.0060000  0  6  4 14 18 19 22 29
   2711688.25100  26675842.89600                   2229000.89440  26675844.67840
  -4585086.79900  23534863.41200                  -3452289.18140  23534867.32640
 -13180189.59600  23139130.99000                  -9508478.18640  23139133.99040
  -7329913.60800  24860882.24800                  -5572146.68140  24860886.91240
  -8251888.75600  23377654.14600                  -6286748.53240  23377657.38140
  -8536553.62700  22756377.28700                  -6528510.16340  22756379.58440
 96  9  5  3 48  0.0060000  0  6  4 14 18 19 22 29
   2766688.56500  26686308.04500                   2271858.26140  26686311.86540
  -4480562.52900  23554754.06100                  -3370841.71840  23554757.99840
 -13215898.81600  23132335.98200                  -9536303.54040  23132338.83040
  -7380158.36200  24851321.24000                  -5611298.39640  24851326.16240
  -8184416.76900  23390493.78700                  -6234172.95240  23390497.03340
  -8496677.20300  22763965.63100                  -6497437.62840  22763967.81140
 96  9  5  3 48 30.0060000  0  6  4 14 18 19 22 29
   2822072.95800  26696847.53700                   2315014.92140  26696850.31440
  -4375628.43100  23574721.82600                  -3289074.90640  23574725.63540
 -13251371.79500  23125585.78700                  -9563944.80140  23125588.78740
  -7430220.41600  24841794.93600                  -5650307.75340  24841799.37740
  -8116412.05800  23403434.94300                  -6181182.25840  23403438.40040
  -8456541.69100  22771602.80300                  -6466163.20140  22771605.29940
 96  9  5  3 49  0.0060000  0  6  4 14 18 19 22 29
   2877857.79100  26707463.19300                   2358483.57340  26707464.34240
  -4270275.07800  23594769.94300                  -3206981.39840  23594773.86940
 -13286604.74700  23118880.91200                  -9591399.02440  23118883.87740
  -7480098.41600  24832303.62300                  -5689173.68940  24832307.31440
  -8047859.50100  23416479.76400                  -6127764.66840  23416483.26840
  -8416124.83300  22779293.99800                  -6434669.54940  22779296.42440
 96  9  5  3 49 30.0060000  0  6  4 14 18 19 22 29
   2934051.07000  26718155.68600                   2402270.57140  26718157.67840
  -4164513.04100  23614896.08400                  -3124569.42740  23614900.09240
 -13321620.15700  23112217.56800                  -9618683.73440  23112220.61540
  -7529795.08900  24822845.97500                  -5727898.32740  24822850.79140
  -7978759.15300  23429629.58400                  -6073920.23340  23429632.77140
  -8375404.58800  22787042.74800                  -6402939.48540  22787045.23240
 96  9  5  3 50  0.0060000  0  6  4 14 18 19 22 29
   2990653.54800  26728928.17800                   2446376.35240  26728932.94740
  -4058345.72400  23635099.27100                  -3041841.66740  23635103.23240
 -13356433.94800  23105592.60700                  -9645811.34740  23105595.86540
  -7579294.84800  24813426.35000                  -5766469.53140  24813431.04940
  -7909131.58200  23442878.77900                  -6019664.98240  23442882.14340
  -8334351.28200  22794855.29500                  -6370949.90140  22794857.66240
 96  9  5  3 50 30.0060000  0  6  4 14 18 19 22 29
   3047672.74400  26739777.76400                   2490806.81940  26739782.90840
  -3951773.67700  23655378.89600                  -2958798.53240  23655383.09240
 -13391035.33800  23099008.33400                  -9672773.45640  23099011.48640
  -7628602.21100  24804043.82600                  -5804890.82140  24804048.51440
  -7838978.28100  23456228.19300                  -5965000.06940  23456231.41640
  -8292949.41400  22802733.67000                  -6338688.70340  22802735.89640
 96  9  5  3 51  0.0070000  0  6  4 14 18 19 22 29
   3105110.92100  26750708.47200                   2535563.87040  26750711.40140
  -3844819.24800  23675731.58900                  -2875457.43040  23675735.76140
 -13425434.56100  23092462.65100                  -9699578.02440  23092465.65140
  -7677712.55600  24794698.18300                  -5843158.58740  24794702.56540
  -7768297.63600  23469678.72900                  -5909924.24740  23469681.96440
  -8251192.45300  22810679.87800                  -6306150.81540  22810682.12840
 96  9  5  3 51 30.0070000  0  6  4 14 18 19 22 29
   3162947.82600  26761714.01100                   2580631.49340  26761718.93340
  -3737500.81100  23696154.12000                  -2791832.68640  23696158.24540
 -13459614.34100  23085958.49500                  -9726211.59340  23085961.35440
  -7726612.73200  24785393.41700                  -5881262.58640  24785397.67140
  -7697106.08800  23483226.01100                  -5854450.30040  23483229.18640
  -8209094.52500  22818690.40100                  -6273347.23340  22818692.82740
 96  9  5  3 52  0.0070000  0  6  4 14 18 19 22 29
   3221173.56000  26772794.94800                   2626002.14740  26772798.52240
  -3629808.38400  23716647.27600                  -2707916.53140  23716650.93340
 -13493546.80400  23079501.15100                  -9752652.45740  23079504.02240
  -7775290.76600  24776129.79200                  -5919193.48840  24776133.77640
  -7625386.62700  23496873.66700                  -5798565.00640  23496877.13640
  -8166672.71300  22826763.14400                  -6240291.27440  22826765.52240
 96  9  5  3 52 30.0070000  0  6  4 14 18 19 22 29
   3279780.21000  26783946.65900                   2671669.63540  26783948.71040
  -3521754.78800  23737209.00300                  -2623718.94340  23737212.51940
 -13527216.96200  23073093.75300                  -9778888.92940  23073096.76540
  -7823741.66700  24766909.53400                  -5956947.38640  24766913.85840
  -7553119.20300  23510625.97200                  -5742252.72340  23510629.33540
  -8123951.79500  22834892.86200                  -6207002.24640  22834895.21840
 96  9  5  3 53  0.0070000  0  6  4 14 18 19 22 29
   3338755.14000  26795169.45600                   2717624.09240  26795174.60140
  -3413344.42800  23757838.78400                  -2539243.34140  23757842.44040
 -13560635.94600  23066734.51100                  -9804929.67040  23066737.25340
  -7871948.80600  24757736.27600                  -5994511.34040  24757740.39040
  -7480302.70500  23524482.31500                  -5685512.59840  23524485.64440
  -8080946.76600  22843076.62000                  -6173491.83540  22843078.88240
 96  9  5  3 53 30.0070000  0  6  4 14 18 19 22 29
   3398100.90300  26806462.66700                   2763867.50740  26806467.51940
  -3304547.71900  23778542.13600                  -2454466.69540  23778546.07340
 -13593794.97400  23060424.27600                  -9830767.85840  23060426.94840
  -7919899.85000  24748611.55000                  -6031875.73940  24748616.20240
  -7406939.53900  23538442.76900                  -5628346.49740  23538446.12040
  -8037660.17200  22851313.44000                  -6139762.01640  22851315.91340
 96  9  5  3 54  0.0070000  0  6  4 14 18 19 22 29
   3457819.71800  26817826.60400                   2810401.64340  26817833.24940
  -3195368.00900  23799318.29200                  -2369391.60740  23799322.03040
 -13626699.80300  23054162.87800                  -9856407.97540  23054165.85440
  -7967605.69000  24739533.05000                  -6069049.07440  24739537.23340
  -7333031.65700  23552506.85400                  -5570755.94240  23552510.06540
  -7994075.76200  22859607.12000                  -6105800.13240  22859609.78040
 96  9  5  3 54 30.0070000  0  6  4 14 18 19 22 29
   3517921.08000  26829263.07300                   2857233.80940  26829263.98740
  -3085793.09600  23820169.37000                  -2284008.56740  23820173.84740
 -13659350.39800  23047949.65100                  -9881849.98940  23047952.78040
  -8015084.65300  24730498.65100                  -6106045.62140  24730502.39040
  -7258586.10500  23566673.85400                  -5512746.42640  23566676.80840
  -7950169.47800  22867962.36200                  -6071587.44740  22867964.76540
 96  9  5  3 55  0.0070000  0  6  4 14 18 19 22 29
   3578400.78100  26840772.35400                   2904360.83640  26840777.75740
  -2975809.01800  23841098.97200                  -2198306.69740  23841103.54240
 -13691749.57000  23041784.27600                  -9907096.08040  23041787.32340
  -8062355.11300  24721503.01100                  -6142879.70340  24721506.87840
  -7183625.05500  23580938.19800                  -5454335.21540  23580941.51540
  -7905937.59400  22876379.68300                  -6037121.04740  22876381.87440
 96  9  5  3 55 30.0070000  0  6  4 14 18 19 22 29
   3639268.47600  26852356.63600                   2951790.19440  26852361.90940
  -2865432.84500  23862102.98700                  -2112299.29640  23862107.27640
 -13723895.00500  23035667.43300                  -9932144.46040  23035670.24540
  -8109452.97400  24712540.76900                  -6179579.29140  24712545.23340
  -7108149.18400  23595300.34700                  -5395522.85240  23595303.75740
  -7861378.54700  22884858.65900                  -6002399.70440  22884861.05040
 96  9  5  3 56  0.0070000  0  6  4 14 18 19 22 29
   3700530.99500  26864013.44800                   2999527.17440  26864020.01140
  -2754694.66500  23883175.69000                  -2026009.81740  23883179.62840
 -13755790.91900  23029597.58900                  -9956998.41740  23029600.33140
  -8156401.55900  24703606.76900                  -6216162.55840  24703611.04640
  -7032142.95600  23609764.37800                  -5336297.22140  23609767.48340
  -7816495.70800  22893399.64400                  -5967426.06440  22893402.32740
 96  9  5  3 56 30.0070000  0  6  4 14 18 19 22 29
   3762187.31600  26875746.05000                   3047571.12340  26875746.05040
  -2643600.02300  23904316.41700                  -1939442.57140  23904320.51940
 -13787443.61200  23023574.13600                  -9981662.84040  23023577.17140
  -8203194.35800  24694702.25300                  -6252624.42740  24694707.05840
  -6955606.80100  23624329.06500                  -5276658.65640  23624331.62040
  -7771305.07300  22901999.14400                  -5932212.58040  22902001.49940
 96  9  5  3 57  0.0070000  0  6  4 14 18 19 22 29
   3824236.76300  26887551.94800                   3095921.26640  26887557.21040
  -2532178.98400  23925518.76900                  -1852620.99040  23925522.92940
 -13818858.19800  23017596.39400                 -10006141.73140  23017599.51140
  -8249814.48000  24685830.22200                  -6288951.76740  24685833.70240
  -6878535.06900  23638994.84700                  -5216602.76140  23638997.68340
  -7725801.48800  22910658.24500                  -5896755.24140  22910660.37840
 96  9  5  3 57 30.0070000  0  7  3  4 14 18 19 22 29
                  26917332.34700
   3886670.35600  26899433.95600                   3144570.82240  26899441.26140
  -2420452.17000  23946779.47200                  -1765561.14640  23946783.93640
 -13850039.23600  23011662.76900                 -10030438.63940  23011665.51140
  -8296265.24100  24676991.08100                  -6325147.13040  24676995.17140
  -6800925.66900  23653763.59700                  -5156127.90740  23653766.67940
  -7679975.16400  22919378.70600                  -5861046.41840  22919381.10840
 96  9  5  3 58  0.0070000  0  7  3  4 14 18 19 22 29
    -49093.50700  26907668.00300
   3949458.89900  26911382.29200                   3193496.90440  26911385.79640
  -2308398.97900  23968103.12000                  -1678246.97440  23968107.67940
 -13880982.35300  23005774.52600                 -10054550.15240  23005777.52640
  -8342527.21100  24668187.81500                  -6361195.38740  24668192.73740
  -6722797.88300  23668631.01100                  -5095249.11240  23668634.12840
  -7633819.30100  22928161.84700                  -5825080.81740  22928164.51940
 96  9  5  3 58 30.0070000  0  7  3  4 14 18 19 22 29
    -99798.44900  26898018.66700
   4012575.66500  26923393.79200                   3242678.70340  26923399.04240
  -2196008.43400  23989490.31500                  -1590669.93440  23989494.33540
 -13911682.27900  22999932.33100                 -10078472.16440  22999935.54240
  -8388582.64400  24659423.58100                  -6397082.69640  24659428.26940
  -6644177.37900  23683591.61200                  -5033986.38340  23683594.90540
  -7587327.30600  22937008.89400                  -5788853.29140  22937011.35440
 96  9  5  3 59  0.0070000  0  7  3  4 14 18 19 22 29
   -150400.31900  26888389.59700                    -17076.07850  26888393.66340
   4076015.85900  26935465.24500                   3292112.64940  26935470.33140
  -2083268.05100  24010944.20600                  -1502820.29440  24010948.00340
 -13942121.01800  22994139.94800                 -10102190.65340  22994142.83140
  -8434425.49000  24650700.40900                  -6432804.37240  24650704.72240
  -6565064.87500  23698646.26900                  -4972340.27440  23698649.66740
  -7540496.33700  22945920.76900                  -5752361.63240  22945923.15940
 96  9  5  3 59 30.0070000  0  7  3  4 14 18 19 22 29
   -200895.49200  26878781.55000                    -56422.92340  26878787.06940
   4139765.61300  26947596.44000                   3341787.79140  26947598.71440
  -1970159.49400  24032467.88600                  -1414683.76540  24032471.72940
 -13972293.81500  22988398.70600                 -10125701.91140  22988401.54240
  -8480060.16300  24642015.83100                  -6468363.82140  24642019.82740
  -6485469.69800  23713792.86200                  -4910318.05740  23713796.36640
  -7493341.33200  22954893.97900                  -5715617.47440  22954896.27640
 96  9  5  4  0  0.0070000  0  6  3 14 18 19 22 29
   -251273.50400  26869194.45600                    -95678.47140  26869197.86640
  -1856680.83600  24054061.97900                  -1326258.84540  24054066.28040
 -14002201.11400  22982707.21400                 -10149006.28440  22982710.21440
  -8525463.71000  24633376.22200                  -6503743.18440  24633380.05440
  -6405379.54100  23729033.25300                  -4847910.14340  23729036.55840
  -7445868.33500  22963927.70600                  -5678625.53740  22963930.29640
 96  9  5  4  0 30.0070000  0  6  3 14 18 19 22 29
   -301522.90300  26859632.13600                   -134833.80940  26859635.75740
  -1742854.18900  24075722.29200                  -1237562.76940  24075726.40540
 -14031845.45100  22977066.01100                 -10172105.76040  22977068.92940
  -8570635.20700  24624780.03400                  -6538941.71540  24624784.67540
  -6324785.68800  23744369.84700                  -4785109.74140  23744372.75340
  -7398089.94800  22973019.69000                  -5641395.62740  22973022.08140
 96  9  5  4  1  0.0070000  0  6  3 14 18 19 22 29
   -351635.25100  26850095.09700                   -173882.40740  26850101.71840
  -1628671.12500  24097450.91700                  -1148588.95840  24097455.40540
 -14061215.53200  22971477.34700                 -10194991.52340  22971480.35840
  -8615577.17100  24616227.69000                  -6573961.39740  24616232.29640
  -6243668.67200  23759806.11200                  -4721901.67040  23759809.15940
  -7350000.63800  22982170.64400                  -5603923.43640  22982173.04640
 96  9  5  4  1 30.0070000  0  6  3 14 18 19 22 29
   -401620.26000  26840584.37000                   -212831.67240  26840589.90140
  -1514133.51800  24119246.59700                  -1059338.87640  24119250.87440
 -14090308.08800  22965941.30800                 -10217661.03540  22965944.21440
  -8660289.56600  24607718.96400                  -6608802.19640  24607723.22940
  -6162026.75000  23775341.94000                  -4658284.58940  23775344.82340
  -7301592.00900  22991382.61200                  -5566202.43340  22991385.03840
 96  9  5  4  2  0.0070000  0  6  3 14 18 19 22 29
   -451473.97200  26831097.15900                   -251678.74940  26831099.97240
  -1399249.89700  24141108.30000                   -969819.19140  24141112.62440
 -14119114.29600  22960459.39400                 -10240107.41440  22960462.24140
  -8704771.95600  24599254.68300                  -6643463.76640  24599259.59340
  -6079862.05600  23790976.97900                  -4594260.15140  23790980.53040
  -7252862.56700  23000655.88600                  -5528231.44540  23000657.92540
 96  9  5  4  2 30.0070000  0  6  3 14 18 19 22 29
   -501192.05100  26821635.90100                   -290420.10240  26821638.69040
  -1284018.83100  24163036.00300                   -880028.75640  24163040.44440
 -14147619.37100  22955035.01900                 -10262319.14240  22955037.97240
  -8749051.07800  24590828.70600                  -6677966.94340  24590833.07740
  -5997196.92700  23806707.60400                  -4529845.76840  23806711.09740
  -7203811.16400  23009989.84700                  -5490009.57440  23009991.97940
 96  9  5  4  3  0.0070000  0  6  3 14 18 19 22 29
   -550787.00400  26812198.40100                   -329065.51140  26812204.01540
  -1168456.06800  24185027.13600                   -789979.85540  24185031.00340
 -14175838.92000  22949665.22900                 -10284308.38740  22949668.19440
  -8793145.20700  24582437.56500                  -6712325.98040  24582441.52640
  -5914055.15900  23822529.37000                  -4465059.97440  23822532.75740
  -7154439.79100  23019384.75300                  -5451538.37640  23019386.94440
 96  9  5  4  3 30.0070000  0  6  3 14 18 19 22 29
   -600259.59100  26802784.77600                   -367615.50440  26802789.00740
  -1052583.07400  24207076.94800                   -699689.22140  24207080.71040
 -14203793.63200  22944345.22200                 -10306091.27040  22944347.99940
  -8837057.03600  24574082.10400                  -6746542.95740  24574085.58540
  -5830447.65600  23838439.53400                  -4399911.27440  23838442.37040
  -7104750.50100  23028840.28400                  -5412819.45340  23028842.78040
 96  9  5  4  4  0.0070000  0  6  3 14 18 19 22 29
   -649602.59600  26793394.74500                   -406064.56440  26793399.65540
   -936407.44900  24229183.86200                   -609162.76840  24229188.22240
 -14231491.55600  22939074.63600                 -10327674.05540  22939077.44840
  -8880783.09300  24565761.05800                  -6780615.15540  24565765.13640
  -5746370.84400  23854438.88600                  -4334396.86840  23854441.74540
  -7054739.08000  23038357.38600                  -5373849.51940  23038359.96440
 96  9  5  4  4 30.0070000  0  6  3 14 18 19 22 29
   -698806.46200  26784031.58100                   -444405.27140  26784034.71040
   -819921.65100  24251350.57300                   -518394.62240  24251355.14440
 -14258932.27600  22933852.90100                 -10349056.41840  22933855.81940
  -8924317.13000  24557476.86200                  -6814537.73740  24557480.57740
  -5661825.49100  23870526.94800                  -4268517.36940  23870529.98340
  -7004402.86500  23047935.84700                  -5334626.49640  23047938.47240
 96  9  5  4  5  0.0070000  0  6  3 14 18 19 22 29
   -747870.10400  26774694.98700                   -482636.62840  26774700.48340
   -703122.30900  24273576.83900                   -427382.14740  24273580.91740
 -14286126.45900  22928677.79200                 -10370246.68340  22928680.62840
  -8967629.65100  24549234.06500                  -6848287.72940  24549238.44840
  -5576798.09500  23886707.18300                  -4202262.23440  23886710.31140
  -6953731.49200  23057578.47200                  -5295142.31640  23057580.86240
 96  9  5  4  5 30.0070000  0  6  3 14 18 19 22 29
   -796780.83500  26765387.85400                   -520748.85840  26765391.93340
   -585998.24200  24295865.27600                   -336116.65040  24295869.57740
 -14313052.02400  22923554.30800                 -10391227.63240  22923557.00340
  -9010710.21900  24541036.32300                  -6881856.96740  24541041.12840
  -5491274.97200  23902981.62800                  -4135620.83540  23902984.71040
  -6902725.11300  23067284.65900                  -5255397.08440  23067287.06140
 96  9  5  4  6  0.0070000  0  6  3 14 18 19 22 29
   -845528.02700  26756109.45600                   -558733.63040  26756114.30840
   -468550.57500  24318214.87000                   -244598.98940  24318218.42140
 -14339687.48200  22918485.77600                 -10411982.52540  22918488.50740
  -9053559.50200  24532882.73700                  -6915245.97240  24532887.02640
  -5405265.52900  23919348.74500                  -4068600.48740  23919351.94440
  -6851388.84700  23077053.66700                  -5215394.80040  23077055.97640
 96  9  5  4  6 30.0070000  0  6  3 14 18 19 22 29
   -894088.51100  26746869.53400                   -596572.94740  26746876.31940
   -350768.99100  24340627.72900                   -152821.13940  24340631.84340
 -14366016.46100  22913475.12000                 -10432498.60140  22913477.74540
  -9096162.06700  24524775.28400                  -6948442.73340  24524780.21840
  -5318768.54900  23935808.58900                  -4001200.23940  23935811.46040
  -6799702.37300  23086889.26900                  -5175119.62540  23086891.69440
 96  9  5  4  7  0.0070000  0  6  3 14 18 19 22 29
   -942469.96900  26737664.06500                   -634272.71840  26737666.52640
   -232678.92000  24363099.36200                    -60802.91940  24363103.93340
 -14392049.47800  22908521.31500                 -10452784.06440  22908524.05840
  -9138527.10800  24516712.87000                  -6981454.41340  24516717.47640
  -5231788.80700  23952359.91700                  -3933423.81640  23952363.51540
  -6747668.11100  23096790.85400                  -5134573.45640  23096793.21040
 96  9  5  4  7 30.0070000  0  6  3 14 18 19 22 29
   -990665.75800  26728491.53400                   -671827.86440  26728494.64040
   -114288.21000  24385628.51900                     31449.56440  24385633.07740
 -14417764.96400  22903627.95600                 -10472822.10340  22903630.76940
  -9180676.89300  24508692.77600                  -7014298.37040  24508696.59740
  -5144321.95100  23969004.62800                  -3865267.81740  23969008.12040
  -6695292.43800  23106757.80000                  -5093761.24840  23106760.13240
 96  9  5  4  8  0.0070000  0  6  3 14 18 19 22 29
  -1038690.61100  26719353.13600                   -709249.75140  26719358.73740
      4398.81700  24408213.95600                    123932.96440  24408218.16340
 -14443184.02300  22898790.75300                 -10492629.15240  22898793.64740
  -9222630.62000  24500709.53400                  -7046989.53340  24500713.28440
  -5056386.43100  23985738.59700                  -3796746.62940  23985741.72640
  -6642580.93100  23116788.40900                  -5052687.35240  23116790.65940
 96  9  5  4  8 30.0070000  0  7  3 14 18 19 22 28 29
  -1086564.33200  26710243.84700                   -746553.91540  26710249.49540
    123371.20700  24430853.64400                    216638.71440  24430857.34740
 -14468332.35300  22894005.23700                 -10512225.24840  22894008.14440
  -9264404.59500  24492759.78400                  -7079540.66240  24492763.11240
  -4967989.10500  24002559.76100                  -3727865.59740  24002562.73740
        70.87810  26948066.14400
  -6589555.23100  23126878.87800                  -5011368.62440  23126881.17540
 96  9  5  4  9  0.0070000  0  7  3 14 18 19 22 28 29
  -1134291.93000  26701160.21400                   -783744.23240  26701163.28440
    242624.02300  24453546.58100                    309562.97940  24453550.47240
 -14493199.65400  22889273.19800                 -10531602.35640  22889276.06940
  -9306012.73800  24484841.89400                  -7111962.56540  24484845.84340
  -4879123.83000  24019470.12800                  -3658619.92940  24019472.95240
       773.07200  26948200.82300                       534.31510  26948202.81900
  -6536218.72200  23137028.22900                  -4969807.71640  23137030.86640
 96  9  5  4  9 30.0070000  0  7  3 14 18 19 22 28 29
  -1181874.45500  26692105.96400                   -820821.52840  26692111.29640
    362157.08400  24476293.26900                    402705.62040  24476297.17140
 -14517781.16500  22884595.42500                 -10550756.77940  22884598.31940
  -9347446.76100  24476957.03400                  -7144248.78540  24476961.34740
  -4789804.29500  24036467.22900                  -3589020.28440  24036470.20640
      1936.26400  26948422.41700                      1440.70200  26948424.69800
  -6482570.64900  23147237.43300                  -4928004.02540  23147239.87040
 96  9  5  4 10  0.0070000  0  7  3 14 18 19 22 28 29
  -1229301.41300  26683080.61200                   -857777.53540  26683085.54640
    481967.89100  24499092.28400                    496064.68040  24499096.52640
 -14542094.31500  22879968.96400                 -10569702.08540  22879971.81140
  -9388680.30700  24469111.10400                  -7176378.78040  24469115.30040
  -4700041.85600  24053548.64400                  -3519075.52040  24053551.73740
      3559.88700  26948730.97900                      2705.88000  26948733.30800
  -6428599.71400  23157507.61200                  -4885948.76140  23157510.09740
 96  9  5  4 10 30.0070000  0  7  3 14 18 19 22 28 29
  -1276551.82800  26674089.56500                   -894596.03840  26674094.54640
    602038.57400  24521940.72200                    589626.25140  24521944.40140
 -14566125.44600  22875395.93300                 -10588427.63140  22875398.86240
  -9429692.95500  24461306.61200                  -7208336.65340  24461310.45640
  -4609824.25400  24070716.40900                  -3448776.08240  24070719.40940
      5649.58100  26949128.13600                      4334.23800  26949131.64000
  -6374286.68000  23167842.88600                  -4843626.92040  23167845.11240
 96  9  5  4 11  0.0070000  0  7  3 14 18 19 22 28 29
  -1323622.57100  26665132.04200                   -931274.52040  26665136.92940
    722376.19100  24544840.37000                    683395.81540  24544844.10840
 -14589858.97700  22870879.45600                 -10606921.28940  22870882.37440
  -9470475.59000  24453545.65900                  -7240115.30340  24453549.52640
  -4519158.81600  24087969.15900                  -3378127.68740  24087972.06540
      8204.59100  26949614.28400                      6325.17900  26949617.78800
  -6319612.33300  23178246.95600                  -4801023.53840  23178249.33540
 96  9  5  4 11 30.0070000  0  7  3 14 18 19 22 28 29
  -1370499.16100  26656211.87000                   -967801.68640  26656215.58540
    842995.01300  24567793.29200                    777384.48940  24567797.04240
 -14613298.93100  22866419.19800                 -10625186.17840  22866421.96440
  -9511013.63000  24445831.53400                  -7271703.34740  24445835.82340
  -4428041.21900  24105308.12000                  -3307126.96540  24105310.94440
     11226.88100  26950189.47200                      8680.24600  26950193.17100
  -6264575.91300  23188720.39400                  -4758138.01640  23188722.70240
 96  9  5  4 12  0.0070000  0  7  3 14 18 19 22 28 29
  -1417169.93500  26647330.69800                  -1004168.52240  26647333.48740
    963906.49900  24590802.19000                    871601.22340  24590805.97640
 -14636437.66200  22862016.08100                 -10643216.35640  22862019.04640
  -9551332.88300  24438158.35400                  -7303120.91240  24438162.45640
  -4336471.15700  24122733.45600                  -3235773.67740  24122736.49140
     14718.32800  26950854.12800                     11400.84200  26950856.88200
  -6209190.04500  23199259.94800                  -4714980.20440  23199262.33940
 96  9  5  4 12 30.0070000  0  7  3 14 18 19 22 28 29
  -1463639.42200  26638487.93300                  -1040378.49840  26638492.90140
   1085120.26100  24613868.05800                    966053.49140  24613872.20640
 -14659255.02300  22857674.05000                 -10660996.10940  22857676.83940
  -9591448.61100  24430525.51100                  -7334379.89640  24430529.27240
  -4244449.07400  24140244.68300                  -3164068.14840  24140248.33940
     18684.01100  26951608.86200                     14491.00600  26951611.24900
  -6153470.18900  23209863.00300                  -4671562.14440  23209865.49940
 96  9  5  4 13  0.0070000  0  7  3 14 18 19 22 28 29
  -1509909.48300  26629683.63600                  -1076433.02940  26629688.22940
   1206658.19700  24636996.30800                   1060758.37040  24637000.51540
 -14681744.09300  22853394.44000                 -10678520.05640  22853397.20640
  -9631362.82900  24422929.52600                  -7365481.83740  24422933.76940
  -4151986.23200  24157839.73700                  -3092019.17740  24157842.73740
     23123.69000  26952453.65900                     17950.52500  26952455.73700
  -6097430.80700  23220526.83900                  -4627895.09640  23220529.22940
 96  9  5  4 13 30.0070000  0  7  3 14 18 19 22 28 29
  -1555965.91800  26620918.73700                  -1112321.17440  26620924.28040
   1328504.53600  24660183.24500                   1155703.56240  24660186.86640
 -14703911.30300  22849176.01100                 -10695793.19740  22849178.68340
  -9671081.11800  24415371.78400                  -7396431.12040  24415375.93340
  -4059084.28600  24175518.60400                  -3019628.05240  24175521.62840
     28039.49600  26953388.55000                     21781.05200  26953391.47600
  -6041091.29400  23231247.96400                  -4583994.18140  23231250.40140
 96  9  5  4 14  0.0070000  0  7  3 14 18 19 22 28 29
  -1601823.48700  26612192.26100                  -1148054.27940  26612197.67540
   1450646.51100  24683426.02600                   1250879.12240  24683430.21040
 -14725749.56100  22845020.50300                 -10712810.01540  22845023.28040
  -9710599.52200  24407851.62000                  -7427224.63640  24407855.78040
  -3965749.33100  24193279.45600                  -2946899.51540  24193282.87840
     33432.52600  26954414.80800                     25983.45800  26954418.05400
  -5984453.84800  23242025.62800                  -4539861.10040  23242028.21840
 96  9  5  4 14 30.0070000  0  7  3 14 18 19 22 28 29
  -1647491.44000  26603502.62000                  -1183639.68540  26603507.50740
   1573069.59800  24706722.14400                   1346273.73040  24706726.26940
 -14747265.65200  22840926.09700                 -10729575.79540  22840929.03840
  -9749895.71500  24400373.93300                  -7457844.99640  24400378.03440
  -3871973.51400  24211124.51100                  -2873827.45540  24211127.45240
     39303.27400  26955532.19000                     30558.06400  26955535.45200
  -5927496.89800  23252864.33900                  -4495479.06240  23252866.80040
 96  9  5  4 15  0.0070000  0  7  3 14 18 19 22 28 29
  -1692959.37600  26594850.97900                  -1219069.20040  26594854.33140
   1695761.77600  24730069.22900                   1441878.01640  24730072.88640
 -14768459.71400  22836893.04200                 -10746090.63740  22836895.76140
  -9788965.48300  24392938.23700                  -7488288.93640  24392942.04640
  -3777753.39100  24229054.32300                  -2800409.17640  24229057.22940
     45653.42300  26956739.58900                     35506.26000  26956743.61600
  -5870196.63000  23263768.38600                  -4450829.50240  23263770.71840
 96  9  5  4 15 30.0070000  0  7  3 14 18 19 22 28 29
  -1738232.00600  26586234.05800                  -1254346.51340  26586237.69040
   1818702.28700  24753464.50300                   1537675.82540  24753468.82740
 -14789335.64500  22832920.29200                 -10762357.58840  22832923.04640
  -9827813.46200  24385545.84700                  -7518560.07840  24385550.12440
  -3683085.12200  24247069.03400                  -2726641.69240  24247072.10440
     52484.67200  26958041.27600                     40829.32700  26958043.59300
  -5812536.87800  23274740.36200                  -4405899.83140  23274742.88240
 96  9  5  4 16  0.0070000  0  7  3 14 18 19 22 28 29
  -1783308.04900  26577656.37800                  -1289470.68740  26577660.40940
   1941893.85300  24776907.24500                   1633669.23540  24776911.47640
 -14809884.08200  22829010.15900                 -10778369.35040  22829013.07740
  -9866427.67700  24378197.99500                  -7548649.04140  24378202.62440
  -3587974.42600  24265167.88600                  -2652529.45540  24265171.28440
     59799.13600  26959432.58100                     46528.92700  26959435.47600
  -5754484.29400  23285787.72900                  -4360664.06040  23285789.81540
 96  9  5  4 16 30.0070000  0  7  3 14 18 19 22 28 29
  -1828164.17700  26569121.16700                  -1324423.45340  26569124.62440
   2065336.56500  24800397.19800                   1729858.35240  24800401.30040
 -14830116.42100  22825160.10400                 -10794134.80040  22825162.81140
  -9904817.95000  24370892.73700                  -7578563.51640  24370897.22640
  -3492431.56500  24283349.04200                  -2578080.47440  24283351.81940
     67596.54100  26960915.64400                     52604.85100  26960919.04600
  -5696042.60900  23296908.46400                  -4315125.09040  23296910.89040
 96  9  5  4 17  0.0070000  0  7  3 14 18 19 22 28 29
  -1872790.65500  26560629.00300                  -1359197.29140  26560630.71440
   2189027.66500  24823934.71400                   1826241.01940  24823938.85140
 -14850035.37600  22821369.65100                 -10809656.05440  22821372.38240
  -9942988.88200  24363629.05800                  -7608307.07940  24363632.92540
  -3396466.21600  24301610.62000                  -2503302.28640  24301613.49140
     75881.17000  26962491.55000                     59060.44800  26962495.41300
  -5637226.43400  23308101.15100                  -4269294.31740  23308103.48340
 96  9  5  4 17 30.0070000  0  7  3 14 18 19 22 28 29
  -1917191.37700  26552179.66700                  -1393795.21440  26552183.44040
   2312967.95600  24847519.84700                   1922817.87640  24847524.31140
 -14869647.11800  22817637.62800                 -10824937.92040  22817640.42940
  -9980938.37900  24356407.70600                  -7637878.09340  24356411.64440
  -3300084.79900  24319951.33900                  -2428199.88640  24319954.21040
     84651.12500  26964160.86200                     65894.22000  26964164.83100
  -5578054.05300  23319361.33900                  -4223185.97240  23319363.77640
 96  9  5  4 18  0.0070000  0  7  3 14 18 19 22 28 29
  -1961360.17500  26543774.59700                  -1428212.39940  26543778.30040
   2437160.81800  24871153.05000                   2019591.53240  24871157.01140
 -14888954.55400  22813963.59700                 -10839982.67240  22813966.14040
 -10018673.28200  24349226.75300                  -7667281.89540  24349230.59740
  -3203290.67600  24338370.71400                  -2352775.89940  24338373.60840
     93909.02300  26965923.69000                     73108.17700  26965926.50300
  -5518554.26300  23330683.47900                  -4176822.50240  23330686.03440
 96  9  5  4 18 30.0070000  0  7  3 14 18 19 22 28 29
  -2005296.26600  26535413.24500                  -1462448.27840  26535416.02240
   2561604.14800  24894833.97200                   2116560.35940  24894838.15540
 -14907951.18900  22810348.66700                 -10854785.23640  22810351.42140
 -10056211.41800  24342083.76900                  -7696532.37540  24342087.40140
  -3106078.82500  24356869.38600                  -2277026.40440  24356872.58540
    103657.72400  26967778.48700                     80704.59300  26967780.97600
  -5458748.48800  23342063.97900                  -4130220.60440  23342066.60440
 96  9  5  4 19  0.0070000  0  7  3 14 18 19 22 28 29
  -2049011.01200  26527095.94800                  -1496511.65540  26527099.65140
   2686284.03800  24918559.79200                   2213713.51240  24918564.04640
 -14926624.80800  22806795.05800                 -10869336.09940  22806797.92940
 -10093553.35100  24334977.52600                  -7725629.96440  24334981.19440
  -3008454.08300  24375446.69800                  -2200955.19040  24375450.03840
    113894.65900  26969726.01100                     88681.44300  26969729.11600
  -5398633.72900  23353503.80800                  -4083377.94740  23353506.11640
 96  9  5  4 19 30.0070000  0  7  3 14 18 19 22 28 29
  -2092494.05000  26518820.41700                  -1530394.51140  26518823.59340
   2811205.62700  24942331.01900                   2311055.01040  24942335.14440
 -14944962.15200  22803305.53400                 -10883624.93740  22803308.24140
 -10130693.48100  24327910.28400                  -7754570.30040  24327913.74140
  -2910418.31900  24394102.59700                  -2124563.69040  24394105.69040
    124621.45900  26971767.12000                     97040.02000  26971769.44800
  -5338211.68600  23365001.81500                  -4036295.84640  23365003.98340
 96  9  5  4 20  0.0070000  0  7  3 14 18 19 22 28 29
  -2135735.85700  26510592.17500                  -1564089.39240  26510595.83140
   2936366.29500  24966148.58900                   2408582.82440  24966152.89040
 -14962960.58300  22799880.61200                 -10897649.68040  22799883.54240
 -10167626.52600  24320881.89400                  -7783349.28240  24320885.56140
  -2811979.83900  24412834.69000                  -2047858.39240  24412837.31540
    135843.73700  26973902.66700                    105784.68700  26973905.63200
  -5277475.81200  23376559.15100                  -3988969.19340  23376561.50740
 96  9  5  4 20 30.0070000  0  7  3 14 18 19 22 28 29
  -2178732.42000  26502410.03400                  -1597593.17040  26502414.00740
   3061756.77200  24990010.47900                   2506289.68640  24990014.20640
 -14980624.12200  22796519.39400                 -10911413.47840  22796522.22940
 -10204340.33400  24313895.72200                  -7811957.43240  24313899.34340
  -2713140.38800  24431643.44000                  -1970840.64940  24431646.19440
    147557.98500  26976132.10400                    114912.70900  26976134.89000
  -5216400.94200  23388181.18300                  -3941378.39540  23388183.64440
 96  9  5  4 21  0.0070000  0  7  3 14 18 19 22 28 29
  -2221485.09600  26494274.45600                  -1630906.90940  26494278.41740
   3187376.04300  25013914.78400                   2604174.83440  25013918.19440
 -14997964.28100  22793219.81500                 -10924925.28540  22793222.88640
 -10240817.71900  24306954.44800                  -7840381.34040  24306958.21040
  -2613891.82300  24450529.42500                  -1893504.11740  24450532.43640
    159763.96200  26978454.57300                    124423.88900  26978457.80400
  -5154976.75800  23399870.13600                  -3893515.39640  23399872.44440
 96  9  5  4 21 30.0070000  0  8  3 14 18 19 22 27 28 29
  -2263985.28900  26486186.25300                  -1664023.93540  26486190.34340
   3313230.23300  25037863.82300                   2702243.02740  25037867.14040
 -15014972.48600  22789983.04200                 -10938178.42440  22789985.99540
 -10277053.29500  24300058.90100                  -7868616.82340  24300062.37040
  -2514228.71200  24469494.70600                  -1815844.55640  24469498.02240
    -10113.02610  27361754.58900
    172469.62200  26980873.62800                    134324.41400  26980875.52200
  -5093186.95900  23411628.30000                  -3845367.50340  23411630.49140
 96  9  5  4 22  0.0070000  0  8  3 14 18 19 22 27 28 29
  -2306239.47000  26478146.11200                  -1696949.16540  26478150.36640
   3439302.85700  25061854.42500                   2800481.43940  25061858.74940
 -15031654.39300  22786808.55000                 -10951177.30640  22786811.37440
 -10313058.08200  24293207.01100                  -7896672.48740  24293210.74940
  -2414152.20600  24488538.31500                  -1737862.86840  24488541.87840
    -70768.19300  27350211.71400
    185672.35100  26983385.26900                    144612.26100  26983388.02200
  -5031015.40400  23423459.39400                  -3796922.14640  23423461.69040
 96  9  5  4 22 30.0070000  0  8  3 14 18 19 22 27 28 29
  -2348247.25800  26470152.26100                  -1729682.50740  26470155.01540
   3565590.57400  25085886.30000                   2898887.45940  25085890.54240
 -15047997.75100  22783698.42500                 -10963912.38940  22783701.22640
 -10348838.08400  24286398.19000                  -7924552.97240  24286402.10440
  -2313656.11100  24507662.69800                  -1659554.24140  24507666.03840
   -131359.26500  27338681.98700                    -11011.34550  27338687.33140
    199370.21400  26985991.40900                    155285.92800  26985994.75700
  -4968457.28800  23435363.51900                  -3748175.57040  23435366.07340
 96  9  5  4 23  0.0070000  0  8  3 14 18 19 22 27 28 29
  -2389999.01600  26462205.88600                  -1762216.34440  26462210.10440
   3692096.32300  25109959.27600                   2997463.37640  25109963.78840
 -15063987.14900  22780655.81500                 -10976371.65740  22780658.56940
 -10384402.63400  24279630.64400                  -7952265.58640  24279634.46440
  -2212758.69400  24526862.90100                  -1580932.87640  24526866.37040
   -191879.31800  27327165.43300                    -58169.78740  27327172.04240
    213567.14000  26988692.90100                    166348.48800  26988696.34700
  -4905539.95800  23447336.40100                  -3699149.08240  23447338.88640
 96  9  5  4 23 30.0070000  0  8  3 14 18 19 22 27 28 29
  -2431484.64300  26454313.61200                  -1794542.75440  26454318.62840
   3818807.22100  25134071.70600                   3096199.12140  25134075.93640
 -15079615.63500  22777681.83900                 -10988549.69540  22777684.55840
 -10419757.57200  24272902.47200                  -7979814.85940  24272906.38640
  -2111481.44700  24546134.90900                  -1502015.55340  24546137.60440
   -252327.32100  27315663.72900                   -105272.00440  27315669.23740
    228261.75900  26991489.53400                    177798.84800  26991492.45200
  -4842282.90200  23459373.55000                  -3649857.86340  23459376.38640
 96  9  5  4 24  0.0070000  0  8  3 14 18 19 22 27 28 29
  -2472702.11700  26446469.14400                  -1826660.21540  26446472.53040
   3945724.04300  25158223.46400                   3195095.34640  25158227.48340
 -15094889.61800  22774774.99500                 -11000451.49140  22774777.70240
 -10454910.97400  24266213.06500                  -8007207.07940  24266216.69840
  -2009827.32400  24565478.90100                  -1422804.55440  24565481.89040
   -312703.53600  27304175.51100                   -152318.34540  27304180.86640
    243453.33900  26994380.51900                    189636.47800  26994382.85400
  -4778707.78700  23471471.62800                  -3600318.81540  23471474.30040
 96  9  5  4 24 30.0070000  0  8  3 14 18 19 22 27 28 29
  -2513637.51800  26438679.38600                  -1858557.92740  26438685.36240
   4072869.15800  25182418.53400                   3294169.47240  25182422.24940
 -15109792.27200  22771939.32300                 -11012063.94840  22771942.18340
 -10489852.15600  24259563.94000                  -8034433.93040  24259568.17140
  -1907799.22900  24584894.45600                  -1343302.15440  24584897.69040
   -372991.20100  27292701.76100                   -199295.67240  27292707.47940
    259153.11000  26997368.67500                    201870.04300  26997370.55400
  -4714823.27900  23483628.51900                  -3550538.67840  23483630.94440
 96  9  5  4 25  0.0070000  0  8  3 14 18 19 22 27 28 29
  -2554304.17400  26430939.83900                  -1890246.20540  26430944.12840
   4200229.69400  25206653.95600                   3393411.48040  25206658.47940
 -15124346.20900  22769169.89400                 -11023404.67840  22769172.69440
 -10524593.29300  24252952.91700                  -8061504.92240  24252957.00740
  -1805412.96600  24604377.74500                  -1263520.65540  24604381.06140
   -433192.77800  27281245.33100                   -246205.91240  27281252.71840
    275350.21400  27000449.76900                    214491.18300  27000453.22600
  -4650634.95200  23495843.40100                  -3500521.79940  23495845.75740
 96  9  5  4 25 30.0070000  0  8  3 14 18 19 22 27 28 29
  -2594713.02400  26423250.59700                  -1921733.60440  26423254.28840
   4327809.78500  25230930.94000                   3492824.53740  25230934.89040
 -15138557.11400  22766465.70600                 -11034478.10640  22766468.33140
 -10559126.63900  24246381.63600                  -8088413.99040  24246385.56140
  -1702649.19600  24623933.09700                  -1183445.01140  24623936.01540
   -493307.69400  27269805.36200                   -293048.67340  27269810.85840
    292053.14100  27003628.90100                    227506.47100  27003631.80800
  -4586098.40600  23508123.99500                  -3450233.58540  23508126.67940
 96  9  5  4 26  0.0070000  0  8  3 14 18 19 22 27 28 29
  -2634870.45100  26415608.82300                  -1953025.02840  26415612.69040
   4455619.87600  25255252.70600                   3592416.80640  25255256.96040
 -15152432.39600  22763825.37000                 -11045290.00540  22763828.01940
 -10593462.10100  24239847.61200                  -8115168.86340  24239851.45640
  -1599511.91500  24643559.74500                  -1103078.29540  24643563.22640
   -553338.88000  27258382.05000                   -339826.05440  27258391.45240
    309260.87800  27006903.19800                    240915.07300  27006906.42500
  -4521192.45800  23520475.14400                  -3399657.51640  23520477.72240
 96  9  5  4 26 30.0070000  0  8  3 14 18 19 22 27 28 29
  -2674775.08900  26408016.18300                  -1984119.54740  26408021.73740
   4583656.51500  25279617.66700                   3692185.62740  25279622.42540
 -15165973.19400  22761248.37000                 -11055841.27340  22761251.33540
 -10627588.73100  24233353.41700                  -8141761.00740  24233357.40140
  -1495999.53100  24663257.54200                  -1022419.28840  24663260.13240
   -613289.50500  27246973.52600                   -386540.79940  27246979.71440
    326976.22000  27010273.97900                    254719.19400  27010277.65500
  -4455905.05400  23532899.12000                  -3348784.22940  23532901.35840
 96  9  5  4 27  0.0080000  0  8  3 14 18 19 22 27 28 29
  -2714434.63700  26400468.23400                  -2015023.04440  26400471.51640
   4711905.46400  25304023.21100                   3792119.87440  25304027.35940
 -15179196.34700  22758731.96900                 -11066145.01640  22758734.99240
 -10661515.21100  24226897.39100                  -8168197.20840  24226901.58640
  -1392102.06600  24683028.43000                   -941460.22440  24683031.50040
   -673177.46500  27235578.79700                   -433206.68440  27235585.47740
    345198.01900  27013741.48400                    268917.99900  27013745.47700
  -4390234.14500  23545395.91400                  -3297612.09940  23545398.24640
 96  9  5  4 27 30.0080000  0  8  3 14 18 19 22 27 28 29
  -2753832.63200  26392971.69500                  -2045722.75140  26392976.31240
   4840351.11800  25328464.63300                   3892207.42340  25328469.01640
 -15192082.17800  22756280.27300                 -11076185.92140  22756283.14440
 -10695234.72300  24220480.93700                  -8194472.12340  24220485.12140
  -1287834.07200  24702869.81200                   -860212.44440  24702872.77740
   -733004.52600  27224191.96900                   -479825.08340  27224195.96540
    363927.67400  27017305.00000                    283512.53500  27017308.88300
  -4324204.49800  23557960.71100                  -3246160.43340  23557963.09040
 96  9  5  4 28  0.0080000  0  9  3 14 18 19 22 27 28 29 31
  -2792940.77200  26385530.43700                  -2076196.57840  26385532.52340
   4968990.42500  25352944.15600                   3992445.83640  25352948.43440
 -15204607.08000  22753896.61700                 -11085945.57040  22753899.35940
 -10728737.10800  24214105.66400                  -8220577.84540  24214109.13340
  -1183196.34500  24722782.12500                   -778676.55540  24722785.68740
   -792765.54700  27212820.68000                   -526392.11640  27212826.85540
    383166.16700  27020967.10200                    298503.57500  27020969.21100
  -4257845.51500  23570588.61700                  -3194452.13540  23570590.99640
                  27049887.51600
 96  9  5  4 28 30.0080000  0  9  3 14 18 19 22 27 28 29 31
  -2831760.37300  26378141.88300                  -2106445.56940  26378145.79740
   5097803.13700  25377456.87500                   4092819.37440  25377461.80940
 -15216758.16600  22751584.32000                 -11095413.93540  22751587.28540
 -10762015.24800  24207773.03900                  -8246508.84140  24207776.89440
  -1078186.51400  24742764.57800                   -696850.72440  24742768.09440
   -852463.41000  27201460.75000                   -572909.90340  27201464.01940
    402911.65400  27024724.46900                    313889.68500  27024726.66800
  -4191177.57600  23583274.96100                  -3142503.09740  23583277.23440
    -67152.68000  27036669.03100
